GFSSGP_con_sbcape_000.txt.gz
CAPE
0 0 0 0 0 0 0 4 41 7 3 0 0 4 37 126 368 201 201 382 717 715 766 1013 1401 1540 1517 1601 1951 2047 2092 2036 1843 1791 1707 1751 1706 1540 1426 1426 1509 1471 1500 1661 1747 1878 1963 1819 1869
0 0 0 0 0 0 0 10 4 0 0 0 0 26 68 62 166 111 182 559 770 1009 1103 1233 1500 1652 1758 1877 1899 1962 1961 1893 1889 1913 1905 1736 1662 1481 1311 1196 1466 1311 1296 1334 1379 1259 1869 1748 1514
0 0 0 0 0 0 0 11 16 0 0 10 0 82 109 97 64 71 221 584 1113 1496 1398 1642 1767 1755 1937 2169 2110 1994 2193 2121 2109 2078 1917 1651 1340 1069 967 1036 1155 944 927 1005 1064 949 825 880 1169
0 0 0 0 0 2 0 37 0 0 17 26 38 106 102 119 70 61 200 453 585 1186 1451 1378 1596 1813 2137 2155 2117 2097 1963 1948 1967 1938 1721 1419 1165 918 805 773 528 391 351 479 580 683 895 1053 1161
0 0 0 0 6 21 23 0 0 0 10 1 16 144 272 240 41 39 96 191 280 969 1340 1495 1477 1668 1837 1897 1843 1873 1816 1750 1651 1464 1309 1195 982 637 464 354 264 166 125 109 106 104 192 335 475
0 0 0 0 8 11 2 0 3 47 13 0 26 97 277 217 108 53 11 33 95 591 1014 1062 1457 1497 1523 1540 1505 1452 1404 1434 1466 1361 989 967 705 464 349 247 158 75 58 38 13 2 6 38 92
0 0 0 0 2 17 0 0 0 0 0 1 4 127 185 234 203 20 0 0 81 206 231 535 737 913 1042 1016 1116 1132 1218 1228 1028 935 852 752 621 392 189 117 52 7 0 0 0 0 0 0 3
0 0 0 0 0 1 0 0 0 0 0 0 0 38 101 266 186 5 0 0 5 272 372 555 643 592 545 618 843 1044 1051 983 877 746 657 711 554 374 142 136 7 0 0 0 0 0 0 0 0
0 0 0 0 0 0 0 0 0 0 0 0 0 0 177 252 179 31 0 0 0 160 601 627 621 762 1022 559 568 833 972 931 798 795 588 417 692 426 157 31 47 9 0 0 0 0 0 0 0
0 0 0 0 0 0 0 0 0 0 0 0 0 47 461 357 285 93 0 0 1 388 475 1119 936 933 442 88 484 980 626 774 910 832 889 951 731 559 219 283 192 181 125 65 0 0 0 0 0
0 0 0 0 0 0 0 0 0 0 0 0 0 0 415 473 363 141 0 0 39 430 562 1260 1502 1215 842 434 479 544 570 614 1203 1169 900 921 765 1075 762 716 327 294 144 228 2 0 0 0 0
0 0 0 0 0 0 0 0 0 0 0 0 0 0 310 255 182 146 69 1 83 365 436 1424 1402 1438 908 886 389 661 570 536 607 723 887 990 797 760 372 204 12 4 9 18 29 0 0 0 0
0 0 0 0 0 0 0 0 0 0 0 0 0 0 180 296 304 268 235 169 131 446 503 1068 1372 1297 1512 798 1222 1157 894 866 602 696 693 606 483 589 377 144 53 34 12 6 12 0 0 0 0
0 0 0 0 0 0 0 0 0 0 0 0 0 0 21 293 404 350 324 266 279 349 786 1414 1506 1338 790 687 799 1239 944 670 771 291 86 212 278 352 264 113 109 57 36 33 7 0 2 0 0
0 0 0 0 0 0 0 0 0 0 0 0 0 0 0 68 141 196 207 324 415 146 282 1365 1288 573 393 527 733 753 88 21 102 92 84 81 133 168 261 173 151 164 179 112 70 93 51 57 3
0 0 0 0 0 0 0 0 0 0 0 0 0 0 0 12 42 153 254 213 131 390 214 256 1076 657 136 547 172 219 250 182 124 203 178 119 117 149 202 184 196 225 304 176 167 127 83 62 58
0 0 4 0 0 0 0 0 0 0 0 0 0 0 0 0 29 56 96 185 248 115 379 740 265 217 48 196 176 193 166 146 87 29 85 38 31 157 127 110 182 235 186 157 207 161 152 155 143
0 0 0 0 0 0 0 0 0 0 0 0 0 0 1 0 8 110 35 127 284 319 208 664 218 23 62 146 179 42 34 60 57 26 0 0 12 16 63 49 121 259 172 113 164 262 148 154 145
0 0 0 5 0 0 0 0 0 0 0 0 0 0 0 143 262 156 244 226 255 396 200 488 300 271 145 165 22 0 0 0 0 0 0 0 2 0 0 0 0 0 0 33 54 38 36 39 123
0 0 0 0 0 0 0 0 0 0 0 0 0 0 78 45 0 0 13 322 565 409 197 141 23 0 0 0 0 0 0 0 0 0 0 0 0 0 0 0 1 0 0 0 21 72 15 0 0
0 0 2 0 0 0 0 8 0 0 0 0 0 0 0 0 0 0 17 56 101 62 37 0 0 0 0 0 0 0 0 0 0 0 0 0 0 0 0 0 0 0 0 0 0 2 2 3 0
0 0 0 0 0 2 0 35 0 0 0 0 0 0 0 0 0 0 0 4 3 5 1 0 0 0 0 0 0 0 0 0 0 0 0 0 0 0 0 0 0 0 0 0 0 0 3 0 0
0 0 0 0 0 0 22 89 141 0 0 0 0 0 0 0 0 0 0 0 0 0 4 0 0 0 0 0 0 0 0 0 0 0 0 0 0 0 0 0 0 0 0 0 1 5 21 12 2
0 0 2 6 28 395 34 122 46 1 0 0 0 0 0 0 0 0 0 0 0 0 0 0 0 0 0 0 0 0 0 0 0 0 0 0 0 0 0 0 0 0 0 6 20 12 5 0 0
0 29 352 462 692 441 94 21 141 0 0 0 0 0 0 0 14 16 5 0 0 0 0 0 0 0 0 0 0 0 0 0 0 0 0 0 0 0 0 0 0 1 8 26 25 22 24 6 0
0 0 342 101 334 153 1 3 3 0 0 0 0 0 0 5 3 1 0 0 3 0 0 0 0 0 0 0 0 0 0 0 0 0 0 0 0 0 0 5 1 8 0 2 1 0 23 29 26
4 0 0 0 10 14 2 85 2 0 0 0 0 0 3 17 11 0 14 31 13 16 26 13 13 8 5 15 0 0 0 0 0 0 0 0 3 0 0 0 0 2 3 9 1 3 4 9 8
0 0 5 120 39 0 3 28 36 9 3 0 0 1 2 36 20 34 23 27 35 23 32 73 32 2 0 0 0 0 0 0 0 0 3 10 0 0 0 8 2 6 4 3 1 2 4 10 10
0 9 0 0 7 1 8 2 0 11 0 0 0 3 19 8 28 34 11 2 3 2 2 16 1 0 0 0 0 0 0 0 0 4 0 0 0 0 0 0 0 3 12 16 10 1 2 2 0
0 0 0 25 0 85 46 0 0 9 0 2 4 1 12 6 0 0 0 0 2 3 1 3 0 0 0 0 0 0 2 0 0 0 0 0 0 2 6 26 24 31 33 43 35 30 41 25 23

GFSSGP_con_sbcape_003.txt.gz
CAPE
0 0 0 0 0 0 0 0 6 0 0 0 20 41 45 58 40 61 451 438 545 708 868 974 1007 1212 1510 1750 1739 1788 1707 1701 1654 1613 1697 1659 1436 1249 1101 1218 1504 1377 1235 1378 1326 1534 1788 1627 1511
0 0 0 0 0 0 0 0 0 0 0 10 8 0 11 19 58 166 415 538 686 830 1019 1070 1087 1285 1559 1608 1658 1735 1826 1842 1841 1876 1747 1466 1220 999 908 1044 1310 1019 930 1020 932 858 801 875 1097
0 0 0 0 0 0 7 0 0 0 0 0 17 0 0 9 93 165 765 1152 1219 1361 1450 1345 1237 1442 1631 1667 1719 1802 1839 1885 1855 1849 1300 1067 973 851 889 800 832 441 443 587 672 736 840 1002 1170
0 0 0 0 0 0 0 0 0 4 0 14 0 19 0 0 60 196 1275 1247 1353 1297 1352 1443 1607 1666 1654 1732 1741 1648 1609 1540 1638 1490 1040 1039 834 725 543 355 202 127 128 157 147 130 218 504 734
0 0 0 0 0 0 0 0 0 1 0 4 103 32 0 8 46 104 969 1153 1258 1202 1365 1393 1516 1600 1715 1838 1744 1557 1467 1399 1379 1371 1316 911 605 427 324 221 104 49 45 32 17 0 5 49 242
0 0 0 0 0 0 0 0 12 1 0 15 82 89 17 0 0 30 312 786 1155 1239 1264 1393 1328 1259 1284 1353 1292 1188 1229 1285 1227 1166 1082 768 548 452 226 131 41 11 2 0 0 0 0 0 4
0 0 0 0 0 0 0 0 0 0 0 39 79 108 46 0 0 0 4 401 794 905 887 888 971 933 807 846 869 908 963 940 913 914 916 791 576 387 281 145 17 0 0 0 0 0 0 0 0
0 0 0 0 0 0 0 0 0 0 0 0 2 111 128 11 0 0 0 14 59 335 498 486 436 398 370 566 655 698 749 678 575 615 659 555 444 209 225 119 46 0 0 0 0 0 0 0 0
0 0 0 0 0 0 0 0 0 0 0 0 0 100 116 2 0 0 0 0 0 120 285 266 217 156 187 293 619 666 733 642 503 550 480 401 352 214 102 84 63 75 23 7 0 0 0 0 0
0 0 0 0 0 0 0 0 0 0 0 0 122 111 50 0 0 0 0 0 0 40 175 205 107 479 124 241 309 304 500 517 507 522 367 259 381 312 98 72 155 172 124 170 108 63 0 0 0
0 0 0 0 0 0 0 0 0 0 0 0 164 141 92 39 0 0 0 0 1 17 303 347 150 34 38 176 139 377 331 395 426 443 257 356 143 197 114 149 212 88 146 98 95 27 0 0 0
0 0 0 0 0 0 0 0 0 0 0 0 0 209 182 148 33 0 0 0 0 8 502 475 484 222 61 0 0 0 89 113 450 605 408 321 127 15 13 0 0 8 55 85 55 1 0 0 0
0 0 0 0 0 0 0 0 0 0 0 0 0 195 193 120 33 0 0 0 0 9 633 583 527 411 241 107 64 50 103 55 65 228 209 96 69 26 13 15 0 0 0 0 0 0 0 0 0
0 0 0 0 0 0 0 0 0 0 0 0 0 34 6 25 7 0 0 0 0 3 789 509 439 643 481 79 254 299 59 57 167 8 16 53 12 54 37 11 20 0 0 0 0 0 0 0 0
0 0 0 0 0 0 0 0 0 0 0 0 0 0 0 81 61 85 10 0 0 2 574 360 679 718 24 117 169 361 0 0 0 0 0 0 7 19 17 7 11 13 17 41 3 5 0 0 0
0 0 0 0 0 0 0 0 0 0 0 0 0 0 0 0 13 23 0 0 0 300 967 397 241 571 96 15 27 13 1 0 5 0 0 0 0 0 0 0 0 6 25 16 0 1 15 5 0
0 0 0 0 0 0 0 0 0 0 0 0 0 0 0 0 0 3 2 0 1 0 307 101 0 139 60 0 1 3 0 0 0 0 0 0 0 0 0 0 0 0 0 0 0 1 2 5 0
0 0 0 0 0 0 0 0 0 0 0 0 0 0 0 0 0 0 0 0 0 1 313 36 26 49 0 0 0 0 0 0 0 0 0 0 0 0 0 0 0 0 0 0 0 0 0 0 0
0 0 0 0 0 0 0 0 0 0 0 0 0 0 0 0 0 0 0 0 0 3 0 0 0 0 0 0 0 0 0 0 0 0 0 0 0 0 0 0 0 0 0 0 0 0 0 0 0
0 0 0 0 0 0 0 0 0 0 0 0 0 0 0 0 0 0 0 0 0 0 0 0 0 0 0 0 0 0 0 0 0 0 0 0 0 0 0 0 0 0 0 0 0 0 0 0 0
0 0 0 0 0 0 0 0 0 0 0 0 0 0 0 0 0 0 0 0 0 0 0 0 0 0 0 0 0 0 0 0 0 0 0 0 0 0 0 0 0 0 0 0 0 0 0 0 0
0 0 0 0 0 0 0 0 0 0 0 0 0 0 0 0 0 0 0 0 0 0 0 0 0 0 0 0 0 0 0 0 0 0 0 0 0 0 0 0 0 0 0 0 0 0 0 0 0
0 0 0 0 0 0 0 0 0 0 0 0 0 0 0 0 0 0 0 0 0 0 0 0 0 0 0 0 0 0 0 0 0 0 0 0 0 0 0 0 0 0 0 0 0 0 0 0 0
0 0 0 0 0 8 13 11 12 0 0 0 0 0 0 0 0 0 0 0 0 0 0 0 0 0 0 0 0 0 0 0 0 0 0 0 0 0 0 0 0 0 0 0 0 0 0 0 2
0 0 4 23 7 28 54 27 6 0 0 0 0 0 0 0 0 0 0 0 0 0 0 0 0 0 0 0 0 0 0 0 0 0 0 0 0 0 0 0 0 0 0 0 0 0 0 0 0
0 0 0 1 0 0 0 0 0 0 0 0 0 0 0 0 0 0 0 0 0 0 0 0 0 0 0 0 0 0 0 0 0 0 0 0 0 0 0 0 0 0 0 0 0 0 0 0 0
0 0 0 0 0 0 0 0 0 0 0 0 0 0 0 0 0 0 0 0 0 0 0 0 0 0 0 0 0 0 0 0 0 0 0 0 0 0 0 0 0 0 0 0 0 0 0 0 0
0 0 0 0 0 0 0 32 18 1 0 0 0 0 0 0 0 0 0 0 0 0 0 0 0 0 0 0 0 0 0 0 0 0 0 0 0 0 0 0 0 0 0 0 0 0 0 0 0
0 0 0 0 0 0 0 0 0 0 0 0 0 0 0 0 0 0 0 0 0 0 0 0 0 0 0 0 0 0 0 0 0 0 0 0 0 0 0 0 0 0 4 10 24 11 0 0 0
0 0 0 0 0 0 0 0 0 0 0 0 0 0 0 0 0 0 0 0 0 0 0 0 0 0 0 0 0 0 0 0 0 0 0 0 0 0 0 0 0 0 0 0 0 5 12 1 1

GFSSGP_con_sbcape_006.txt.gz
CAPE
0 0 0 0 0 0 0 0 3 0 0 52 72 41 15 26 71 146 276 316 574 684 671 744 963 1322 1456 1454 1433 1421 1462 1419 1303 1229 1170 1025 861 684 728 842 968 833 750 649 695 721 677 804 951
0 0 0 0 0 0 0 0 0 0 0 3 21 61 139 302 374 409 365 484 638 686 701 749 1095 1349 1483 1534 1606 1548 1543 1459 1458 1249 1104 932 712 670 649 610 829 504 422 437 552 657 668 705 797
0 0 0 0 0 0 0 0 0 0 0 0 24 8 33 255 387 402 411 631 752 775 802 937 1101 1255 1380 1458 1583 1613 1644 1615 1455 1219 964 781 666 570 387 322 313 173 180 168 171 202 275 425 538
0 0 0 0 0 0 0 0 8 7 2 0 0 4 14 79 241 797 1012 1097 972 1078 933 984 1222 1313 1434 1505 1470 1463 1421 1362 1178 1038 890 678 540 354 220 122 54 36 26 39 26 17 18 61 147
0 0 0 0 0 1 0 0 0 0 52 4 0 10 42 347 1189 1177 1135 1004 868 996 1188 1194 1255 1386 1480 1529 1409 1298 1250 1190 1219 1206 944 533 384 243 126 66 18 3 0 3 0 0 0 0 2
0 0 0 0 0 0 0 0 0 73 6 0 2 93 15 159 1081 1044 1120 1096 1025 926 1202 1430 1336 1387 1420 1373 1183 1031 991 1051 1104 1073 889 489 332 275 112 35 3 0 0 0 0 0 0 0 0
0 0 0 0 0 0 0 0 0 20 48 69 41 55 0 48 513 737 978 1004 1054 1070 1108 1026 1025 1019 939 866 771 816 939 882 924 934 769 570 333 303 160 58 0 0 0 0 0 0 0 0 0
0 0 0 0 0 0 0 0 0 0 0 11 95 55 0 0 69 356 715 710 792 779 736 584 563 479 489 569 659 637 572 518 581 617 461 277 161 130 153 77 35 4 0 0 0 0 0 0 0
0 0 0 0 0 0 0 0 0 0 0 0 1 79 0 0 0 0 0 153 272 402 319 232 230 178 263 337 477 613 575 424 371 428 401 234 147 2 8 72 6 99 21 24 35 50 8 0 0
0 0 0 0 0 0 0 0 0 0 25 46 89 28 0 0 0 0 0 17 87 202 164 28 20 21 90 308 395 225 338 236 240 267 251 205 205 172 43 39 182 165 106 137 185 165 125 49 0
0 0 0 0 0 0 0 0 0 0 10 140 112 0 0 0 0 0 0 0 99 126 245 103 183 67 0 88 21 70 189 176 244 342 299 210 288 28 196 14 11 21 9 37 56 39 8 0 0
0 0 0 0 0 0 0 0 0 0 0 90 99 0 0 0 0 0 0 0 0 228 138 28 82 108 0 9 34 75 133 231 337 306 132 39 8 0 0 0 2 0 0 2 19 22 3 0 0
0 0 0 0 0 0 0 0 0 0 0 115 73 47 4 0 0 0 0 0 0 291 237 104 18 9 0 0 0 11 58 184 256 235 112 0 6 0 0 0 0 0 0 0 0 0 0 0 0
0 0 0 0 0 0 0 0 0 0 0 110 119 88 68 63 0 0 0 0 0 450 274 241 255 200 20 33 3 22 5 1 30 101 41 4 0 2 0 0 0 0 0 0 0 0 0 0 0
0 0 0 0 0 0 0 0 0 0 0 92 198 171 107 66 18 0 0 0 0 557 390 530 511 88 29 6 84 49 0 0 0 0 0 0 0 0 0 0 0 0 0 0 0 0 0 0 0
0 0 0 0 0 0 0 0 0 0 0 0 0 38 11 17 21 5 0 0 5 497 536 470 67 299 2 6 0 0 0 0 0 0 0 0 0 0 0 0 0 0 0 0 0 0 0 0 0
0 0 0 0 0 0 0 0 0 0 0 0 0 0 0 0 0 0 0 0 542 520 432 42 146 172 22 0 0 0 0 0 0 0 0 0 0 0 0 0 0 0 0 0 0 0 0 0 0
0 0 0 0 0 0 0 0 0 0 0 0 0 0 0 0 0 0 0 0 0 125 13 7 34 40 0 0 0 0 0 0 0 0 0 0 0 0 0 0 0 0 0 0 0 0 0 0 0
0 0 0 0 0 0 0 0 0 0 0 0 0 0 0 0 0 0 0 0 0 0 0 0 0 0 0 0 0 0 0 0 0 0 0 0 0 0 0 0 0 0 0 0 0 0 0 0 0
0 0 0 0 0 0 0 0 0 0 0 0 0 0 0 0 0 0 0 0 0 0 0 0 0 0 0 0 0 0 0 0 0 0 0 0 0 0 0 0 0 0 0 0 0 0 0 0 0
0 0 0 0 0 0 0 0 0 0 0 0 0 0 0 0 0 0 0 0 0 0 0 0 0 0 0 0 0 0 0 0 0 0 0 0 0 0 0 0 0 0 0 0 0 0 0 0 0
0 0 0 0 0 0 0 0 0 0 0 0 0 0 0 0 0 0 0 0 0 0 0 0 0 0 0 0 0 0 0 0 0 0 0 0 0 0 0 0 0 0 0 0 0 0 0 0 0
0 0 0 0 0 0 0 0 0 0 0 0 0 0 0 0 0 0 0 0 0 0 0 0 0 0 0 0 0 0 0 0 0 0 0 0 0 0 0 0 0 0 0 0 0 0 0 0 0
0 0 0 0 0 0 0 0 0 0 0 0 0 0 0 0 0 0 0 0 0 0 0 0 0 0 0 0 0 0 0 0 0 0 0 0 0 0 0 0 0 0 0 0 0 0 0 0 0
0 0 0 0 7 7 0 0 0 0 0 0 0 0 0 0 0 0 0 0 0 0 0 0 0 0 0 0 0 0 0 0 0 0 0 0 0 0 0 0 0 0 0 0 0 0 0 0 0
0 0 0 5 0 0 0 0 0 0 0 0 0 0 0 0 0 0 0 0 0 0 0 0 0 0 0 0 0 0 0 0 0 0 0 0 0 0 0 0 0 0 0 0 0 0 0 0 0
0 0 0 0 0 0 0 0 0 0 0 0 0 0 0 0 0 0 0 0 0 0 0 0 0 0 0 0 0 0 0 0 0 0 0 0 0 0 0 0 0 0 0 0 0 0 0 0 0
0 0 0 0 0 0 0 0 0 0 0 0 0 0 0 0 0 0 0 0 0 0 0 0 0 0 0 0 0 0 0 0 0 0 0 0 0 0 0 0 0 0 0 0 0 0 0 0 0
0 0 0 0 0 0 0 0 0 0 0 0 0 0 0 0 0 0 0 0 0 0 0 0 0 0 0 0 0 0 0 0 0 0 0 0 0 0 0 0 0 0 0 0 0 0 0 2 0
0 0 0 0 0 0 0 0 0 0 0 0 0 0 0 0 0 0 0 0 0 0 0 0 0 0 0 0 0 0 0 0 0 0 0 0 0 0 0 0 0 0 0 0 0 0 0 0 0

GFSSGP_con_sbcape_009.txt.gz
CAPE
0 0 0 0 0 0 0 0 0 1 9 6 5 40 105 170 88 74 224 291 584 549 588 731 996 1135 1126 1229 1234 1216 1231 1014 1004 971 897 756 617 615 622 556 452 268 255 266 335 383 384 364 438
0 0 0 0 0 0 0 2 32 69 26 5 10 104 266 423 467 452 359 651 556 544 575 848 1105 1281 1331 1319 1368 1384 1202 1137 1097 1005 898 688 610 487 415 347 454 218 181 137 106 115 136 177 269
0 0 0 0 0 0 1 13 18 26 10 2 5 0 47 533 537 380 407 663 638 552 655 1060 1117 1276 1436 1473 1517 1456 1461 1411 1241 1054 812 651 520 330 198 157 170 84 56 30 18 5 5 12 23
0 0 0 0 0 0 0 0 4 3 19 26 1 26 0 306 426 421 598 712 629 620 756 870 1014 1195 1432 1508 1504 1467 1394 1101 1024 1007 686 588 414 236 103 58 21 8 3 0 0 0 0 0 0
0 0 0 0 0 0 0 0 8 33 32 25 15 43 104 928 570 777 970 791 846 763 871 884 1026 1176 1311 1403 1331 1316 1129 981 1027 915 701 517 368 192 68 20 4 0 0 0 0 0 0 0 0
0 0 0 0 0 0 0 0 53 78 23 71 178 188 49 824 1076 1019 926 780 904 1089 1243 1050 1104 1132 1191 1246 1092 1006 939 989 1027 937 679 459 342 239 81 8 0 0 0 0 0 0 0 0 0
0 0 0 0 0 0 0 0 113 23 79 111 120 46 82 874 863 1105 859 706 739 856 926 1203 1234 1140 1063 929 762 653 705 800 843 806 699 528 359 203 141 27 0 0 0 0 0 0 0 0 0
0 0 0 0 0 0 0 0 0 138 128 49 16 52 531 91 614 855 698 731 815 785 735 657 719 644 564 561 570 562 546 533 642 621 420 184 95 87 97 32 18 14 0 0 1 0 0 0 0
0 0 0 0 0 0 0 0 0 0 69 12 0 4 350 226 522 568 497 468 447 555 460 377 357 293 220 244 400 513 502 411 408 396 281 113 9 0 6 73 57 90 70 40 83 110 111 52 22
0 0 0 0 0 0 0 0 0 22 48 59 0 0 62 85 363 361 386 395 365 348 282 139 108 65 78 320 324 164 221 148 123 101 135 90 85 52 34 27 154 246 228 255 242 280 230 201 2
0 0 0 0 0 0 0 0 0 20 56 62 0 0 3 113 93 70 66 111 105 106 143 20 1 18 61 129 95 37 87 65 81 160 95 97 136 59 30 18 0 0 23 5 32 32 21 3 0
0 0 0 0 0 0 0 0 0 0 64 62 7 0 0 0 0 0 5 16 32 93 75 29 6 1 0 0 0 2 45 74 115 205 226 60 15 0 0 0 0 0 0 0 0 0 0 0 0
0 0 0 0 0 0 0 0 0 0 0 79 6 0 0 0 0 0 0 0 23 172 189 144 137 8 0 0 0 17 82 243 287 169 112 16 0 0 0 0 0 0 0 0 0 0 0 0 0
0 0 0 0 0 0 0 0 0 0 23 27 0 0 0 0 0 0 0 0 34 268 213 27 143 13 0 0 5 12 42 148 208 129 28 0 0 0 0 0 0 0 0 0 0 0 0 0 0
0 0 0 0 0 0 0 0 0 0 65 73 9 0 0 0 0 0 0 0 9 256 205 90 16 4 0 0 0 0 1 0 12 0 0 0 0 0 0 0 0 0 0 0 0 0 0 0 0
0 0 0 0 0 0 0 0 0 0 121 104 47 6 1 0 0 0 0 0 0 259 291 66 73 0 0 0 0 0 0 0 0 0 0 0 0 0 0 0 0 0 0 0 0 0 0 0 0
0 0 0 0 0 0 0 0 0 0 4 0 0 0 0 0 0 0 0 0 40 244 59 5 19 0 0 0 0 0 0 0 0 0 0 0 0 0 0 0 0 0 0 0 0 0 0 0 0
0 0 0 0 0 0 0 0 0 0 0 0 0 0 0 0 0 0 0 0 0 0 0 0 0 0 0 0 0 0 0 0 0 0 0 0 0 0 0 0 0 0 0 0 0 0 0 0 0
0 0 0 0 0 0 0 0 0 0 0 0 0 0 0 0 0 0 0 0 0 0 0 0 0 0 0 0 0 0 0 0 0 0 0 0 0 0 0 0 0 0 0 0 0 0 0 0 0
0 0 0 0 0 0 0 0 0 0 0 0 0 0 0 0 0 0 0 0 0 0 0 0 0 0 0 0 0 0 0 0 0 0 0 0 0 0 0 0 0 0 0 0 0 0 0 0 0
0 0 0 0 0 0 0 0 0 0 0 0 0 0 0 0 0 0 0 0 0 0 0 0 0 0 0 0 0 0 0 0 0 0 0 0 0 0 0 0 0 0 0 0 0 0 0 0 0
0 0 0 0 0 0 0 0 0 0 0 0 0 0 0 0 0 0 0 0 0 0 0 0 0 0 0 0 0 0 0 0 0 0 0 0 0 0 0 0 0 0 0 0 0 0 0 0 0
0 0 0 0 0 0 0 0 0 0 0 0 0 0 0 0 0 0 0 0 0 0 0 0 0 0 0 0 0 0 0 0 0 0 0 0 0 0 0 0 0 0 0 0 0 0 0 0 0
0 0 0 0 0 0 0 0 0 0 0 0 0 0 0 0 0 0 0 0 0 0 0 0 0 0 0 0 0 0 0 0 0 0 0 0 0 0 0 0 0 0 0 0 0 0 0 0 0
0 0 0 6 11 3 0 0 0 0 0 0 0 0 0 0 0 0 0 0 0 0 0 0 0 0 0 0 0 0 0 0 0 0 0 0 0 0 0 0 0 0 0 0 0 0 0 0 0
0 0 1 2 0 0 0 0 0 0 0 0 0 0 0 0 0 0 0 0 0 0 0 0 0 0 0 0 0 0 0 0 0 0 0 0 0 0 0 0 0 0 0 0 0 0 0 0 0
0 0 0 0 0 0 0 0 0 0 0 0 0 0 0 0 0 0 0 0 0 0 0 0 0 0 0 0 0 0 0 0 0 0 0 0 0 0 0 0 0 0 0 0 0 0 0 0 0
0 0 0 0 0 0 0 0 0 0 0 0 0 0 0 0 0 0 0 0 0 0 0 0 0 0 0 0 0 0 0 0 0 0 0 0 0 0 0 0 0 0 0 0 0 0 0 0 0
0 0 0 0 0 0 0 0 0 0 0 0 0 0 0 0 0 0 0 0 0 0 0 0 0 0 0 0 0 0 0 0 0 0 0 0 0 0 0 0 0 0 0 0 0 0 0 0 0
0 0 0 0 0 0 0 0 0 0 0 0 0 0 0 0 0 0 0 0 0 0 0 0 0 0 0 0 0 0 0 0 0 0 0 0 0 0 0 0 0 0 0 0 0 0 0 0 0

GFSSGP_con_sbcape_012.txt.gz
CAPE
0 0 0 0 0 0 0 0 5 13 43 44 79 101 131 231 119 75 273 431 538 560 684 718 845 1071 1172 1076 975 1161 1097 905 861 842 688 518 459 392 320 238 433 189 97 102 97 108 126 171 210
0 0 0 0 0 0 0 0 104 100 58 11 8 8 130 205 388 339 460 760 532 539 600 774 919 1101 1191 1114 1173 1259 1157 1005 914 834 625 507 391 258 148 183 334 73 26 15 4 3 0 4 5
0 0 0 0 0 0 0 46 111 46 26 17 3 0 20 320 455 290 592 627 516 504 768 972 1015 1095 1227 1280 1314 1304 1323 1251 1055 840 613 484 279 130 70 64 127 4 0 0 0 0 0 0 0
0 0 0 0 0 0 0 18 12 1 6 9 0 48 0 86 356 504 831 627 477 528 686 902 1042 1180 1380 1458 1456 1390 1285 1131 1056 853 585 422 242 68 23 6 0 0 0 0 0 0 0 0 0
0 0 0 0 0 0 0 0 0 8 9 0 3 28 32 614 524 734 684 593 610 652 670 794 1036 1212 1367 1487 1433 1323 1054 914 968 844 701 398 241 69 4 0 0 0 0 0 0 0 0 0 0
0 0 0 0 0 0 0 22 85 90 71 28 62 45 76 860 797 926 843 761 679 874 844 810 945 1035 1120 1263 1221 1020 893 902 892 795 656 402 296 152 0 0 0 0 0 0 0 0 0 0 0
0 0 0 0 0 0 0 78 111 67 63 91 52 76 340 726 894 972 885 935 1061 1054 1076 870 891 937 971 945 859 779 781 816 793 716 629 499 285 127 34 23 10 0 0 17 18 47 33 2 6
0 0 0 1 9 0 0 0 40 36 30 22 34 382 580 427 970 884 647 617 697 744 718 722 761 899 685 631 607 495 533 598 636 615 455 170 98 13 8 0 11 78 23 32 107 93 126 103 77
0 0 0 0 3 0 0 0 0 5 45 23 1 174 405 835 744 612 680 661 710 747 734 638 655 520 353 258 398 528 530 487 466 438 323 94 0 0 0 22 71 138 160 191 205 242 235 184 47
0 0 0 0 0 0 2 0 0 78 65 15 17 299 708 737 564 491 459 458 529 587 465 340 280 233 104 312 277 128 150 154 169 162 170 14 5 0 13 21 58 102 182 231 246 262 235 90 0
0 0 0 0 0 0 0 0 0 85 117 28 298 351 394 564 465 469 433 415 483 516 427 210 86 10 29 166 60 0 37 23 36 69 62 55 73 23 0 0 0 0 0 0 0 0 0 0 0
0 0 0 0 0 0 0 0 29 14 36 60 268 341 249 387 292 276 194 176 110 141 204 122 12 0 0 0 2 0 10 18 61 136 130 73 20 0 0 0 0 0 0 0 0 0 0 0 0
0 0 0 0 0 0 0 0 11 0 18 5 135 193 185 232 109 8 6 11 0 40 41 5 0 0 0 0 0 0 17 88 105 148 111 3 0 0 0 0 0 0 0 0 0 0 0 0 0
0 0 0 0 0 0 0 0 0 0 0 0 32 99 44 98 1 0 0 0 0 62 40 10 1 0 0 0 0 0 1 69 132 70 9 0 0 0 0 0 0 0 0 0 0 0 0 0 0
0 0 0 0 0 0 0 0 0 0 9 0 0 2 0 0 0 0 0 0 0 17 3 0 0 0 0 0 0 0 0 1 1 0 0 0 0 0 0 0 0 0 0 0 0 0 0 0 0
0 0 0 0 0 0 0 0 0 0 80 2 0 0 0 0 0 0 0 0 0 13 34 2 0 0 0 0 0 0 0 0 0 0 0 0 0 0 0 0 0 0 0 0 0 0 0 0 0
0 0 0 0 0 0 0 0 0 0 34 0 0 0 0 0 0 0 0 0 1 8 9 0 0 0 0 0 0 0 0 0 0 0 0 0 0 0 0 0 0 0 0 0 0 0 0 0 0
0 0 0 0 0 0 0 0 0 0 0 0 0 0 0 0 0 0 0 0 0 0 0 0 0 0 0 0 0 0 0 0 0 0 0 0 0 0 0 0 0 0 0 0 0 0 0 0 0
0 0 0 0 0 0 0 0 0 0 0 0 0 0 0 0 0 0 0 0 0 0 0 0 0 0 0 0 0 0 0 0 0 0 0 0 0 0 0 0 0 0 0 0 0 0 0 0 0
0 0 0 0 0 0 0 0 0 0 0 0 0 0 0 0 0 0 0 0 0 0 0 0 0 0 0 0 0 0 0 0 0 0 0 0 0 0 0 0 0 0 0 0 0 0 0 0 0
0 0 0 0 0 0 0 0 0 0 0 0 0 0 0 0 0 0 0 0 0 0 0 0 0 0 0 0 0 0 0 0 0 0 0 0 0 0 0 0 0 0 0 0 0 0 0 0 0
0 0 0 0 0 0 0 0 0 0 0 0 0 0 0 0 0 0 0 0 0 0 0 0 0 0 0 0 0 0 0 0 0 0 0 0 0 0 0 0 0 0 0 0 0 0 0 0 0
0 0 0 0 0 0 0 0 0 0 0 0 0 0 0 0 0 0 0 0 0 0 0 0 0 0 0 0 0 0 0 0 0 0 0 0 0 0 0 0 0 0 0 0 0 0 0 0 0
0 0 0 0 0 0 0 0 0 0 0 0 0 0 0 0 0 0 0 0 0 0 0 0 0 0 0 0 0 0 0 0 0 0 0 0 0 0 0 0 0 0 0 0 0 0 0 0 0
0 0 0 0 0 0 0 0 0 0 0 0 0 0 0 0 0 0 0 0 0 0 0 0 0 0 0 0 0 0 0 0 0 0 0 0 0 0 0 0 0 0 0 0 0 0 0 0 0
0 0 0 0 0 0 0 0 0 0 0 0 0 0 0 0 0 0 0 0 0 0 0 0 0 0 0 0 0 0 0 0 0 0 0 0 0 0 0 0 0 0 0 0 0 0 0 0 0
0 0 0 0 0 0 0 0 0 0 0 0 0 0 0 0 0 0 0 0 0 0 0 0 0 0 0 0 0 0 0 0 0 0 0 0 0 0 0 0 0 0 0 0 0 0 0 0 0
0 0 0 0 0 0 0 0 0 0 0 0 0 0 0 0 0 0 0 0 0 0 0 0 0 0 0 0 0 0 0 0 0 0 0 0 0 0 0 0 0 0 0 0 0 0 0 0 0
0 0 0 0 0 0 0 0 0 0 0 0 0 0 0 0 0 0 0 0 0 0 0 0 0 0 0 0 0 0 0 0 0 0 0 0 0 0 0 0 0 0 0 0 0 0 0 0 0
0 0 0 0 0 0 0 0 0 0 0 0 0 0 0 0 0 0 0 0 0 0 0 0 0 0 0 0 0 0 0 0 0 0 0 0 0 0 0 0 0 0 0 0 0 0 0 0 0

GFSSGP_con_sbcape_015.txt.gz
CAPE
0 0 0 0 0 0 0 0 2 31 117 68 146 192 162 140 108 170 443 525 808 965 1006 719 678 1041 912 886 1036 1138 1091 784 706 588 445 404 321 233 179 265 358 214 27 14 0 0 0 0 0
0 0 0 0 0 0 0 3 121 83 88 19 16 24 81 81 242 592 588 802 964 1046 1015 712 722 1043 1024 1003 1221 1251 1068 876 782 575 449 334 215 148 141 120 252 100 0 0 0 0 0 0 0
0 0 0 0 0 0 0 151 68 32 39 23 17 13 77 28 467 490 683 910 873 1071 989 811 830 1027 1112 1237 1353 1337 1272 1160 981 706 456 276 108 59 45 71 114 1 0 0 0 0 0 0 0
0 0 0 0 0 0 1 117 105 66 1 0 16 29 67 109 490 571 1047 982 942 917 952 725 845 1069 1287 1415 1499 1414 1251 1108 946 781 523 274 80 15 2 24 15 0 0 0 0 0 0 0 0
0 0 0 0 0 0 0 137 86 69 9 5 2 37 171 647 848 1117 956 903 993 1030 1065 986 994 1108 1421 1685 1573 1351 1123 1013 902 830 685 381 110 2 0 0 0 0 0 0 0 0 0 0 2
0 0 0 0 0 0 5 128 108 108 70 0 143 134 310 1055 930 1075 952 917 962 1029 1333 1324 1091 1249 1441 1494 1297 971 885 915 802 772 654 356 188 75 7 0 0 0 0 0 0 0 0 0 0
0 0 0 0 0 4 1 151 146 178 121 69 136 277 714 1056 1211 1138 1047 1041 1012 1160 1174 1323 1438 1271 1084 1051 962 787 781 772 729 655 595 450 212 77 112 116 47 0 67 114 85 60 68 27 49
0 0 0 2 13 32 14 0 72 69 117 71 193 598 908 929 1311 1206 1240 1243 1306 1169 1237 1212 1215 1132 1198 1209 767 712 646 601 597 533 393 166 50 8 32 0 82 161 170 143 173 211 223 173 79
0 0 0 15 28 30 0 0 0 25 125 44 0 550 821 1219 1302 1102 891 861 1008 937 983 892 794 776 1079 979 744 533 538 492 466 443 215 48 85 125 112 42 70 178 170 260 311 288 258 197 21
0 0 0 0 48 42 13 4 13 142 144 37 665 1067 1257 1160 998 1010 948 933 1034 928 826 776 762 719 942 657 617 523 369 336 337 383 478 256 255 272 228 150 30 30 69 71 19 38 35 6 34
0 0 0 0 6 34 10 0 8 176 215 129 794 811 798 966 762 684 669 805 892 905 655 622 599 685 692 547 517 297 259 234 313 463 467 450 461 484 407 395 104 52 0 0 0 7 2 0 0
0 0 0 0 0 2 0 0 106 272 147 102 1008 1252 1010 866 742 826 770 689 688 717 830 828 780 530 391 324 340 145 186 263 374 501 509 577 580 318 132 15 3 0 0 0 0 0 0 0 0
0 0 0 0 0 0 0 0 120 42 53 379 1064 1309 1469 1344 1234 805 557 431 491 554 639 641 326 239 177 165 174 154 281 385 474 599 660 511 335 102 26 2 0 0 0 0 0 0 0 0 0
0 0 0 0 0 0 0 0 0 0 71 771 1121 1288 1245 989 614 298 164 120 231 312 439 311 229 70 39 94 158 216 268 258 249 202 152 176 108 49 1 0 0 0 0 0 0 0 0 0 0
0 0 0 0 0 0 0 0 0 0 52 464 987 474 393 271 141 175 43 47 118 299 344 332 52 16 53 92 3 11 1 1 2 6 0 0 0 0 0 0 0 0 0 0 0 0 0 0 0
0 0 0 0 0 0 0 0 0 0 21 117 142 82 83 0 0 0 0 0 31 359 508 360 90 27 0 0 0 0 0 0 0 0 0 0 0 0 0 0 0 0 0 0 0 0 0 0 0
0 0 0 0 0 0 0 0 0 0 23 0 0 1 0 0 0 0 14 0 259 447 355 311 209 18 0 0 0 0 0 0 0 0 0 0 0 0 0 0 0 0 0 0 0 0 0 0 0
0 0 0 0 0 0 0 0 0 0 1 0 0 0 0 0 0 0 0 15 181 187 220 118 2 0 0 0 0 0 0 0 0 0 0 0 0 0 0 0 0 0 0 0 0 0 0 0 0
0 0 0 0 0 0 0 0 0 0 0 0 0 0 0 0 0 0 0 0 0 10 7 0 0 0 0 0 0 0 0 0 0 0 0 0 0 0 0 0 0 0 0 0 0 0 0 0 0
0 0 0 0 0 0 0 0 0 0 0 0 0 0 0 0 0 0 0 1 63 41 1 0 0 0 0 0 0 0 0 0 0 0 0 0 0 0 0 0 0 0 0 0 0 0 0 0 0
0 0 0 0 0 0 0 0 0 0 0 0 0 0 0 0 0 0 0 0 0 0 0 0 0 0 0 0 0 0 0 0 0 0 0 0 0 0 0 0 0 0 0 0 0 0 0 0 0
0 0 0 0 0 12 0 1 0 0 0 0 0 0 0 0 0 0 0 0 0 0 0 0 0 0 0 0 0 0 0 0 0 0 0 0 0 0 0 0 0 0 0 0 0 0 0 0 0
0 0 0 0 0 0 0 2 0 0 0 0 0 0 0 0 0 0 0 0 0 0 0 0 0 0 0 0 0 0 0 0 0 0 0 0 0 0 0 0 0 0 0 0 0 0 0 0 0
0 0 0 0 0 0 0 0 0 0 0 0 0 0 0 0 0 0 0 0 0 0 0 0 0 0 0 0 0 0 0 0 0 0 0 0 0 0 0 0 0 0 0 0 0 0 0 0 0
0 0 0 4 10 0 0 0 0 0 0 0 0 0 0 0 0 0 0 0 0 0 0 0 0 0 0 0 0 0 0 0 0 0 0 0 0 0 0 0 0 0 0 0 0 0 0 0 0
0 0 5 0 0 0 0 0 0 0 0 0 0 0 0 0 0 0 0 0 0 0 0 0 0 0 0 0 0 0 0 0 0 0 0 0 0 0 0 0 0 0 0 0 0 0 0 0 0
0 0 0 0 0 0 0 0 0 0 0 0 0 0 0 0 0 0 0 0 0 0 0 0 0 0 0 0 0 0 0 0 0 0 0 0 0 0 0 0 0 0 0 0 0 0 2 1 7
0 0 0 0 0 0 0 0 0 0 0 0 0 0 0 0 0 0 0 0 0 0 0 0 0 0 0 0 0 0 0 0 0 0 0 0 0 0 0 0 1 5 6 0 0 2 4 9 17
0 0 0 0 0 0 0 0 0 0 0 0 0 0 0 0 0 0 0 0 0 0 0 0 0 0 0 0 0 0 0 0 0 0 0 0 0 0 0 7 12 14 5 4 0 5 0 0 2
0 0 0 0 0 0 0 0 0 0 0 0 0 0 0 0 0 0 0 0 0 0 0 0 0 0 0 0 0 0 0 0 0 0 0 0 0 0 0 0 0 10 28 1 0 0 0 0 0

GFSSGP_con_sbcape_018.txt.gz
CAPE
0 0 0 0 0 0 0 0 13 543 444 421 477 354 256 205 387 348 628 699 924 852 731 521 818 858 836 925 1052 1110 1010 710 553 420 382 270 201 200 167 299 269 26 0 0 0 0 0 0 0
0 0 0 0 0 0 2 0 54 500 249 28 0 35 125 33 246 686 657 878 898 1011 773 634 755 888 981 1143 1197 1230 1051 794 549 401 317 180 170 131 88 57 121 6 0 0 0 0 0 0 0
0 0 0 0 0 0 6 159 284 335 65 17 5 36 53 71 117 642 864 1177 1082 995 1032 962 808 927 1128 1087 1138 1199 1301 1100 796 603 308 141 103 56 22 10 36 0 0 0 0 0 0 0 0
0 0 0 0 0 0 50 349 319 251 144 19 16 0 2 43 20 293 966 1019 888 1118 1107 611 741 878 1044 1235 1282 1491 1309 1014 839 700 419 113 42 7 0 0 18 0 0 0 0 0 0 0 0
0 0 0 0 0 0 77 599 400 153 92 54 62 74 0 86 358 726 765 441 469 967 1173 949 767 711 923 1025 1663 1410 1147 947 875 781 587 222 4 0 0 0 0 1 0 0 0 0 0 0 0
0 0 0 1 4 2 0 605 464 79 11 64 68 199 650 1132 915 1066 693 536 740 1108 1272 1085 683 730 961 1602 1318 1018 944 898 869 699 522 175 23 25 0 0 0 0 0 0 0 0 0 10 5
0 0 0 3 101 110 89 540 500 64 20 140 273 414 1186 1272 1131 899 873 1054 1194 1369 1357 1129 889 944 1194 1073 869 737 812 772 739 683 592 359 181 210 129 50 0 0 12 15 46 62 111 124 58
0 0 0 37 277 333 314 241 26 38 173 323 543 507 1093 1469 1529 1265 1134 1174 1345 1366 1377 1249 1340 1268 1232 1176 753 647 670 591 572 559 354 163 65 79 55 55 158 136 122 143 147 160 186 182 103
0 0 4 121 262 250 78 30 4 57 244 349 286 826 1185 1626 1392 1317 1197 1395 1298 1199 1229 1248 1015 1076 1054 931 921 539 545 520 424 362 164 63 153 215 141 52 110 165 158 186 133 146 143 97 112
0 0 0 94 280 301 83 19 4 279 410 363 1117 1462 1533 1650 1631 1549 1425 1347 1266 1052 1063 854 998 981 1212 658 619 379 140 71 300 361 438 373 559 509 339 166 16 23 6 0 0 3 5 26 0
0 0 0 68 255 64 21 9 28 216 629 575 1209 1689 1524 1503 1517 1438 1250 1086 1348 907 817 816 897 922 832 544 341 74 128 352 652 771 775 852 847 838 427 182 102 114 0 16 1 0 0 0 0
0 0 0 15 236 47 25 50 87 344 333 457 1204 1683 1761 1576 1468 1462 1348 841 669 912 871 709 810 1015 739 350 124 186 247 582 764 953 1113 1159 1027 795 378 108 137 135 57 6 0 0 0 0 0
0 0 0 0 0 129 65 66 221 342 269 971 1485 1563 1758 1459 1141 830 630 549 558 511 687 934 801 729 583 371 347 451 704 773 1066 1084 1191 1161 949 782 281 262 109 22 1 0 0 0 0 0 0
0 0 0 0 23 18 47 16 176 38 654 1364 1497 1471 1569 1438 995 592 464 395 430 413 768 864 585 486 364 533 663 814 852 760 834 983 913 383 420 654 434 166 8 0 2 0 0 0 0 0 0
0 0 0 0 0 12 2 0 0 22 483 1121 1081 1235 1413 1297 1022 508 271 170 188 410 774 810 693 522 643 359 62 3 7 104 264 270 33 3 30 35 2 0 0 0 0 0 0 0 0 0 0
0 0 0 0 0 0 0 6 0 26 407 955 1054 1220 1220 782 555 395 293 187 161 527 860 975 715 678 113 2 0 0 0 0 31 29 12 0 0 0 0 1 0 0 0 0 0 0 0 0 0
0 0 0 0 0 0 0 0 0 136 420 769 923 853 824 417 365 460 465 257 424 786 1135 1081 942 604 365 0 0 0 0 0 0 0 0 0 0 0 0 0 0 0 0 0 0 0 0 0 0
0 0 0 0 0 0 0 24 0 213 423 475 545 609 586 547 390 403 497 504 655 962 1212 1181 745 524 142 0 0 0 0 0 0 0 0 0 0 0 0 0 0 0 0 0 0 0 0 0 1
0 0 0 0 0 65 37 51 33 88 379 476 487 527 523 455 330 505 634 735 823 1001 1095 1009 549 393 275 129 24 0 3 0 0 0 0 0 0 0 0 0 0 0 0 0 0 0 0 0 1
0 0 20 0 2 114 133 181 91 31 175 393 531 512 498 401 500 565 802 876 948 1001 966 867 640 355 121 51 46 43 13 0 0 0 0 0 0 0 0 0 0 0 0 0 0 0 0 1 19
28 68 66 48 16 83 151 190 198 54 23 35 156 379 430 541 637 691 864 1127 1059 827 874 654 277 36 12 3 0 0 0 0 0 0 0 0 0 0 0 0 0 0 0 0 1 0 1 2 7
120 5 49 70 88 116 63 183 306 222 180 173 155 238 343 553 793 776 549 410 589 303 16 0 0 0 0 0 0 0 0 0 0 0 0 0 0 0 0 0 0 0 0 1 6 1 0 0 0
99 11 106 59 138 137 112 155 308 244 262 306 316 411 572 679 291 29 8 22 0 0 0 0 0 0 0 0 0 0 0 0 0 0 0 0 0 0 0 0 0 0 3 5 0 0 0 1 10
7 60 51 47 90 143 96 119 130 358 319 334 302 221 243 93 0 0 0 0 0 0 0 0 0 0 0 0 0 0 0 0 0 0 0 0 0 0 0 2 9 12 11 9 0 0 4 9 1
88 117 110 119 139 138 9 32 58 61 120 348 274 54 17 0 0 0 0 0 0 0 0 0 0 0 0 0 0 0 0 0 0 0 0 0 0 0 0 0 0 15 24 6 1 7 34 2 2
74 94 78 0 58 14 0 19 34 0 0 182 192 0 0 0 0 0 0 0 0 0 0 0 0 0 0 0 0 0 0 0 0 0 0 0 0 0 0 0 3 23 20 8 4 60 50 25 16
2 5 10 23 0 10 0 13 3 0 0 16 98 0 0 0 0 0 0 0 0 0 0 0 0 0 0 0 0 0 0 0 0 0 0 0 0 0 0 4 21 42 46 48 43 70 61 49 33
0 0 11 10 0 0 0 0 0 0 0 2 49 0 0 0 0 0 0 0 0 0 0 0 0 0 0 0 0 0 0 0 0 0 0 0 0 0 0 4 30 46 61 80 55 73 70 44 38
0 0 0 0 0 0 0 0 0 0 0 0 17 0 0 0 0 0 0 0 0 0 0 0 0 0 0 0 0 0 0 0 0 0 0 0 0 0 0 0 15 48 56 36 69 82 97 60 22
0 0 0 0 0 0 0 0 0 0 0 0 8 0 0 0 0 0 0 0 0 0 0 0 0 0 0 0 0 0 0 0 0 0 0 0 0 0 2 6 15 34 54 62 68 91 42 13 22

GFSSGP_con_sbcape_021.txt.gz
CAPE
0 0 0 0 0 0 0 22 9 626 555 542 565 520 358 453 858 651 584 749 695 508 192 315 773 851 876 935 1051 1079 841 495 390 362 246 212 205 187 141 212 179 3 0 0 0 0 0 0 0
0 0 0 0 0 1 29 42 149 686 328 314 292 346 217 334 840 873 847 910 826 560 190 245 761 929 1062 1162 1253 1163 767 491 394 289 198 187 146 93 47 11 84 0 0 0 0 0 0 0 0
0 0 0 0 0 4 79 176 668 399 424 329 124 70 48 74 767 891 781 773 857 674 408 431 782 986 1182 1064 1165 1128 1046 742 649 421 165 146 41 6 0 0 65 0 0 0 0 0 0 0 0
0 0 0 0 4 18 2 477 410 279 367 166 118 30 23 13 308 800 1001 878 829 561 451 490 764 962 974 995 1286 1321 1005 809 685 543 176 26 0 0 0 3 27 0 0 0 0 0 0 0 0
0 0 0 1 8 13 122 373 178 221 260 101 137 16 0 5 47 622 1134 823 461 390 422 577 640 721 890 1163 1277 1231 932 872 764 567 316 53 0 0 0 13 15 0 0 0 0 0 0 0 0
0 0 0 29 50 11 0 317 331 217 68 54 166 171 256 212 223 497 831 213 6 243 512 627 663 606 686 937 1167 989 861 845 751 597 335 18 6 0 0 0 0 18 18 6 0 13 61 63 42
0 0 0 35 138 113 3 433 136 188 4 74 86 297 919 605 682 1010 189 15 0 24 702 812 620 585 727 808 714 707 742 740 706 621 435 155 136 117 64 43 38 34 48 70 98 122 152 169 97
0 0 0 19 169 284 238 501 314 108 0 276 334 492 629 1045 1243 778 121 332 8 12 880 1124 1076 918 1089 959 605 646 612 599 610 366 287 135 116 50 52 123 170 205 140 273 286 243 226 197 121
0 0 4 34 262 67 297 286 127 0 0 314 607 786 1059 1513 1425 1105 711 915 721 976 1124 1113 913 910 930 928 751 582 627 566 468 190 124 16 99 171 83 86 113 130 118 106 29 77 138 181 204
0 0 20 115 161 45 118 6 0 1 0 232 1001 1232 1581 1503 1361 1165 1280 1038 975 933 846 845 1042 890 843 545 546 207 35 5 261 238 144 323 324 468 242 139 106 63 0 31 0 33 130 110 0
0 14 6 38 183 309 75 11 17 61 42 362 871 1314 1521 1505 1349 1074 926 978 939 781 908 972 1148 1165 591 437 220 36 56 404 631 669 639 708 474 553 478 290 214 290 17 197 83 61 42 8 0
0 0 0 41 50 19 2 21 13 0 0 237 833 1460 1620 1315 1546 1419 1087 512 535 786 1037 954 970 1023 529 238 89 92 329 574 539 703 864 894 1042 718 409 266 258 265 178 113 88 89 22 0 0
0 0 0 49 67 0 3 21 18 14 96 452 1143 1679 1309 1310 966 603 388 412 415 477 691 800 756 593 450 238 419 632 588 1085 1160 1047 1277 1242 987 1056 1003 960 582 300 151 109 75 44 1 0 0
1 0 0 0 23 77 38 6 19 111 297 690 1154 1089 597 576 445 329 294 287 302 386 632 565 461 376 279 602 833 931 747 694 875 1012 861 663 747 284 116 398 534 141 112 49 9 0 0 0 0
0 0 0 0 17 76 54 0 3 168 384 562 608 570 553 416 290 220 167 223 270 411 635 589 566 470 785 827 192 20 24 63 335 562 498 243 215 376 456 213 117 38 0 0 0 0 0 0 0
0 0 2 0 39 31 51 18 21 153 319 361 413 508 596 648 404 209 157 133 244 499 891 820 566 827 639 174 14 1 5 16 115 136 110 49 62 0 18 25 4 1 0 0 0 0 0 0 0
0 0 6 1 29 56 42 14 30 158 240 405 538 772 803 623 495 439 324 223 252 725 1223 1221 983 905 451 237 0 0 15 26 5 0 0 0 0 0 1 0 0 0 0 0 0 0 0 1 1
1 3 16 30 28 55 1 13 8 177 242 470 598 750 834 598 578 650 607 408 404 788 1380 1428 1219 752 622 228 90 110 109 89 10 1 0 0 0 0 0 0 0 0 0 0 0 0 0 0 3
2 8 7 2 2 0 0 18 51 161 269 415 468 631 806 832 798 828 853 840 914 1319 1613 1207 820 755 461 613 598 423 19 5 1 0 0 0 0 0 0 0 0 0 0 0 1 5 3 0 0
1 1 25 0 0 57 8 69 46 120 238 372 421 477 588 753 812 924 1072 1151 1183 1342 1437 1198 940 810 787 670 345 102 144 14 0 0 0 0 0 0 0 0 0 0 0 0 0 0 0 0 1
11 6 35 76 77 84 109 127 187 169 259 401 529 565 588 742 902 1016 1180 1299 1427 1216 1066 953 851 769 437 256 66 27 0 0 0 0 0 0 0 0 0 0 0 0 0 0 0 2 6 1 1
72 75 51 123 129 82 57 99 101 281 227 233 386 594 746 774 930 1139 1297 1444 1355 1256 1190 838 501 212 45 2 0 0 12 40 0 0 0 0 0 0 0 0 0 0 0 0 2 1 8 5 8
112 114 186 157 140 15 151 116 49 372 346 289 317 364 522 699 985 1168 1184 939 766 392 258 100 5 0 0 0 0 0 0 0 0 0 0 0 0 0 0 0 0 2 3 4 12 21 20 20 38
99 192 192 189 111 160 87 87 302 436 364 389 447 551 753 1015 901 378 282 153 41 2 0 0 0 0 0 0 0 0 0 0 0 0 0 0 0 0 0 0 0 0 2 12 23 35 26 43 46
132 201 257 177 244 221 127 146 117 43 252 326 550 651 846 642 196 2 0 0 0 0 0 0 0 0 0 0 0 0 0 0 0 0 0 0 0 0 0 0 0 0 0 12 21 24 29 69 43
168 142 238 41 125 164 169 43 96 193 28 150 513 508 562 283 0 0 0 0 0 0 0 0 0 0 0 0 0 0 0 0 0 0 0 0 0 0 0 0 0 1 9 20 33 22 73 62 54
92 92 122 199 140 117 7 0 99 94 77 150 470 380 378 63 0 0 0 0 0 0 0 0 0 0 0 0 0 0 0 0 0 0 0 0 0 0 0 0 0 6 12 24 51 74 82 59 52
54 57 55 9 0 8 29 17 16 135 23 104 417 347 217 24 0 0 0 0 0 0 0 0 0 0 0 0 0 0 0 0 0 0 0 0 0 0 0 0 0 0 10 71 82 60 65 81 88
75 0 0 36 116 40 0 15 0 0 3 33 195 313 190 53 8 0 0 0 0 0 0 0 0 0 0 0 0 0 0 0 0 0 0 0 0 0 0 0 0 2 8 26 39 45 59 66 91
41 99 79 5 0 0 37 2 0 0 0 6 51 192 169 111 28 1 0 0 0 0 0 0 0 0 0 0 0 0 0 0 0 0 0 0 0 0 0 0 4 14 27 27 49 50 69 75 44

GFSSGP_con_sbcape_024.txt.gz
CAPE
0 0 0 0 0 0 0 0 0 626 541 673 520 432 574 718 929 585 593 289 35 44 168 261 596 687 769 973 1014 829 643 498 302 288 386 366 302 241 242 161 73 19 0 0 0 0 0 0 0
0 0 0 0 0 0 0 66 852 484 641 447 544 375 397 522 825 810 703 392 99 67 107 223 656 806 1016 1062 1064 765 555 396 397 357 266 277 179 90 111 176 98 63 0 0 0 0 0 0 0
0 0 0 0 0 0 0 160 683 555 393 390 227 264 256 445 836 846 870 675 248 65 133 422 712 780 1009 1004 930 820 681 542 352 334 198 72 0 0 33 249 190 85 0 0 0 0 0 0 37
0 0 0 0 0 0 0 527 572 320 224 106 134 16 31 35 883 925 891 748 299 418 415 383 360 604 823 988 1007 829 682 518 368 302 237 41 0 55 85 283 230 32 0 0 0 0 0 132 112
0 0 0 0 0 0 0 560 378 26 60 170 96 0 0 63 988 905 895 759 506 125 145 350 385 500 792 1121 980 822 725 575 432 343 216 121 4 65 175 289 243 95 4 0 17 29 67 113 105
0 0 0 0 0 0 1 405 66 30 10 187 156 4 112 121 632 853 724 696 490 187 166 367 431 569 816 1041 825 706 644 554 472 327 203 161 168 223 247 236 219 203 178 150 76 149 189 166 92
0 0 0 0 0 8 318 468 125 0 29 280 63 211 318 271 761 855 112 46 176 103 166 291 373 602 626 622 544 534 530 519 539 390 285 296 299 250 269 303 293 268 278 267 269 258 267 260 177
0 0 0 0 0 141 393 324 0 93 1 170 38 278 288 1087 561 507 38 7 6 133 126 296 478 771 596 480 417 418 432 448 420 306 165 143 152 165 235 310 289 219 172 219 174 160 151 189 139
0 0 0 0 22 87 0 3 16 36 17 55 33 611 1261 1237 293 199 17 1 44 45 259 330 488 761 639 494 423 438 452 401 304 132 67 12 34 58 131 161 140 72 45 70 0 0 55 171 187
0 0 0 125 392 81 10 47 37 7 5 159 401 1422 1400 1281 386 625 363 26 44 39 218 487 653 748 709 417 251 130 71 46 43 0 0 64 596 44 84 164 112 148 42 66 25 66 111 156 0
0 0 0 109 57 20 63 7 21 36 8 2 46 941 1205 932 813 603 432 247 129 327 705 861 798 850 398 309 367 80 20 479 719 709 775 829 674 449 296 376 27 155 53 193 31 106 37 28 3
0 0 0 109 127 76 41 7 7 6 0 0 63 956 1016 947 986 840 591 709 843 733 882 844 846 990 455 224 166 205 416 733 699 859 936 1075 868 570 644 590 422 236 75 135 119 84 76 0 0
0 0 0 68 102 14 149 120 60 1 0 0 0 1000 868 946 924 521 271 592 626 768 863 840 874 680 483 502 678 835 872 1083 1111 1253 1224 1060 970 723 440 453 97 246 87 20 4 0 0 0 0
0 0 0 50 53 1 108 56 8 1 19 6 436 707 721 485 227 132 212 281 376 645 634 653 605 542 562 735 827 508 373 472 745 785 665 443 446 97 58 185 71 52 2 0 0 0 0 0 0
1 0 0 0 44 23 24 23 23 205 326 367 308 168 150 190 147 145 128 227 293 511 479 538 491 408 919 534 164 47 31 91 525 495 562 331 135 175 24 51 41 3 0 0 0 0 0 0 0
0 0 0 0 3 29 5 1 5 131 189 255 291 257 193 148 109 98 157 159 234 415 437 464 384 890 689 225 25 9 7 51 120 65 90 68 65 4 4 19 4 0 0 0 0 0 0 0 0
1 0 0 0 14 51 4 0 1 50 171 235 228 275 332 334 175 118 131 85 218 663 581 638 875 753 239 202 97 8 60 33 23 0 3 1 0 0 0 0 0 0 0 0 0 0 0 0 0
0 0 0 7 0 32 24 0 0 24 247 331 297 357 569 410 273 317 215 142 307 1051 1048 900 989 466 397 148 15 117 203 146 3 8 0 0 0 0 0 0 0 0 0 0 0 0 0 0 0
0 0 12 12 0 0 19 25 0 17 103 303 338 465 525 447 495 542 633 597 551 1311 1373 1187 654 447 485 228 190 267 178 14 3 0 0 0 0 0 0 0 0 0 0 0 0 0 0 0 0
1 10 3 0 0 0 2 7 3 13 85 239 291 480 618 528 627 844 871 1002 1199 1573 1483 902 772 558 498 458 396 187 5 1 0 0 0 0 0 0 0 0 0 0 0 0 0 0 0 0 0
0 23 9 2 0 0 10 0 4 1 34 103 230 288 470 581 846 922 1070 1192 1419 1450 1295 968 776 712 735 541 163 5 0 0 0 0 0 0 0 0 0 0 0 0 0 0 0 0 0 0 0
6 22 3 20 13 12 43 69 11 10 13 32 172 253 360 463 809 896 1088 1245 1245 1096 853 964 764 738 311 138 5 0 0 0 0 0 0 0 0 0 0 0 0 0 0 0 0 0 0 0 0
3 4 51 69 45 118 47 7 59 16 35 149 307 544 603 586 738 977 1136 1162 936 1109 1167 906 491 63 0 0 0 0 0 0 0 0 0 0 0 0 0 0 0 0 0 0 0 0 0 0 0
44 61 132 10 56 81 12 14 19 48 17 1 239 370 530 666 840 926 1212 953 783 630 328 133 0 0 0 0 0 0 0 0 0 0 0 0 0 0 0 0 0 0 0 0 0 6 7 5 2
0 10 138 76 92 335 89 98 99 70 5 26 165 352 435 698 871 919 703 322 144 44 1 0 0 0 0 0 0 0 0 0 0 0 0 0 0 0 0 0 0 0 0 0 2 0 0 5 2
103 8 275 10 0 237 76 108 100 134 118 138 442 526 838 884 658 265 155 35 1 0 0 0 0 0 0 0 0 0 0 0 0 0 0 0 0 0 0 0 0 0 0 0 4 0 3 3 6
22 63 37 124 404 221 6 0 5 58 29 33 558 600 762 553 181 27 0 0 0 0 0 0 0 0 0 0 0 0 0 0 0 0 0 0 0 0 0 0 0 0 0 1 2 13 17 30 22
0 0 140 41 9 0 3 0 76 94 6 21 391 493 573 433 59 0 0 0 0 0 0 0 0 0 0 0 0 0 0 0 0 0 0 0 0 0 0 0 0 0 0 0 3 30 22 15 12
62 9 0 0 373 465 239 16 0 0 0 22 138 507 469 353 35 0 0 0 0 0 0 0 0 0 0 0 0 0 0 0 0 0 0 0 0 0 0 0 0 0 0 7 11 9 17 15 16
1 105 1 675 50 469 349 10 0 0 0 0 8 144 366 294 79 0 0 0 0 0 0 0 0 0 0 0 0 0 0 0 0 0 0 0 0 0 0 0 0 0 2 6 7 6 13 15 8

GFSSGP_con_sbcape_027.txt.gz
CAPE
0 0 0 0 0 0 0 0 61 364 621 555 491 770 880 926 1043 519 466 145 180 435 601 598 614 864 962 942 829 674 446 322 308 326 322 219 160 143 121 73 35 36 0 0 0 0 0 0 0
0 0 0 0 0 0 0 0 589 689 522 447 358 422 800 1032 917 676 204 94 157 253 334 470 757 924 990 874 730 525 350 301 360 337 258 146 73 60 179 193 90 61 0 0 0 0 0 0 0
0 0 0 0 0 0 0 171 621 538 318 301 252 150 182 923 956 886 292 61 55 110 269 568 687 770 801 749 709 530 428 403 298 241 185 79 45 51 81 200 138 100 0 0 0 0 0 0 54
0 0 0 0 0 0 0 265 442 345 144 101 27 14 0 586 1080 791 358 101 62 215 320 338 336 402 622 926 747 561 396 311 248 204 171 106 87 102 125 271 219 29 5 0 0 0 0 64 74
0 0 0 0 0 0 65 447 303 56 157 102 50 21 11 848 927 507 370 340 290 269 167 123 196 390 927 918 762 584 400 301 247 214 211 256 127 98 171 314 223 81 26 22 27 44 125 129 117
0 0 0 0 0 31 329 54 13 40 112 64 20 51 37 889 723 454 347 111 38 17 69 160 408 484 747 802 632 480 395 273 194 219 245 269 277 300 305 306 313 253 183 172 148 155 150 170 151
0 0 0 0 0 277 408 184 106 69 183 97 66 292 164 562 139 131 31 3 106 68 37 98 292 641 474 398 368 345 351 270 235 260 231 223 191 192 287 354 372 329 294 218 135 34 18 78 42
0 0 0 0 0 422 64 39 15 14 41 46 60 207 403 221 18 3 4 8 0 1 118 97 213 394 320 208 227 248 261 211 155 173 144 121 118 175 232 228 217 129 56 22 0 0 0 35 22
0 0 0 0 67 99 19 1 7 0 2 38 181 675 525 34 0 0 2 2 0 0 107 78 206 266 238 145 201 216 246 139 64 86 42 12 0 0 79 47 77 39 0 0 0 0 0 40 29
0 0 0 191 196 89 57 6 0 0 0 72 36 435 245 12 0 0 0 1 0 0 85 233 261 355 193 103 71 64 125 14 0 0 0 0 0 0 40 19 45 22 1 0 0 0 22 57 0
0 0 0 117 192 73 36 66 0 0 4 35 1 100 130 129 9 0 2 5 0 5 58 227 337 425 172 58 14 10 6 0 0 0 0 0 50 0 0 0 0 0 0 7 16 0 0 0 0
0 0 0 197 102 29 17 34 0 0 6 0 0 7 145 301 9 10 16 31 10 13 84 255 405 403 100 140 35 0 2 142 109 255 454 219 138 60 5 0 0 0 0 0 0 0 0 0 0
0 0 0 225 105 12 28 11 0 0 0 9 233 129 330 453 66 19 45 19 38 351 460 349 381 88 33 96 346 336 449 572 570 371 169 149 24 0 0 0 0 0 0 0 0 0 0 0 0
0 0 0 117 65 92 59 26 14 23 0 0 165 384 697 617 338 297 213 205 528 573 433 460 345 54 315 358 165 32 73 329 303 196 123 50 7 0 7 0 0 0 0 0 0 0 0 0 0
2 0 0 7 19 6 3 5 0 26 9 22 88 473 127 149 63 464 511 526 511 432 440 390 94 252 189 3 0 0 0 184 126 134 55 20 0 0 0 0 0 0 0 0 0 0 0 0 0
0 0 0 0 19 0 0 0 8 0 15 10 46 56 54 33 0 156 128 559 385 344 302 217 196 266 0 0 0 0 0 2 1 0 0 0 0 0 0 0 0 0 0 0 0 0 0 0 0
0 0 0 0 1 14 8 0 27 0 17 52 35 33 8 0 0 6 13 260 249 233 254 126 343 11 0 0 0 0 0 0 0 0 0 0 0 0 0 0 0 0 0 0 0 0 0 0 0
0 0 0 0 3 2 0 0 0 11 66 45 58 36 50 1 0 0 0 53 236 254 187 432 191 29 0 0 0 0 0 0 0 0 0 0 0 0 0 0 0 0 0 0 0 0 0 0 0
0 0 0 0 0 6 0 0 0 0 42 25 145 102 140 45 48 0 0 0 284 291 395 325 114 19 0 0 0 0 0 0 0 0 0 0 0 0 0 0 0 0 0 0 0 0 0 0 0
0 3 0 0 0 0 0 0 0 0 12 65 0 75 139 177 133 167 209 143 713 481 440 347 253 172 31 0 13 12 0 0 0 0 0 0 0 0 0 0 0 0 0 0 0 0 0 0 0
2 14 0 0 0 0 0 0 0 0 18 55 12 60 174 173 316 433 434 337 854 721 431 387 287 279 188 29 126 0 0 0 0 0 0 0 0 0 0 0 0 0 0 0 0 0 0 0 0
0 0 0 1 0 0 0 9 49 9 9 2 67 138 248 147 496 473 594 497 832 725 443 374 394 247 242 162 0 0 0 0 0 0 0 0 0 0 0 0 0 0 0 0 0 0 0 0 0
1 0 0 18 0 3 0 0 0 5 0 0 0 23 16 281 467 553 602 817 833 759 546 449 234 319 205 0 0 0 0 0 0 0 0 0 0 0 0 0 0 0 0 0 0 0 0 0 0
0 0 15 10 0 2 0 0 0 0 0 0 1 67 189 32 301 467 640 630 670 559 419 201 0 0 0 0 0 0 0 0 0 0 0 0 0 0 0 0 0 0 0 0 0 0 0 0 0
1 0 0 0 0 14 26 0 0 0 0 0 2 7 33 343 401 613 724 577 134 0 0 0 0 0 0 0 0 0 0 0 0 0 0 0 0 0 0 0 0 0 0 0 0 0 0 0 0
0 0 10 1 0 0 19 15 3 0 0 0 0 0 26 322 331 254 17 0 0 0 0 0 0 0 0 0 0 0 0 0 0 0 0 0 0 0 0 0 0 0 0 0 0 0 0 0 0
13 0 27 0 0 0 2 1 1 0 0 0 0 0 414 458 93 13 0 0 0 0 0 0 0 0 0 0 0 0 0 0 0 0 0 0 0 0 0 0 0 0 0 0 0 0 0 0 0
7 0 10 2 0 0 0 0 32 2 2 11 0 289 461 185 0 0 0 0 0 0 0 0 0 0 0 0 0 0 0 0 0 0 0 0 0 0 0 0 0 0 0 0 0 0 0 0 0
1 0 0 0 0 0 19 0 0 0 0 16 129 351 313 72 0 0 0 0 0 0 0 0 0 0 0 0 0 0 0 0 0 0 0 0 0 0 0 0 0 0 0 0 0 0 0 0 0
2 2 8 0 0 0 0 0 0 0 0 0 1 122 168 14 0 0 0 0 0 0 0 0 0 0 0 0 0 0 0 0 0 0 0 0 0 0 0 0 0 0 0 0 0 0 0 0 0

GFSSGP_con_sbcape_030.txt.gz
CAPE
0 0 0 0 0 0 0 0 0 44 591 455 845 976 983 924 857 358 315 311 554 651 584 534 617 791 865 791 599 475 360 175 170 134 174 140 121 121 98 126 74 39 0 0 0 0 0 0 0
0 0 0 0 0 0 0 0 0 398 378 250 332 720 998 1081 954 539 468 553 543 680 511 446 631 789 844 701 513 385 217 153 198 122 111 94 134 122 171 160 162 145 7 0 0 0 0 0 0
0 0 0 0 0 0 0 26 617 259 204 209 272 91 535 1113 625 610 320 474 572 555 428 572 650 727 774 625 474 412 365 288 225 190 159 91 124 91 144 208 208 173 14 0 0 0 0 0 36
0 0 0 0 0 0 0 0 479 325 122 193 98 53 264 792 1049 434 208 197 328 326 373 473 567 672 769 637 528 439 306 209 203 259 294 206 112 108 172 276 232 83 41 12 0 0 6 80 30
0 0 0 0 0 0 114 109 277 196 126 319 97 137 613 750 279 196 129 183 320 274 280 313 456 639 697 618 529 397 297 230 224 303 291 272 199 138 256 309 281 156 26 15 1 8 138 117 104
0 0 0 0 0 494 311 192 102 82 33 218 14 132 573 601 464 403 282 245 167 89 128 219 416 488 586 525 378 332 274 204 240 296 304 303 284 282 324 357 312 263 180 115 91 70 49 73 148
0 0 0 0 0 104 527 95 118 103 72 47 60 258 543 176 575 134 175 56 75 33 64 126 139 300 377 345 331 266 187 183 225 248 242 253 237 270 315 337 314 248 167 27 2 2 8 7 42
0 0 0 0 0 10 54 54 30 32 4 0 90 289 489 135 11 11 5 6 30 5 14 28 171 202 264 255 263 237 159 163 178 181 162 144 160 225 229 179 194 129 15 0 0 0 0 42 37
0 0 0 0 0 79 32 23 149 3 10 417 721 472 135 40 9 4 2 6 17 17 58 20 80 212 173 153 203 189 140 121 118 150 135 37 0 2 31 0 33 9 0 0 0 0 1 0 18
0 0 0 0 100 46 0 7 50 0 114 228 369 132 7 15 7 0 0 16 27 18 4 28 123 120 112 110 79 56 47 16 9 2 2 0 0 0 7 0 0 0 0 0 0 3 0 0 0
0 0 0 2 114 17 1 1 0 5 10 32 37 76 2 1 31 26 4 1 0 25 2 10 89 118 79 56 19 20 7 0 0 0 0 0 0 0 0 0 0 0 0 0 0 0 0 0 0
0 0 0 17 137 51 7 0 0 0 5 0 29 43 0 34 24 69 17 0 1 38 54 108 156 151 30 2 0 0 0 0 2 106 25 17 24 0 0 0 0 0 0 0 0 0 0 0 0
0 0 7 85 64 75 12 14 0 21 0 16 238 140 9 29 19 12 0 0 2 36 127 155 166 198 29 21 0 10 190 302 277 79 75 11 0 0 0 0 0 0 0 0 0 0 0 0 0
0 0 104 135 92 68 38 35 0 0 0 8 235 288 49 12 27 23 9 0 0 32 235 242 296 11 24 104 156 194 247 237 123 22 1 0 0 0 0 0 0 0 0 0 0 0 0 0 0
0 0 28 148 111 107 0 6 0 0 116 236 352 450 74 26 65 49 26 34 74 470 394 288 5 156 152 16 4 1 58 38 12 2 0 0 0 0 0 0 0 0 0 0 0 0 0 0 0
0 0 0 66 111 73 0 0 1 1 201 240 129 383 347 126 185 189 118 144 479 436 336 83 300 28 0 0 0 0 0 0 0 0 0 0 0 0 0 0 0 0 0 0 0 0 0 0 0
0 0 0 0 7 52 0 0 19 0 105 143 59 164 423 526 536 401 386 522 560 321 319 87 90 0 0 0 0 0 0 0 0 0 0 0 0 0 0 0 0 0 0 0 0 0 0 0 0
0 0 0 0 0 3 0 0 73 4 36 92 11 1 0 183 539 593 669 620 416 305 277 188 18 0 0 0 0 0 0 0 0 0 0 0 0 0 0 0 0 0 0 0 0 0 0 0 0
0 0 0 0 0 2 3 0 108 23 26 36 0 0 0 32 121 180 708 484 249 184 142 138 12 0 0 0 0 0 0 0 0 0 0 0 0 0 0 0 0 0 0 0 0 0 0 0 0
0 0 0 0 0 0 0 0 4 0 5 12 6 0 0 0 0 16 339 325 242 212 304 156 61 0 0 0 0 0 0 0 0 0 0 0 0 0 0 0 0 0 0 0 0 0 0 0 0
0 0 0 0 0 0 0 0 0 0 6 28 27 35 0 0 0 0 35 213 238 252 318 194 74 7 0 0 0 0 0 0 0 0 0 0 0 0 0 0 0 0 0 0 0 0 0 0 0
0 0 0 0 0 0 0 0 0 0 1 42 0 2 51 39 6 32 35 291 278 345 276 244 138 92 0 0 0 0 0 0 0 0 0 0 0 0 0 0 0 0 0 0 0 0 0 0 0
0 0 0 4 0 0 0 0 0 0 0 20 23 0 0 28 109 127 378 559 463 332 275 220 176 121 77 3 0 0 0 0 0 0 0 0 0 0 0 0 0 0 0 0 0 0 0 0 0
0 0 0 0 0 0 0 0 0 0 0 0 0 0 0 0 164 206 455 720 566 409 320 235 134 127 38 58 0 0 0 0 0 0 0 0 0 0 0 0 0 0 0 0 0 0 0 0 0
0 0 0 0 0 0 1 0 0 0 0 0 0 0 0 1 146 440 640 735 589 471 298 194 0 0 0 0 0 0 0 0 0 0 0 0 0 0 0 0 0 0 0 0 0 0 0 0 0
0 0 0 0 0 0 0 0 2 0 0 0 0 0 0 21 292 517 463 445 357 236 2 0 0 0 0 0 0 0 0 0 0 0 0 0 0 0 0 0 0 0 0 0 0 0 0 0 0
0 0 0 0 0 0 0 0 0 0 0 0 0 0 44 127 285 112 0 0 0 0 0 0 0 0 0 0 0 0 0 0 0 0 0 0 0 0 0 0 0 0 0 0 0 0 0 0 0
0 0 6 3 2 4 0 0 0 0 0 0 0 0 65 28 12 0 0 0 0 0 0 0 0 0 0 0 0 0 0 0 0 0 0 0 0 0 0 0 0 0 0 0 0 0 0 0 0
0 0 0 0 0 0 0 0 0 0 0 36 0 0 117 15 10 0 0 0 0 0 0 0 0 0 0 0 0 0 0 0 0 0 0 0 0 0 0 0 0 0 0 0 0 0 0 0 0
0 0 0 0 0 0 0 0 0 0 0 0 0 0 134 2 0 0 0 0 0 0 0 0 0 0 0 0 0 0 0 0 0 0 0 0 0 0 0 0 0 0 0 0 0 0 0 0 0

GFSSGP_con_sbcape_033.txt.gz
CAPE
0 0 0 0 0 0 0 0 0 0 371 678 838 919 930 899 731 363 421 360 814 778 738 603 644 740 685 551 518 441 265 74 39 67 104 127 105 159 93 74 69 87 14 0 0 0 0 0 57
0 0 0 0 0 0 0 0 0 0 569 668 561 952 998 1042 818 642 510 690 844 713 557 432 634 706 642 490 455 347 154 47 106 84 50 113 34 127 179 198 152 136 70 0 0 0 0 0 71
0 0 0 0 0 0 0 0 656 442 288 142 168 162 752 1036 748 605 717 776 903 712 446 586 634 603 612 494 392 302 269 197 191 184 123 92 80 59 113 247 208 169 33 3 0 0 0 3 16
0 0 0 0 0 0 0 0 0 510 148 108 36 115 893 896 666 595 804 802 675 580 505 575 551 553 601 557 499 378 254 213 267 276 293 240 142 95 161 278 273 196 24 16 8 0 23 1 0
0 0 0 0 0 0 228 146 214 292 249 201 87 600 890 633 446 521 525 495 370 373 451 427 539 557 625 573 469 350 279 321 356 371 337 352 286 213 330 299 287 249 60 25 21 147 158 40 0
0 0 0 0 0 35 396 207 186 248 178 102 78 527 689 740 430 416 485 201 158 182 195 343 350 294 422 416 360 298 304 406 412 386 387 390 362 339 339 341 331 278 220 163 107 96 138 93 20
0 0 0 0 0 0 518 200 240 145 130 109 50 535 547 730 467 384 90 4 3 1 40 136 79 216 274 259 252 248 298 367 384 370 341 316 306 297 303 307 284 245 176 113 55 17 52 93 29
0 0 0 0 0 0 235 197 116 64 12 1 300 705 463 355 121 82 4 6 1 2 4 15 32 171 147 118 214 240 287 328 347 326 277 215 222 263 226 218 203 112 66 41 19 12 62 128 13
0 0 0 0 0 92 113 226 56 114 465 480 566 337 299 252 72 43 13 2 3 2 0 0 108 117 148 151 151 142 215 244 237 209 146 49 2 0 5 22 50 5 0 0 3 29 5 0 21
0 0 0 0 0 97 113 27 96 246 353 284 122 241 204 112 37 44 1 8 0 0 0 0 8 138 131 130 118 37 38 19 11 2 1 0 0 0 0 14 3 0 0 0 0 0 0 0 0
0 0 0 0 104 32 41 0 11 208 194 165 40 8 37 52 34 11 5 8 9 3 3 0 2 125 97 93 41 23 2 0 0 0 0 0 0 0 0 0 0 0 0 0 0 0 0 0 0
0 0 0 0 129 76 36 0 0 0 2 153 14 29 7 31 15 5 14 3 17 19 18 8 74 161 66 17 12 4 0 0 0 0 0 0 0 0 0 0 0 0 0 0 0 0 0 0 0
0 0 0 0 76 52 30 0 1 7 14 49 63 44 33 73 54 3 22 3 4 35 42 66 162 220 86 12 1 0 0 0 106 87 14 0 0 0 0 0 0 0 0 0 0 0 0 0 0
0 0 158 98 103 90 21 39 124 2 266 212 52 24 30 13 18 0 0 0 11 32 104 122 168 193 18 1 0 28 136 156 50 8 0 0 0 0 0 0 0 0 0 0 0 0 0 0 0
0 8 169 169 95 110 2 0 165 9 429 331 99 72 56 18 0 0 0 0 0 21 79 178 167 7 5 3 3 75 139 46 5 0 0 0 0 0 0 0 0 0 0 0 0 0 0 0 0
0 0 2 170 133 63 0 17 1 25 201 362 365 286 152 36 7 8 0 0 0 60 272 265 167 38 3 0 0 0 0 0 0 0 0 0 0 0 0 0 0 0 0 0 0 0 0 0 0
0 0 0 156 38 7 0 0 0 23 244 295 487 384 122 44 1 16 11 9 33 254 328 94 122 7 0 0 0 0 0 0 0 0 0 0 0 0 0 0 0 0 0 0 0 0 0 0 0
0 0 0 0 0 6 29 0 19 16 153 317 137 395 254 53 36 136 96 95 160 379 255 133 8 0 0 0 0 0 0 0 0 0 0 0 0 0 0 0 0 0 0 0 0 0 0 0 0
0 0 0 0 0 0 0 0 19 3 22 68 39 86 491 343 245 344 271 210 395 248 134 107 0 0 0 0 0 0 0 0 0 0 0 0 0 0 0 0 0 0 0 0 0 0 0 0 0
0 0 0 0 0 0 0 0 0 0 53 85 24 0 8 540 491 542 471 454 460 261 136 68 2 0 0 0 0 0 0 0 0 0 0 0 0 0 0 0 0 0 0 0 0 0 0 0 0
0 0 0 0 0 0 0 0 0 0 2 0 0 0 0 57 393 471 595 574 339 203 164 148 43 0 0 0 0 0 0 0 0 0 0 0 0 0 0 0 0 0 0 0 0 0 0 0 0
0 0 0 0 0 0 0 0 0 0 0 1 21 0 0 0 98 157 469 542 313 146 205 247 99 6 0 0 0 0 0 0 0 0 0 0 0 0 0 0 0 0 0 0 0 0 0 0 0
0 0 0 0 0 0 0 0 0 0 0 0 0 0 0 0 0 0 214 422 331 111 138 122 33 10 1 0 0 0 0 0 0 0 0 0 0 0 0 0 0 0 0 0 0 0 0 0 0
0 0 0 0 0 0 0 0 0 0 0 0 0 0 0 0 0 0 1 183 186 127 78 16 31 49 14 0 0 0 0 0 0 0 0 0 0 0 0 0 0 0 0 0 0 0 0 0 0
0 0 0 0 0 0 0 0 0 0 0 0 0 0 0 0 0 31 292 312 241 195 154 77 83 65 2 0 0 0 0 0 0 0 0 0 0 0 0 0 0 0 0 0 0 0 0 0 0
0 0 0 0 0 0 0 0 0 0 0 0 0 0 0 0 1 179 473 521 249 202 170 153 103 2 0 0 0 0 0 0 0 0 0 0 0 0 0 0 0 0 0 0 0 0 0 0 0
0 0 0 0 0 0 0 0 0 0 0 0 0 0 0 0 15 269 528 567 416 325 150 35 0 0 0 0 0 0 0 0 0 0 0 0 0 0 0 0 0 0 0 0 0 0 0 0 0
0 0 0 0 0 0 0 0 0 0 0 0 0 0 0 0 84 133 199 85 42 0 0 0 0 0 0 0 0 0 0 0 0 0 0 0 0 0 0 0 0 0 0 0 0 0 0 0 0
0 0 0 0 0 0 0 0 0 0 0 0 0 0 0 22 19 28 39 0 0 0 0 0 0 0 0 0 0 0 0 0 0 0 0 0 0 0 0 0 0 0 0 0 0 0 0 0 0
0 0 0 0 0 0 0 0 0 0 0 0 0 0 0 1 4 6 0 0 0 0 0 0 0 0 0 0 0 0 0 0 0 0 0 0 0 0 0 0 0 0 0 0 0 0 0 0 0

GFSSGP_con_sbcape_036.txt.gz
CAPE
0 0 0 0 0 0 0 0 0 0 21 819 968 944 800 672 502 273 464 414 836 874 729 709 686 555 490 477 431 334 274 176 77 56 122 173 151 96 99 101 100 102 68 1 9 113 327 406 255
0 0 0 0 0 0 0 0 0 79 250 226 240 515 940 669 749 612 549 858 818 797 602 626 715 548 562 492 400 293 208 185 153 129 127 201 139 178 211 188 131 135 119 0 0 24 101 307 641
0 0 0 0 0 0 0 0 42 323 222 191 232 230 729 1008 730 749 681 893 793 685 487 640 668 532 600 485 348 250 227 211 202 187 159 167 148 147 203 222 194 198 136 0 0 0 3 76 247
0 0 0 0 0 0 0 0 116 254 198 176 139 562 889 588 888 820 956 1028 817 622 458 574 514 503 526 517 393 322 295 278 271 265 280 264 257 143 311 277 264 267 186 3 0 0 24 109 58
0 0 0 0 0 0 1 269 301 392 370 323 358 444 780 748 979 909 782 592 631 610 439 545 440 545 650 642 480 330 379 387 404 360 331 358 372 313 406 362 343 314 265 191 63 73 26 67 9
0 0 0 0 0 0 336 348 345 420 380 275 545 542 691 782 716 350 69 28 232 305 289 348 516 499 537 458 371 374 439 479 436 446 425 515 459 409 392 354 328 289 225 243 252 146 10 33 8
0 0 0 0 0 0 396 212 356 341 226 276 308 762 675 944 232 2 3 1 2 78 61 31 17 9 292 322 328 364 401 455 472 472 456 439 353 343 328 296 312 292 217 170 236 229 68 32 51
0 0 0 0 0 0 135 306 183 133 214 280 682 735 670 717 31 1 2 2 4 2 6 6 8 22 138 256 280 311 374 392 402 392 293 218 225 237 233 220 282 207 141 142 175 179 95 11 6
0 0 0 0 0 0 139 288 233 558 654 582 528 611 581 462 20 1 2 2 1 3 12 18 49 52 137 150 231 291 361 316 281 225 174 48 28 11 0 36 55 33 24 66 149 0 0 0 0
0 0 0 0 0 60 140 92 277 561 577 360 549 662 532 339 88 5 2 3 1 2 14 36 63 144 144 154 69 18 89 39 27 22 4 0 0 0 0 0 0 1 13 51 0 0 0 0 0
0 0 0 0 0 59 78 51 123 543 472 255 359 469 379 273 100 9 0 0 0 0 0 0 20 127 108 86 6 0 0 0 0 0 0 0 0 0 0 0 0 0 0 0 0 0 0 0 0
0 0 0 0 106 49 65 2 0 0 3 284 244 227 275 66 59 23 0 0 2 4 0 0 22 70 60 55 26 4 0 0 0 0 0 0 0 0 0 0 0 0 0 0 0 0 0 0 0
0 0 0 0 85 70 25 2 25 93 234 112 26 5 15 89 46 28 43 4 14 18 0 0 0 156 73 33 0 0 0 0 0 0 0 0 0 0 0 0 0 0 0 0 0 0 0 0 0
0 0 80 103 140 104 216 150 61 93 136 68 97 47 75 99 90 30 43 6 16 1 10 0 22 168 40 0 0 0 0 0 8 0 0 0 0 0 0 0 0 0 0 0 0 0 0 0 0
0 96 110 169 145 128 8 0 95 277 275 142 107 61 33 93 31 8 0 0 15 17 18 22 93 139 30 0 0 0 0 10 0 0 0 0 0 0 0 0 0 0 0 0 0 0 0 0 0
0 0 0 143 114 23 0 0 55 432 236 159 108 75 81 21 0 0 0 0 0 9 62 119 179 27 0 0 0 0 0 0 0 0 0 0 0 0 0 0 0 0 0 0 0 0 0 0 0
0 0 0 167 62 22 0 0 33 289 379 226 245 207 216 75 0 1 0 0 0 26 143 174 87 0 0 0 0 0 0 0 0 0 0 0 0 0 0 0 0 0 0 0 0 0 0 0 0
0 0 0 0 0 8 19 0 15 116 229 355 325 314 304 119 46 4 0 0 0 31 195 99 26 0 0 0 0 0 0 0 0 0 0 0 0 0 0 0 0 0 0 0 0 0 0 0 0
0 0 0 0 0 0 1 0 0 31 165 276 266 304 308 102 63 6 33 0 14 120 159 60 6 0 0 0 0 0 0 0 0 0 0 0 0 0 0 0 0 0 0 0 0 0 0 0 0
0 0 0 0 0 0 0 0 16 2 108 167 230 116 207 304 112 48 139 57 116 204 159 58 9 0 0 0 0 0 0 0 0 0 0 0 0 0 0 0 0 0 0 0 0 0 0 0 0
0 0 0 0 0 0 0 0 0 0 31 46 110 104 112 245 312 215 263 167 178 276 166 102 2 0 0 0 0 0 0 0 0 0 0 0 0 0 0 0 0 0 0 0 0 0 0 0 0
0 0 0 0 0 0 0 0 0 0 16 0 26 11 16 28 178 301 372 331 248 280 164 91 4 0 0 0 0 0 0 0 0 0 0 0 0 0 0 0 0 0 0 0 0 0 0 0 0
0 0 0 0 0 0 0 0 0 0 0 5 0 0 0 0 0 174 286 399 346 180 44 27 6 0 0 0 0 0 0 0 0 0 0 0 0 0 0 0 0 0 0 0 0 0 0 0 0
0 0 0 0 0 0 0 0 0 0 0 0 0 0 0 0 0 0 58 194 322 49 26 22 16 23 0 0 0 0 0 0 0 0 0 0 0 0 0 0 0 0 0 0 0 0 0 0 0
0 0 0 0 0 0 0 0 0 0 0 0 0 0 0 0 0 0 0 18 56 38 17 18 27 34 1 0 0 0 0 0 0 0 0 0 0 0 0 0 0 0 0 0 0 0 0 0 0
0 0 0 0 0 0 0 0 0 0 0 0 0 0 0 0 0 0 0 0 35 30 34 50 48 37 1 0 0 0 0 0 0 0 0 0 0 0 0 0 0 0 0 0 0 0 0 0 0
0 0 0 0 0 0 0 0 0 0 0 0 0 0 0 0 0 0 0 4 47 50 59 28 83 73 17 2 0 0 0 0 0 0 0 0 0 0 0 0 0 0 0 0 0 0 0 0 0
0 0 0 0 0 0 0 0 0 0 0 0 0 0 0 0 0 0 70 185 152 73 48 18 69 0 0 0 0 0 0 0 0 0 0 0 0 0 0 0 0 0 0 0 0 0 0 0 0
0 0 0 0 0 0 0 0 0 0 0 0 0 0 0 0 0 8 122 222 208 151 20 0 0 0 0 0 0 0 0 0 0 0 0 0 0 0 0 0 0 0 0 0 0 0 0 0 0
0 0 0 0 0 0 0 0 0 0 0 0 0 0 0 0 0 0 0 0 0 0 0 0 0 0 0 0 0 0 0 0 0 0 0 0 0 0 0 0 0 0 0 0 0 0 0 0 0

GFSSGP_con_sbcape_039.txt.gz
CAPE
0 0 0 0 0 0 0 0 0 0 21 928 1260 1130 1000 686 756 600 731 597 1007 843 548 687 631 705 685 581 533 456 445 296 173 182 220 184 123 101 139 181 163 213 203 283 408 316 222 134 385
0 0 0 0 0 0 0 0 0 548 384 484 373 678 1022 903 786 729 695 1114 1084 855 566 458 567 578 611 552 510 424 267 186 194 263 243 184 219 268 213 190 196 213 341 349 526 617 392 291 643
0 0 0 0 0 0 0 0 59 548 475 535 517 868 1135 1077 789 857 1035 1210 997 870 686 572 530 528 568 460 374 280 246 201 234 252 237 314 366 338 291 220 182 235 265 181 277 477 507 527 425
0 0 0 0 0 0 0 0 288 430 538 490 597 1170 1202 945 1166 1080 1196 1274 1019 944 723 599 489 515 505 441 381 280 206 193 205 209 301 432 414 401 353 255 231 285 217 63 52 103 214 236 174
0 0 0 0 0 0 0 254 574 696 688 793 680 1108 1039 974 1240 1087 1047 1186 834 875 719 588 466 508 535 558 431 344 277 256 275 305 370 406 452 439 420 352 299 291 243 117 90 110 155 120 112
0 0 0 0 0 0 56 513 704 771 678 797 890 920 874 1004 415 424 345 647 768 503 533 445 349 467 471 367 382 359 392 344 337 373 435 522 464 380 379 360 322 326 303 185 114 159 100 108 75
0 0 0 0 0 0 240 438 609 653 496 464 753 946 1067 484 206 47 35 35 295 218 113 21 31 90 242 266 291 306 375 419 436 480 466 435 305 303 283 281 251 289 313 281 122 114 185 137 50
0 0 0 0 0 0 169 478 329 401 532 753 929 878 924 350 117 31 7 4 2 7 6 0 0 5 103 292 271 309 337 374 394 391 298 210 232 258 290 222 203 215 255 342 177 54 79 56 0
0 0 0 0 0 0 281 538 422 847 904 813 802 972 815 117 21 1 2 7 4 5 8 0 0 71 135 248 356 340 368 372 300 231 186 82 59 79 35 82 78 92 164 97 114 10 0 0 0
0 0 0 0 0 3 246 338 571 797 832 666 729 949 400 100 14 2 4 5 6 9 5 1 30 130 142 154 224 223 249 177 103 38 85 59 105 41 15 9 25 54 38 2 0 0 0 0 0
0 0 0 0 0 3 95 160 269 693 662 567 487 586 536 352 3 3 5 4 3 11 19 12 11 132 202 124 101 112 86 56 64 67 45 69 73 66 15 15 16 18 0 0 0 0 0 0 0
0 0 0 0 31 77 135 45 596 152 225 467 349 433 416 117 2 4 4 7 18 14 13 18 0 0 45 96 43 22 18 20 36 16 58 105 89 32 16 21 0 0 0 0 0 0 0 0 0
0 0 0 0 96 74 55 67 248 381 433 518 483 373 326 289 2 3 5 2 10 11 16 0 0 7 168 164 20 9 16 14 32 9 67 63 88 15 25 0 0 0 0 0 0 0 0 0 0
0 2 98 102 174 157 346 363 132 385 412 330 116 53 164 137 59 5 14 12 10 0 2 34 30 104 304 95 28 2 2 0 0 11 98 78 104 16 0 0 0 0 0 0 0 0 0 0 0
0 66 83 209 178 324 47 22 222 468 407 335 176 130 187 113 91 113 10 0 31 26 0 0 20 219 310 72 18 0 2 9 54 138 97 2 10 0 0 0 0 0 0 0 0 0 0 0 0
0 0 0 128 162 63 0 32 180 510 383 322 271 109 87 120 108 170 132 73 86 45 10 0 21 178 292 33 1 9 40 173 237 182 16 0 0 0 0 0 0 0 0 0 0 0 0 0 0
0 0 4 214 169 104 3 14 134 570 337 201 183 135 147 40 48 40 60 78 95 126 91 46 108 246 333 87 21 35 91 239 188 61 8 0 0 0 0 0 0 0 0 0 0 0 0 0 0
0 2 0 0 0 61 76 3 202 496 418 243 233 233 254 257 67 81 70 47 70 119 153 161 259 349 252 83 8 57 160 226 116 149 64 0 0 0 0 0 0 0 0 0 0 0 0 0 0
0 1 0 0 0 9 128 46 203 408 429 469 448 419 449 426 342 107 121 122 104 139 233 281 332 313 164 64 44 77 233 156 48 5 0 0 0 0 0 0 0 0 0 0 0 0 0 0 0
0 0 0 0 0 0 0 0 18 231 454 540 597 535 588 594 361 242 169 153 167 139 254 440 393 272 211 179 75 83 103 10 0 0 0 0 0 0 0 0 0 0 0 0 0 0 0 0 0
0 0 0 0 0 0 0 0 0 40 133 231 320 441 374 422 522 238 200 209 206 202 248 396 416 239 194 166 52 0 0 0 0 0 0 0 0 0 0 0 0 0 0 0 0 0 0 0 0
0 0 0 0 0 0 0 0 0 7 142 118 313 281 359 326 396 524 294 275 265 233 278 345 373 262 146 56 83 28 113 8 0 0 0 0 0 0 0 0 0 0 0 0 0 0 0 0 0
0 0 0 0 0 0 0 0 0 0 3 221 274 179 218 286 263 521 596 512 445 418 497 462 413 355 166 62 109 87 33 0 0 0 0 0 0 0 0 0 0 0 0 0 0 0 0 0 0
0 0 0 0 0 0 0 0 0 0 0 26 120 267 153 204 122 200 531 687 664 626 601 566 493 351 142 3 14 7 1 0 0 0 0 0 0 0 0 0 0 0 0 0 0 0 0 0 0
0 0 0 0 0 0 0 0 9 0 0 0 0 12 166 241 214 111 163 448 743 686 627 585 507 197 30 1 0 0 0 0 0 0 0 0 0 0 0 0 0 0 0 0 0 0 0 0 0
0 0 0 0 0 0 0 0 0 0 0 0 0 0 0 9 140 108 79 242 598 710 662 592 528 387 30 3 3 1 0 0 0 0 0 0 0 0 0 0 0 0 0 0 0 0 0 0 0
0 0 0 0 0 0 0 0 0 0 0 0 0 0 0 0 0 25 8 33 237 525 543 617 580 567 84 14 11 2 1 0 0 0 0 0 0 0 0 0 0 0 0 0 0 0 0 0 0
0 0 0 0 0 0 0 0 0 0 0 0 0 0 0 0 0 0 3 39 87 321 476 468 517 557 423 163 23 3 4 0 0 0 0 0 0 0 0 0 0 0 0 0 0 0 0 0 0
0 0 0 0 0 0 0 0 0 0 0 0 0 0 0 0 1 2 39 248 270 294 362 408 499 568 371 29 2 1 1 1 0 0 0 0 0 0 0 0 0 0 0 0 0 0 0 0 0
0 0 0 6 0 0 0 0 0 0 0 0 0 0 0 0 0 32 183 381 488 485 411 353 316 150 1 0 0 0 0 0 0 0 0 0 0 0 0 0 0 0 0 0 0 0 0 0 0

GFSSGP_con_sbcape_042.txt.gz
CAPE
0 0 0 0 0 0 0 0 0 0 115 972 1307 1380 1323 1286 1274 1013 1294 1166 1344 801 417 805 847 994 1004 923 751 615 512 378 193 179 188 181 184 260 255 266 306 441 311 232 204 334 295 63 100
0 0 0 0 0 0 0 0 0 312 386 1346 1267 1536 1487 1437 1174 1021 1117 1083 1390 922 431 412 829 869 849 721 633 487 289 221 275 256 218 250 372 356 360 341 455 789 878 447 294 400 355 159 262
0 0 0 0 0 0 9 0 43 309 750 898 1237 1678 1444 1608 1254 1183 1271 1414 1475 1009 548 656 804 758 746 647 535 326 256 284 286 261 366 470 418 446 422 378 454 825 1143 875 475 594 427 296 289
0 0 0 0 0 0 0 0 30 292 778 1002 1130 1399 1591 1374 1710 1413 1628 1669 1561 1065 690 536 578 655 701 591 448 311 281 272 236 330 512 528 514 482 451 442 356 497 741 641 613 382 213 202 145
0 0 0 0 0 0 0 0 254 565 1023 1144 1240 1605 1672 1482 1829 1873 1810 1599 1344 1130 1027 633 492 578 600 563 435 341 342 232 285 412 465 550 564 543 505 412 313 310 430 398 328 139 182 166 124
0 0 0 0 0 0 0 79 445 1141 1196 1272 1429 1578 1497 1076 1428 1302 1859 1564 993 863 876 496 519 553 485 435 353 301 322 327 391 436 476 582 599 564 527 456 362 276 302 372 287 194 191 142 29
0 0 0 0 0 19 284 895 1075 1222 1145 1038 1378 1392 1424 1080 522 511 739 1287 809 465 371 287 286 176 161 275 291 279 344 398 458 471 450 406 348 306 338 360 364 325 220 266 271 252 162 52 0
0 0 0 0 54 30 157 843 949 984 1093 1178 1382 1235 1361 774 469 257 103 219 19 50 6 4 0 0 0 318 296 340 340 355 396 385 271 261 250 243 262 275 361 401 288 235 287 256 88 0 0
0 1 10 7 14 3 320 199 931 1133 1234 1241 1305 1494 1372 496 800 126 2 3 3 3 3 7 6 32 22 192 392 390 439 352 283 256 187 64 39 20 26 98 241 316 325 213 147 84 0 0 0
0 3 5 2 0 0 17 211 842 1169 1122 1227 1172 906 662 629 715 118 4 5 4 4 9 11 4 12 95 288 310 352 262 180 156 122 55 35 77 37 13 20 168 116 84 20 0 0 0 0 0
1 17 9 2 0 0 22 594 777 873 875 1009 997 642 535 450 424 94 21 8 4 9 15 0 0 0 68 142 352 329 279 281 136 143 75 152 105 71 60 21 43 18 3 0 0 0 0 0 0
1 11 2 0 2 37 316 499 717 777 1100 966 1046 742 443 119 123 25 11 9 8 10 26 1 0 2 37 96 173 189 121 99 84 90 112 151 120 92 94 138 210 88 21 0 0 0 0 0 0
3 10 15 33 61 483 451 551 511 958 984 920 857 589 263 69 11 9 9 10 10 10 14 49 48 21 0 25 122 153 185 100 44 94 108 89 49 93 153 136 93 34 0 0 0 0 0 0 0
17 21 394 187 299 422 541 706 656 1094 991 824 679 424 182 3 5 10 19 16 8 11 1 10 3 31 102 116 141 175 173 72 110 76 179 238 102 172 314 177 50 0 0 0 0 0 0 0 0
13 72 345 373 554 669 497 431 979 1063 669 537 360 614 230 26 21 2 52 50 19 1 3 6 44 109 153 274 157 39 56 18 8 68 485 497 443 361 223 96 7 0 0 0 0 0 0 0 0
34 29 43 139 527 483 472 307 941 885 590 543 515 182 463 182 88 112 59 30 12 17 47 92 33 157 337 355 166 0 24 18 29 354 537 577 484 334 164 32 0 0 0 0 0 0 0 0 0
47 63 36 99 490 426 383 186 612 796 475 336 234 153 208 282 222 266 109 59 48 77 88 124 106 145 555 619 189 87 48 107 178 565 567 477 225 90 59 15 0 0 0 0 0 0 0 0 0
51 64 83 97 241 432 403 241 539 741 555 195 268 175 163 312 350 471 458 232 210 192 126 60 132 469 583 616 325 57 9 92 516 831 697 468 202 31 37 0 0 0 0 0 0 0 0 0 0
18 32 60 41 15 45 90 151 181 698 700 483 246 353 354 259 219 419 684 680 470 400 291 280 400 509 602 743 466 117 57 203 677 745 834 411 325 79 21 0 0 0 0 0 0 0 0 0 0
26 45 46 21 1 5 41 29 99 574 802 657 499 477 456 384 406 243 505 515 534 533 553 492 398 498 754 814 694 174 310 196 416 629 731 573 394 14 0 0 0 0 0 0 0 0 0 0 0
45 55 37 17 5 0 1 20 54 277 773 810 808 601 594 572 565 485 278 436 565 466 487 521 573 806 810 768 672 283 473 634 704 588 342 327 102 0 0 0 0 0 0 0 0 0 0 0 0
34 15 8 20 27 64 0 45 36 120 376 660 661 860 528 579 702 649 523 401 409 528 521 498 656 937 909 912 768 476 342 358 507 480 139 53 2 0 0 0 0 0 0 0 0 0 0 0 0
15 4 13 11 55 35 26 51 75 20 46 221 536 706 743 456 607 748 806 646 536 517 585 611 667 1100 986 945 916 853 718 625 685 370 21 0 0 0 0 0 0 0 0 0 0 0 0 0 0
0 9 14 48 89 79 45 59 107 57 22 29 108 339 627 783 727 692 760 984 963 835 800 781 781 893 1096 1095 1025 1110 1200 1111 481 128 0 0 0 0 0 0 0 0 0 0 0 0 0 0 0
0 20 132 74 118 120 31 65 90 29 26 54 47 48 282 599 851 930 907 1056 1261 1309 1264 1202 996 763 901 868 423 700 834 977 257 131 6 0 0 0 0 0 0 0 0 0 0 0 0 0 0
3 38 113 13 50 79 0 32 79 18 13 26 95 110 59 80 552 830 1006 1063 1202 1438 1635 1520 1234 994 925 626 56 319 359 295 116 286 14 0 0 0 0 0 0 0 0 0 0 0 0 0 0
7 11 7 52 13 30 3 0 1 0 0 3 51 111 169 70 85 300 664 1030 1067 1297 1633 1780 1562 1224 1200 758 184 264 289 130 80 64 6 0 0 0 0 0 0 0 0 0 0 0 0 0 0
11 6 34 60 24 5 40 8 8 0 0 0 0 10 169 196 89 146 230 377 618 930 1372 1618 1701 1537 1474 1003 513 223 365 184 63 35 3 0 0 0 0 0 0 0 0 0 0 0 0 0 2
18 32 7 32 44 69 46 26 0 0 0 6 0 0 72 218 322 339 334 455 540 632 968 1215 1317 1318 1404 1312 1032 313 290 257 87 24 5 0 0 0 0 0 0 0 0 0 0 0 0 10 0
1 15 52 56 22 17 70 41 0 0 0 0 0 0 9 145 269 485 683 809 891 911 937 1009 1056 1120 1234 1338 1271 833 291 47 8 4 2 2 0 0 0 0 0 0 0 0 0 0 0 2 5

GFSSGP_con_sbcape_045.txt.gz
CAPE
0 0 0 0 0 0 0 20 64 67 64 291 555 598 238 529 665 130 568 1763 1530 970 885 1298 1266 1396 1374 1298 1139 944 810 615 476 392 343 273 272 345 405 433 464 541 622 464 115 0 8 43 25
0 0 0 0 0 8 51 0 18 30 291 87 1047 922 672 1184 1592 1323 1451 1979 1079 876 904 1492 1227 1244 1243 1105 972 810 592 415 446 387 314 356 466 521 592 721 736 715 756 523 200 62 58 44 63
0 0 0 7 8 24 38 36 37 242 225 172 480 1168 1274 1583 1551 1584 1466 1993 813 531 666 1477 1104 1093 1072 911 781 528 438 389 368 357 507 622 604 614 742 994 1049 1011 995 647 276 98 96 87 219
0 0 0 0 0 49 0 25 0 20 174 382 465 1121 1920 1808 1951 1523 1766 1860 1412 479 496 941 893 940 912 765 560 442 394 308 328 482 646 675 639 614 674 936 1205 1261 1102 790 242 116 39 193 198
0 0 0 45 14 8 0 0 0 60 272 726 855 912 1585 1975 1937 2043 1962 2057 1530 661 840 1072 721 776 748 706 537 465 385 389 534 579 577 602 595 655 528 571 835 1126 1109 566 195 58 114 187 131
0 0 3 40 34 0 0 0 52 149 743 1175 1122 609 1836 1735 1823 1675 2145 1932 1625 1222 843 512 771 658 566 442 435 407 391 519 588 588 623 656 656 557 445 426 550 689 664 386 269 238 161 74 2
0 10 37 14 16 49 212 554 977 880 845 1030 1542 1240 1968 1659 789 931 1776 1538 983 560 356 295 267 547 282 215 235 239 425 546 581 612 664 584 443 400 370 305 356 437 321 281 251 211 143 0 2
0 0 16 13 61 50 159 276 857 976 1014 1206 1380 1391 1458 1515 409 250 239 241 220 122 27 2 2 189 343 218 224 294 385 451 490 409 312 281 286 338 355 292 278 312 321 333 237 159 47 0 0
0 4 13 31 53 9 51 185 685 1001 928 1244 1488 1836 1732 967 338 76 2 1 9 17 3 0 0 0 21 208 371 441 480 379 351 337 257 137 87 62 51 219 353 301 304 302 162 22 0 0 0
0 82 40 31 42 49 54 349 780 973 834 1060 1611 1373 1134 1092 762 478 5 5 4 6 7 3 0 0 0 1 156 282 366 292 246 193 190 130 164 136 90 169 254 215 147 144 59 0 0 0 0
11 5 26 48 3 2 29 143 697 868 762 72 1108 1025 942 1001 464 404 35 5 8 10 4 5 0 0 26 48 134 302 335 320 239 242 246 309 283 220 95 85 18 2 0 0 0 0 0 0 0
1 41 25 31 1 21 385 24 395 610 1172 1251 1398 734 478 382 198 49 4 7 5 3 3 1 12 22 17 13 85 244 255 265 243 287 455 388 259 421 280 116 145 67 31 2 0 0 0 0 0
8 23 32 44 38 440 561 663 556 1098 1059 1216 833 466 330 221 52 8 7 7 7 3 2 0 0 10 10 23 109 155 205 152 171 271 297 383 354 481 290 278 298 204 127 57 2 0 0 0 0
13 5 124 74 239 363 405 657 697 1124 887 769 686 401 150 47 18 14 9 8 10 5 6 3 29 23 17 24 76 207 279 160 402 326 407 506 272 398 230 301 262 173 101 35 1 0 0 0 0
0 5 130 30 133 173 427 10 557 948 499 281 542 639 329 129 52 54 9 11 11 17 32 25 3 4 0 17 25 81 335 276 329 311 591 344 452 605 453 398 249 147 73 30 5 1 0 0 0
0 20 9 47 218 342 79 0 670 676 421 361 157 656 371 178 123 165 62 2 7 0 0 0 0 0 119 153 137 140 279 255 133 135 335 614 338 415 512 401 301 145 61 32 3 1 0 0 0
16 38 17 22 75 310 165 13 673 497 382 415 146 371 461 181 163 89 65 23 7 4 0 3 44 71 148 176 251 163 200 105 30 179 249 620 707 694 546 439 305 151 51 25 10 0 0 0 0
28 36 31 67 1 100 101 123 591 626 237 376 131 221 309 94 234 177 74 0 3 21 4 0 86 145 390 547 236 100 8 115 54 107 352 608 685 542 517 411 266 121 41 18 1 0 0 0 0
15 39 56 42 17 0 31 81 7 646 581 161 297 139 237 222 147 306 128 55 60 85 207 155 145 146 426 485 214 50 2 4 59 256 401 620 692 502 459 394 268 138 52 4 0 0 0 0 0
11 29 46 35 4 0 10 18 44 423 528 369 195 302 140 173 416 411 479 312 365 252 217 167 120 167 539 592 505 119 28 0 62 254 658 740 762 617 440 478 221 104 10 3 0 0 0 0 0
21 56 36 27 37 3 7 21 26 143 497 479 280 214 292 219 213 364 515 557 429 334 286 263 307 476 529 506 561 387 61 72 51 292 503 791 760 705 478 405 144 32 10 2 0 0 0 0 0
56 23 1 9 22 55 25 17 8 97 294 579 470 329 287 330 326 218 285 672 702 591 582 605 574 574 552 612 791 466 121 244 478 682 626 640 837 622 360 148 46 5 1 2 0 0 0 0 0
28 0 0 28 76 105 77 17 67 26 97 249 499 443 350 323 371 416 268 178 569 801 672 746 662 635 753 880 746 1042 485 398 545 718 771 825 587 399 156 26 5 2 1 1 0 0 0 0 0
13 1 9 66 110 177 55 79 24 44 3 36 205 398 435 326 370 460 526 392 277 387 943 1318 719 659 774 978 940 1061 1044 892 1059 1063 734 498 371 190 59 2 1 1 0 0 0 0 0 0 0
0 48 128 144 166 163 50 44 52 21 7 7 37 119 372 495 405 438 482 668 652 584 731 1115 756 597 920 1331 1126 1254 1337 1316 617 700 636 346 249 37 7 3 0 0 0 0 0 0 0 0 0
7 56 172 58 190 191 111 36 68 36 18 0 21 103 91 313 558 594 479 604 854 1025 1037 1083 943 994 857 1191 1006 1134 1346 1196 759 323 113 38 14 0 2 2 0 0 0 0 0 0 0 0 0
37 44 109 85 136 100 139 102 31 1 0 1 24 121 256 257 270 565 665 718 881 1209 1749 2070 1623 1253 1101 1382 665 825 1123 902 966 474 306 35 0 0 0 0 0 0 0 0 0 0 0 0 0
13 41 57 95 119 163 134 149 113 14 0 0 0 24 124 289 232 265 486 770 999 1221 1829 2646 2052 1777 1430 1161 1157 976 874 629 521 386 248 1 0 0 0 0 0 0 0 0 0 0 0 0 0
4 49 37 104 107 162 217 178 56 20 1 0 8 0 3 54 414 372 391 440 690 1049 1358 1798 2162 2155 1781 1651 1412 1158 688 612 456 312 215 7 0 0 0 0 0 0 0 0 0 0 0 0 0
17 35 69 106 99 142 176 180 110 40 17 4 20 0 3 48 167 460 662 783 877 923 1088 1544 1833 1925 1864 1677 1447 1333 786 733 365 206 12 0 0 3 0 0 0 0 0 0 0 0 0 0 1

GFSSGP_con_sbcape_048.txt.gz
CAPE
0 0 0 0 0 0 0 0 0 0 5 114 349 148 21 9 195 590 40 15 0 2 1656 1762 1602 1668 1550 1412 1277 1152 1014 829 712 553 388 325 529 679 699 679 838 862 252 0 0 0 0 0 0
0 0 0 0 0 0 0 1 0 78 257 109 7 45 36 17 320 1238 701 48 22 652 1569 1865 1606 1612 1501 1360 1217 1082 868 722 656 483 388 516 644 684 704 700 754 783 424 0 0 0 0 0 32
0 0 0 0 0 0 4 0 3 65 153 142 105 23 295 197 1 1523 1552 941 1082 1183 1593 1397 1415 1277 1300 1229 1082 914 809 656 502 410 611 723 792 911 980 815 785 857 583 82 16 0 0 8 86
0 0 0 0 0 0 1 2 0 0 0 55 137 89 1462 1463 922 1518 1659 894 894 994 1375 982 861 893 1017 1186 971 815 666 516 439 584 731 812 951 1191 1205 1002 933 1003 675 116 18 0 0 99 21
0 0 0 3 2 10 3 2 0 0 1 79 27 220 1082 975 1442 1464 1763 967 857 1065 1198 889 657 507 763 1013 854 698 607 553 662 688 680 734 920 1168 1250 1098 1033 1022 602 211 45 42 79 60 0
0 0 1 2 18 11 206 12 175 7 0 224 82 2 0 272 882 1042 1901 1298 964 1134 1105 706 799 665 692 737 737 557 605 688 673 645 662 765 624 676 906 1099 1025 755 392 303 253 204 125 51 0
0 0 0 14 76 76 89 25 0 312 539 275 1 5 0 168 305 721 1355 856 684 646 742 608 317 330 264 397 371 461 630 667 681 640 618 513 345 366 600 777 710 442 320 275 227 183 99 35 0
0 0 0 0 7 4 0 18 30 322 287 183 2 698 487 710 236 269 310 467 335 199 69 2 5 7 53 196 404 458 499 536 557 406 274 231 262 299 344 398 359 337 297 255 214 167 73 0 0
0 0 1 15 9 1 0 15 112 10 372 167 0 295 728 337 231 106 74 150 122 14 3 2 1 7 3 95 443 522 542 416 327 274 221 101 35 20 102 260 346 358 295 207 135 29 0 0 0
0 0 0 0 0 0 0 0 283 0 240 17 0 26 574 579 496 16 3 8 2 1 3 4 0 0 0 3 199 340 373 282 262 169 134 44 45 114 114 197 231 258 228 137 14 0 0 0 0
0 0 0 0 0 0 0 0 0 277 411 0 7 384 614 480 515 171 3 3 5 3 1 0 1 2 5 9 21 108 185 235 277 243 240 251 135 136 153 106 5 7 11 0 0 0 0 0 0
0 0 0 0 0 0 1 66 250 787 1197 298 467 684 455 337 293 5 7 4 3 4 2 0 0 0 0 0 30 96 194 240 214 227 328 333 218 210 154 75 74 0 0 0 0 0 0 0 0
0 1 0 18 2 0 32 60 25 726 927 860 460 340 288 75 2 5 6 3 2 2 3 15 2 2 1 10 35 71 217 205 160 133 339 316 285 282 178 169 115 40 21 0 23 0 0 0 0
0 0 0 43 3 44 2 0 0 577 452 596 506 356 75 4 3 6 6 2 2 1 1 14 6 25 20 0 0 17 112 180 97 94 363 310 355 289 356 460 416 325 150 106 6 0 0 0 0
0 0 0 28 24 61 5 0 0 0 198 495 445 192 86 2 4 3 7 1 3 2 2 9 7 5 4 0 23 49 143 252 328 300 330 381 475 364 552 369 434 178 156 112 41 0 0 0 0
0 0 0 6 58 5 0 0 0 0 106 59 523 363 81 3 35 7 2 0 3 1 12 2 4 0 0 0 27 60 93 243 268 225 347 396 478 393 408 520 366 262 108 51 5 0 0 0 0
0 0 1 20 15 39 116 0 0 7 305 76 393 148 126 82 89 17 4 1 2 0 1 0 0 0 0 5 0 0 18 146 159 147 240 425 436 518 559 500 418 205 80 38 11 0 3 0 0
0 1 3 7 12 0 52 95 76 170 251 98 111 107 84 7 48 35 4 0 2 0 0 0 0 0 0 62 0 0 28 88 71 60 110 397 531 572 522 417 258 76 100 39 8 1 0 0 0
0 0 6 24 0 45 0 46 33 0 115 111 73 139 53 79 72 60 1 0 0 0 0 0 0 0 15 35 9 33 5 37 60 43 75 465 462 551 507 368 271 96 104 25 19 0 0 0 0
0 0 6 14 37 0 0 0 79 35 267 102 76 126 37 84 160 77 4 0 0 0 0 0 0 0 22 30 48 80 1 0 15 60 197 614 456 459 386 374 227 93 119 46 0 0 0 0 0
0 0 22 21 0 1 0 0 57 252 147 94 141 88 87 83 136 129 64 7 3 7 0 0 0 0 5 162 282 245 31 2 0 34 537 695 675 547 452 354 391 148 116 8 0 0 0 0 0
0 0 3 1 1 1 0 1 6 0 74 158 131 171 148 97 275 234 259 176 116 104 85 145 85 49 9 363 344 397 103 31 0 6 380 566 611 540 529 496 407 168 24 0 0 0 0 0 0
0 1 10 1 0 17 4 24 10 0 44 191 285 232 276 230 170 448 383 434 269 320 319 256 175 186 285 346 470 315 292 34 135 32 372 450 548 600 485 336 156 69 6 0 0 0 0 0 0
1 2 2 0 0 35 32 46 1 3 4 48 302 393 278 281 234 243 294 453 477 481 574 428 403 348 476 408 290 575 474 399 429 633 490 559 443 499 370 231 63 2 0 0 0 0 0 0 0
0 1 24 31 56 138 62 33 100 3 12 44 277 333 396 307 253 353 271 176 430 630 613 696 736 573 596 789 558 618 685 778 662 726 398 253 118 131 106 123 5 0 0 0 0 0 0 0 0
0 0 73 62 53 114 100 89 68 2 13 2 1 42 316 424 349 351 407 289 184 324 821 839 837 682 673 745 1035 697 621 846 818 630 372 110 102 23 23 3 0 0 0 0 0 0 0 0 0
4 0 9 45 6 104 103 68 119 40 0 0 0 24 145 141 528 454 399 553 525 418 468 756 841 788 641 813 976 701 422 820 1007 676 305 128 22 1 0 0 0 0 0 0 0 0 0 0 0
0 2 28 67 46 67 28 29 50 0 0 0 0 30 187 242 247 368 519 531 533 699 650 729 747 652 792 797 1092 782 102 210 854 744 352 232 29 0 0 0 0 0 0 0 0 0 0 0 0
0 4 5 94 79 143 146 118 2 2 14 0 9 5 13 111 314 283 364 492 618 654 767 1052 1213 1125 1117 1247 1183 924 640 448 717 528 306 255 0 0 0 0 0 0 0 0 0 0 0 0 0
4 5 39 82 51 185 377 117 112 33 42 63 15 37 15 16 94 445 462 564 578 691 1236 1849 1842 1766 1429 1239 1148 1089 915 707 311 245 157 3 0 0 0 0 0 0 0 0 0 0 0 0 0

GFSSGP_con_sbcape_051.txt.gz
CAPE
0 0 0 0 0 0 0 0 0 0 0 214 290 287 132 16 136 704 184 189 61 33 548 631 1256 1599 1599 1520 1374 1180 1054 923 714 598 704 880 978 1044 1022 446 230 236 131 0 0 0 0 0 0
0 0 0 0 0 0 0 0 0 106 206 236 261 201 98 211 366 609 248 123 4 18 3 130 703 1437 1643 1551 1343 1145 1028 896 685 668 916 990 980 1035 1039 362 248 299 195 0 0 0 0 0 12
0 0 0 0 0 0 0 0 0 205 126 261 194 273 763 144 13 707 1325 44 227 390 465 762 859 1213 1534 1432 1210 1022 937 708 621 780 951 1002 1019 1029 1072 470 369 386 203 0 0 0 0 0 6
0 0 0 0 0 0 0 0 53 22 1 163 30 1153 986 154 152 0 949 46 660 869 1008 925 821 1010 1367 1290 1121 978 689 503 619 784 1007 1162 1185 1130 1072 744 486 476 183 0 0 0 0 0 0
0 0 0 0 0 0 24 3 199 293 120 353 161 127 650 108 78 1165 1011 659 863 905 851 871 692 629 539 719 1080 790 533 607 763 878 1082 1277 1324 1221 1106 950 537 415 192 19 0 0 0 0 0
0 0 0 0 0 37 65 4 5 21 421 110 173 105 0 0 436 439 711 630 799 670 517 450 718 118 310 418 643 653 650 758 749 909 1212 1448 1423 1236 1204 1027 529 382 220 188 85 43 0 0 0
0 0 0 0 0 4 22 5 0 12 131 3 81 230 0 0 206 388 838 730 713 666 425 423 458 396 174 165 357 568 547 603 672 638 702 788 939 1072 1121 822 530 368 251 165 101 34 0 0 0
0 0 0 0 0 3 0 0 9 75 33 202 41 91 377 76 208 401 365 599 328 330 260 151 129 102 82 76 224 379 438 437 377 316 232 284 547 775 680 512 351 277 198 153 85 22 0 0 0
0 0 0 0 0 0 0 70 66 5 6 78 0 0 227 291 96 187 36 31 57 36 9 0 0 0 5 46 331 440 380 258 212 164 112 70 137 211 185 269 314 255 172 133 73 0 0 0 0
0 0 0 0 0 0 0 0 100 22 0 1 0 6 459 270 22 60 139 84 64 6 4 2 2 2 0 57 187 161 142 70 42 14 0 0 9 77 222 284 270 209 126 75 14 0 0 0 0
0 0 0 0 0 0 0 26 102 159 204 12 64 133 422 99 0 2 1 3 0 1 3 1 0 0 0 4 8 35 18 69 25 3 12 43 80 107 127 155 121 98 11 0 0 0 0 0 0
0 0 0 0 0 0 2 0 74 197 407 403 643 467 340 101 2 3 2 2 1 1 0 0 0 0 0 0 0 0 0 27 10 59 99 97 79 79 74 35 43 10 0 0 0 0 0 0 0
0 0 0 0 0 2 0 0 34 0 311 284 464 397 127 9 2 2 3 2 2 2 1 0 0 0 0 0 0 0 10 23 56 100 150 127 116 76 64 65 9 0 0 0 0 0 0 0 0
0 0 0 0 0 16 0 0 0 0 152 270 255 210 65 2 3 4 2 3 1 4 4 2 1 0 0 0 0 0 3 20 27 64 161 227 112 149 102 116 43 0 0 0 0 0 0 0 0
0 0 0 0 0 0 0 0 0 1 19 482 270 95 55 4 5 5 3 2 1 5 6 2 0 0 0 0 0 0 1 35 37 46 145 238 244 165 210 229 184 158 4 0 0 0 0 0 0
0 0 0 0 3 14 13 14 0 0 0 227 83 96 27 2 2 3 0 1 1 4 8 3 0 0 0 0 0 0 1 75 113 161 157 138 266 290 217 109 102 8 0 0 0 0 0 0 0
0 0 0 0 49 34 17 0 0 2 31 206 200 106 0 18 1 0 0 0 0 3 6 0 0 0 0 0 0 0 3 34 117 85 99 134 160 214 98 263 100 14 0 0 0 0 0 0 0
0 0 0 8 5 33 12 0 0 0 30 0 10 70 16 31 0 0 0 0 0 0 0 4 3 0 0 0 0 0 0 6 24 6 21 172 107 128 301 212 116 4 0 0 0 0 0 0 0
0 0 0 0 2 0 0 13 0 0 4 19 0 38 20 0 0 0 0 0 0 0 0 0 0 0 0 0 0 0 0 6 2 5 9 49 149 222 260 183 63 16 0 0 0 0 0 0 0
0 0 0 21 14 0 20 16 0 0 3 26 24 0 0 0 0 0 0 0 0 0 0 0 0 0 0 0 0 0 0 0 8 0 0 10 154 193 211 221 116 14 3 0 0 0 0 0 0
0 0 0 9 13 0 0 6 8 0 90 78 38 9 0 0 0 0 0 0 0 0 0 0 0 0 0 0 0 0 0 4 0 0 0 9 300 213 257 191 112 3 0 0 0 0 0 0 0
0 0 1 1 0 0 0 0 34 73 62 107 37 2 4 3 0 0 0 0 0 0 0 0 0 0 0 0 0 0 0 0 0 0 0 199 212 173 196 143 48 5 0 0 0 0 0 0 0
0 0 1 0 0 0 0 0 4 84 3 0 0 3 0 92 0 0 0 0 0 0 0 0 0 0 0 0 0 0 7 0 0 0 0 194 180 153 134 108 81 16 2 0 0 0 0 0 0
0 3 0 0 0 0 0 0 1 0 0 4 0 0 0 0 61 2 0 0 0 0 0 0 0 0 0 0 0 37 128 54 0 0 0 159 160 160 227 135 44 3 0 0 0 0 0 0 0
0 0 0 0 0 0 10 5 0 0 0 2 13 5 1 22 48 56 47 6 0 0 0 0 0 0 0 0 0 51 72 71 27 19 7 37 98 60 67 18 2 0 0 0 0 0 0 0 0
0 0 0 0 0 0 0 3 0 0 0 0 0 25 0 5 88 151 129 149 123 18 5 0 2 6 3 8 63 124 107 134 97 22 24 20 48 20 7 9 0 0 0 0 0 0 0 0 0
0 0 0 25 0 0 1 10 0 0 0 0 0 0 13 0 8 68 139 158 113 126 101 110 79 58 103 137 184 142 134 165 211 80 47 13 1 0 0 0 0 0 0 0 0 0 0 0 0
0 0 2 19 8 4 3 32 1 0 0 0 0 0 1 0 0 27 7 22 65 201 243 238 246 290 249 128 319 315 276 90 240 144 27 6 0 0 0 0 0 0 0 0 0 0 0 0 0
0 0 0 19 13 3 0 0 0 0 0 0 0 0 3 15 0 3 2 14 4 1 118 333 319 148 310 196 260 385 188 76 261 207 115 40 0 0 0 0 0 0 0 0 0 0 0 0 0
0 0 0 0 28 21 0 1 0 0 0 0 0 0 0 51 29 73 49 5 6 69 40 215 279 326 300 226 303 429 83 16 160 45 71 1 0 0 0 0 0 0 0 0 0 0 0 0 0

GFSSGP_con_sbcape_054.txt.gz
CAPE
0 0 0 0 0 0 0 0 0 0 0 43 209 147 124 177 698 623 430 400 191 603 1092 966 628 1407 1602 1449 1277 1120 1009 902 844 938 1220 1236 858 608 531 407 261 61 32 0 0 0 1 5 26
0 0 0 0 0 0 0 0 0 0 0 157 225 178 323 330 206 432 452 335 124 135 997 953 854 1364 1329 1411 1277 1137 959 891 942 1160 1338 1378 895 633 530 405 227 29 31 23 0 0 0 0 0
0 0 0 0 0 0 0 0 0 1 135 206 206 1113 629 440 190 269 390 371 141 193 498 1103 1083 874 913 1461 1235 995 756 798 1033 1199 1402 1482 917 741 639 418 223 50 27 0 0 0 0 0 0
0 0 0 0 0 0 0 0 0 124 206 276 226 638 925 374 545 356 386 295 79 275 380 71 486 896 1063 1373 1186 850 657 789 955 1070 1366 1505 1014 865 683 446 274 127 28 0 0 0 0 0 0
0 0 0 0 0 0 0 0 0 365 309 231 207 100 510 277 563 805 1149 1069 975 869 698 581 651 586 664 682 559 727 676 760 869 1057 1201 1363 1130 910 700 473 272 132 32 0 0 0 0 0 3
0 0 0 0 0 0 0 1 188 220 119 149 177 80 0 14 359 506 1061 1104 1062 983 797 639 591 464 480 325 130 458 732 874 926 1034 1169 1249 1209 861 714 507 288 226 158 17 0 0 0 0 0
0 0 0 0 0 0 0 1 74 190 184 173 126 327 10 0 156 285 827 686 570 480 453 118 279 412 142 107 70 180 803 1027 1141 1149 1143 1057 1052 808 640 483 359 242 104 31 0 0 0 7 0
0 0 0 0 0 0 0 0 27 79 160 137 44 162 456 203 212 447 364 174 366 272 280 230 196 183 3 2 8 101 599 596 716 898 927 877 891 668 457 300 234 141 81 25 0 0 0 0 0
0 0 0 0 0 0 16 95 12 21 93 26 0 12 80 144 183 262 138 68 16 1 85 170 19 0 2 4 7 131 487 367 351 463 408 430 389 253 66 107 148 151 83 12 0 0 0 0 0
0 0 0 0 0 8 84 66 31 30 8 0 0 2 256 65 133 175 116 0 35 3 6 6 5 3 0 0 58 195 253 165 74 14 17 11 44 54 74 107 119 119 101 35 0 0 0 0 0
0 0 0 0 0 8 35 19 46 1 0 60 189 28 354 19 1 15 64 39 7 1 2 2 4 2 4 2 1 133 28 1 0 0 10 38 47 17 35 35 33 41 35 0 0 0 0 0 0
0 0 0 0 0 5 20 0 37 53 266 523 391 316 78 44 34 3 3 1 1 2 1 0 3 2 1 19 70 14 5 0 0 5 29 16 12 0 8 21 13 0 0 0 0 0 0 0 0
0 0 0 0 3 0 0 0 0 263 206 247 265 139 65 2 1 2 3 2 3 1 1 0 0 0 0 0 0 2 0 0 1 24 15 0 0 0 0 2 0 0 0 0 0 0 0 0 0
0 0 0 0 0 0 0 0 0 0 207 169 145 48 1 0 1 3 3 4 2 2 1 0 0 0 0 0 0 0 0 0 29 33 11 11 0 0 0 0 0 0 0 0 0 0 0 0 0
0 0 0 0 0 0 0 0 0 35 194 116 2 0 2 0 1 4 4 3 7 4 1 0 0 0 0 0 0 0 0 1 42 25 65 34 12 19 0 14 3 0 0 0 0 0 0 0 0
0 0 0 0 2 0 0 6 0 51 270 143 11 0 0 1 2 0 1 3 5 2 2 0 0 0 0 0 0 0 0 14 28 13 51 70 95 47 54 55 55 13 1 0 0 0 0 0 0
0 0 0 0 0 0 0 3 0 0 0 75 16 0 0 0 0 0 0 1 4 0 0 0 0 0 0 0 0 0 0 0 16 0 42 68 84 127 100 80 46 13 0 0 0 0 0 0 0
0 0 0 0 3 2 4 1 0 6 161 89 4 0 0 0 0 0 1 2 4 0 0 0 0 0 0 0 0 0 0 0 0 9 35 64 35 57 119 89 12 0 0 0 0 0 0 0 0
0 0 0 0 0 20 2 0 0 0 11 94 8 0 0 0 0 0 0 0 1 2 0 0 0 0 0 0 0 0 0 0 0 5 13 3 23 47 66 122 7 0 0 0 0 0 0 0 0
0 0 0 0 6 0 0 6 0 0 2 0 6 0 0 0 0 0 1 0 1 1 1 0 0 0 0 0 0 0 0 0 0 0 0 0 0 26 37 63 25 0 0 0 0 0 0 0 0
0 0 0 0 12 1 0 0 25 0 1 0 28 20 0 0 0 0 1 0 1 0 0 0 0 0 0 0 0 0 0 0 0 0 0 0 0 0 33 61 24 0 0 0 0 0 0 0 0
0 0 0 0 0 0 0 0 0 0 0 56 52 0 0 0 0 0 0 0 0 0 0 0 0 0 0 0 0 0 0 0 0 0 0 0 0 0 36 63 8 0 0 0 0 0 0 0 0
0 0 0 1 0 0 0 0 0 0 0 22 74 2 0 0 0 0 0 0 0 0 0 0 0 0 0 0 0 0 0 0 0 0 0 0 0 17 22 33 2 0 0 0 0 0 0 0 0
0 0 0 0 0 0 0 0 0 0 5 36 1 20 0 0 0 0 0 0 0 0 0 0 0 0 0 0 0 0 0 0 0 0 0 0 2 19 27 73 41 2 0 0 0 0 0 0 0
0 0 0 0 0 0 0 0 0 0 0 49 11 22 2 26 0 0 0 0 0 0 0 0 0 0 0 0 0 0 0 0 0 2 0 0 2 31 20 37 54 28 0 0 0 0 0 0 0
0 0 0 0 0 0 0 0 0 0 0 1 3 0 4 0 61 1 0 0 0 0 0 0 0 0 0 0 0 0 0 0 13 46 0 0 0 2 0 0 0 0 0 0 0 0 0 0 0
0 0 0 0 0 0 0 0 0 0 0 0 0 0 0 0 9 45 5 0 0 0 0 0 0 0 0 0 0 0 0 1 66 55 0 0 0 0 0 0 0 0 0 0 0 0 0 0 0
0 0 0 0 1 0 0 0 0 0 0 0 0 0 0 0 0 5 48 31 0 0 0 0 0 0 0 0 0 0 0 8 56 8 3 0 0 0 0 0 0 0 0 0 0 0 0 0 0
0 0 0 0 0 0 0 0 0 0 0 0 0 0 0 0 0 21 98 86 111 75 5 0 0 0 1 0 2 0 0 8 1 9 7 5 0 0 0 0 0 0 0 0 0 0 0 0 0
0 0 0 0 0 0 0 0 0 0 0 0 0 0 0 0 0 1 9 112 144 148 127 103 54 36 39 37 60 59 76 7 5 33 19 15 0 0 0 0 0 0 0 0 0 0 0 0 0

GFSSGP_con_sbcape_057.txt.gz
CAPE
0 0 0 0 0 0 0 0 0 0 0 0 64 62 72 161 611 322 396 322 836 1317 1069 863 884 898 754 997 1283 1319 1235 1400 1462 1294 927 843 773 690 432 263 300 470 427 87 70 45 17 16 27
0 0 0 0 0 0 0 0 0 0 1 82 88 136 253 355 184 526 643 412 494 526 422 618 481 562 440 367 1125 1356 1307 1517 1572 1349 1037 969 816 592 366 260 310 513 452 47 12 4 2 2 59
0 0 0 0 0 0 0 0 0 0 42 60 258 692 580 268 247 556 468 493 281 264 1030 765 333 203 335 161 1037 1236 1150 1416 1606 1303 1048 980 807 604 323 200 350 494 439 7 0 0 0 65 8
0 0 0 0 0 0 0 0 0 33 20 121 171 663 841 535 724 454 739 498 489 366 1111 948 473 109 432 634 1030 957 1136 1249 1433 1259 1021 974 848 625 292 164 327 577 335 0 0 0 1 0 0
0 0 0 0 0 0 0 0 0 110 99 57 95 248 623 379 333 985 845 460 285 273 351 919 732 706 901 1024 544 657 1177 1217 1326 1297 867 873 819 577 319 157 256 349 180 0 0 0 70 0 0
0 0 0 0 0 0 0 0 15 67 27 37 83 19 3 97 279 533 957 928 583 452 571 271 744 764 596 450 382 306 714 1055 1196 1198 823 916 731 493 356 216 152 86 8 0 0 6 51 0 0
0 0 0 0 0 0 0 0 8 67 54 73 92 247 50 0 190 407 1160 1042 968 733 646 420 463 259 53 13 3 38 302 796 846 875 840 743 601 407 336 232 87 0 0 0 0 0 0 1 0
0 0 0 0 0 0 0 0 11 9 37 66 5 41 356 168 223 647 553 309 624 381 162 384 145 117 10 3 13 8 317 671 560 677 950 566 509 357 236 61 0 0 0 0 0 0 11 0 0
0 0 0 0 0 0 10 18 0 0 15 2 0 5 136 124 218 105 22 116 401 355 176 155 49 8 5 4 0 45 322 644 727 819 722 333 159 21 0 0 0 0 0 0 0 0 5 5 0
0 0 0 0 0 0 13 3 0 0 0 0 0 35 160 39 136 80 36 52 78 148 102 1 3 2 0 0 0 38 224 346 545 638 409 206 33 0 0 0 0 5 5 8 1 0 0 0 0
0 0 0 0 0 0 0 0 15 0 0 0 21 0 173 0 2 17 9 22 8 16 8 3 0 0 0 0 0 33 202 184 64 37 92 42 16 4 0 0 0 0 1 0 0 0 0 0 0
0 0 0 0 0 0 0 0 8 23 82 345 150 11 29 1 0 8 8 3 1 3 3 5 0 0 0 0 0 2 34 17 26 68 50 1 0 0 5 4 0 0 0 0 0 0 0 0 0
0 0 0 0 0 0 0 0 15 362 258 212 116 18 0 0 3 2 3 1 2 3 3 2 8 7 0 0 0 0 0 0 4 4 9 10 0 0 6 1 0 0 0 0 0 0 0 0 0
0 0 0 0 0 0 0 0 0 18 62 148 23 0 0 1 1 2 2 3 1 3 1 1 1 5 5 8 5 0 0 0 0 0 3 0 0 9 4 0 0 0 0 0 0 0 0 0 0
0 0 0 0 0 0 0 0 0 0 61 14 10 0 0 1 0 2 1 2 2 1 1 0 0 0 0 0 0 0 0 4 0 0 4 0 0 0 0 0 0 0 0 0 0 0 0 0 0
0 0 0 0 0 0 0 0 0 1 57 15 0 1 0 0 0 0 0 4 3 4 1 1 1 0 0 0 0 0 0 21 21 25 31 15 1 1 2 11 0 0 0 0 0 0 0 0 0
0 0 0 0 0 0 0 0 0 64 117 38 0 0 0 0 0 0 1 4 2 1 3 2 0 0 0 0 0 0 1 35 33 61 67 51 21 22 35 39 45 2 0 0 0 0 0 0 0
0 0 0 0 0 0 0 0 0 0 0 25 0 0 0 0 0 0 0 3 2 1 1 3 0 0 0 0 0 0 4 18 16 9 40 79 103 119 100 61 57 27 0 0 0 0 0 0 0
0 0 0 0 0 0 0 0 0 0 35 13 0 1 0 0 0 0 0 1 1 0 0 0 0 0 0 0 0 1 0 0 0 20 20 55 80 48 64 80 36 9 0 0 0 0 0 0 0
0 0 0 0 0 0 0 0 0 0 0 6 0 0 0 0 0 1 0 1 5 0 0 0 0 0 0 0 0 0 0 0 0 0 0 20 14 24 18 53 45 10 0 0 0 0 0 0 0
0 0 0 0 0 0 0 0 0 0 0 0 0 0 0 0 0 0 0 0 4 3 1 0 0 0 0 0 0 0 0 0 4 2 6 6 1 0 0 2 0 0 0 0 0 0 0 0 0
0 0 0 0 0 0 0 0 0 0 0 0 0 0 0 0 0 0 0 0 0 1 0 0 0 0 0 0 0 0 0 0 0 0 0 6 0 0 0 0 0 0 0 0 0 0 0 0 0
0 0 0 0 0 0 0 0 0 0 0 0 0 0 0 0 0 0 0 0 0 0 0 0 0 0 0 0 0 0 0 0 0 0 0 0 0 0 0 0 0 0 0 0 0 0 0 0 0
0 0 0 0 0 0 0 0 0 0 0 0 0 0 0 0 0 0 0 0 0 0 0 0 0 0 0 0 0 0 0 0 0 0 0 0 0 0 0 3 4 0 0 0 0 0 0 0 0
0 0 0 0 0 0 0 0 0 0 0 0 0 0 0 0 0 0 0 0 0 0 0 0 0 0 0 0 0 0 0 0 0 0 0 0 0 0 0 5 8 5 3 0 0 0 0 0 0
0 0 0 0 0 0 0 0 0 0 0 0 0 0 0 0 0 0 0 0 0 0 0 0 0 0 0 0 0 0 0 0 0 0 0 0 0 0 0 0 0 2 0 0 0 0 0 0 0
0 0 0 0 0 0 0 0 0 0 0 0 0 0 0 0 0 0 0 0 0 0 0 0 0 0 0 0 0 0 0 0 0 0 0 0 0 0 0 0 0 0 0 0 0 0 0 0 0
0 0 0 0 0 0 0 0 0 0 0 0 0 0 0 0 0 0 0 0 0 0 0 0 0 0 0 0 0 0 0 0 0 0 0 0 0 0 0 0 0 0 0 0 0 0 0 0 0
0 0 0 0 0 0 0 0 0 0 0 0 0 0 0 0 0 1 17 0 0 0 0 0 0 0 0 0 0 0 0 0 0 0 0 0 0 0 0 0 0 0 0 0 0 0 0 0 0
0 0 0 0 0 0 0 0 0 0 0 0 0 0 0 0 0 0 3 29 0 0 0 0 0 0 0 0 0 0 0 0 0 0 0 0 0 0 0 0 0 0 0 0 0 0 0 0 0

GFSSGP_con_sbcape_060.txt.gz
CAPE
0 0 0 0 0 0 0 0 0 0 0 0 0 6 20 82 252 122 360 453 1361 1258 1294 1368 1364 1424 1481 1562 1375 1419 1513 1554 1481 1277 1122 1050 925 600 533 577 552 583 543 118 79 47 10 9 10
0 0 0 0 0 0 0 0 0 0 0 0 24 82 132 290 164 473 721 526 1442 1351 1131 987 1334 1376 1512 1443 1434 1515 1597 1600 1395 1234 1107 1055 886 679 759 608 520 597 635 302 104 188 72 7 8
0 0 0 0 0 0 0 0 0 0 0 0 75 388 448 184 168 638 471 673 705 858 646 883 1144 1150 1251 1331 1355 1521 1557 1448 1229 1201 1170 1034 810 807 798 566 520 649 598 209 209 169 77 3 8
0 0 0 0 0 0 0 0 0 0 0 0 22 364 631 391 521 413 771 767 460 496 752 483 537 837 877 765 1307 1492 1445 1200 1041 1054 1077 967 756 825 730 497 512 567 379 85 28 189 2 0 0
0 0 0 0 0 0 0 0 0 0 10 1 0 64 598 330 242 840 883 753 556 321 689 914 371 770 812 846 1133 1128 1324 1095 966 916 845 788 634 721 596 515 395 188 29 18 111 1 0 0 0
0 0 0 0 0 0 0 0 0 3 0 0 9 0 0 85 129 402 541 595 267 286 496 771 454 768 784 841 540 471 612 616 814 699 718 643 454 452 586 410 199 36 84 175 231 15 0 0 0
0 0 0 0 0 0 0 0 0 0 0 0 0 40 3 0 123 474 529 1026 688 272 517 757 504 636 359 215 46 67 153 522 680 585 648 546 414 343 362 217 28 7 96 258 76 0 0 0 0
0 0 0 0 0 0 0 0 0 0 0 10 8 6 95 189 88 767 501 696 825 615 573 322 193 0 0 0 0 0 4 396 623 684 580 438 364 256 112 0 0 0 0 49 42 0 0 0 0
0 0 0 0 0 0 0 0 0 0 12 15 0 0 27 42 170 64 121 328 418 271 221 201 19 1 0 0 0 0 5 137 409 560 401 272 130 38 0 0 0 0 0 2 12 33 1 0 0
0 0 0 0 0 0 0 0 0 0 1 4 0 11 96 29 219 53 17 86 237 169 227 103 7 5 6 8 1 0 0 0 111 425 283 145 16 0 0 0 0 0 0 4 27 43 12 0 0
0 0 0 0 0 0 0 0 0 0 0 0 0 0 13 0 3 63 57 57 81 80 19 2 2 1 0 1 3 4 17 38 101 374 236 60 19 2 0 0 0 0 0 0 0 0 0 0 0
0 0 0 0 0 0 0 0 0 0 0 43 71 1 33 0 3 17 20 6 11 42 5 1 20 15 1 3 0 20 0 28 72 199 154 69 0 0 0 0 0 0 0 0 0 0 0 0 0
0 0 0 0 0 0 0 0 0 11 181 138 71 38 0 0 1 0 1 1 1 1 3 2 1 0 0 0 0 9 14 26 56 135 183 74 12 0 0 0 0 0 0 0 0 0 0 0 0
0 0 0 0 0 0 0 0 0 0 46 37 26 0 0 0 0 1 1 1 1 2 4 7 5 0 0 0 2 0 0 0 12 105 110 37 0 0 0 0 0 0 0 0 0 0 0 0 0
0 0 0 0 0 0 0 0 0 0 35 34 13 0 0 0 0 1 0 1 0 3 3 2 8 1 0 0 0 0 0 0 0 30 26 0 0 0 0 0 0 0 0 0 0 0 0 0 0
0 0 0 0 0 0 0 0 0 0 19 23 0 0 0 0 0 0 0 1 1 1 1 2 3 7 0 5 0 0 0 4 1 2 6 0 3 2 0 0 0 0 0 0 0 0 0 0 0
0 0 0 0 0 0 0 0 0 0 2 4 0 0 0 0 0 0 1 2 3 1 2 3 1 1 0 1 0 0 3 0 24 19 8 17 11 2 1 0 0 0 0 0 0 0 0 0 0
0 0 0 0 0 0 0 0 0 3 7 28 0 0 0 0 0 0 0 3 2 1 2 2 0 0 0 0 0 0 0 12 21 23 26 45 29 21 13 14 3 0 0 0 0 0 0 0 0
0 0 0 0 0 0 0 0 0 0 0 0 0 1 0 0 0 0 0 2 1 1 2 1 1 0 0 0 0 0 0 0 2 31 60 64 75 79 55 63 49 31 12 0 0 0 0 0 0
0 0 0 0 0 0 0 0 0 0 0 0 0 0 0 0 0 0 1 6 0 0 0 1 0 0 0 0 0 0 0 0 6 13 21 43 55 60 92 113 74 27 12 0 0 0 0 0 0
0 0 0 0 0 0 0 0 0 0 0 0 0 0 0 0 0 0 0 2 1 0 0 0 0 0 0 0 0 0 0 0 0 1 2 4 8 5 36 56 35 36 0 1 0 0 0 0 0
0 0 0 0 0 0 0 0 0 0 0 0 0 0 0 0 0 0 0 0 3 0 0 0 0 0 0 0 0 0 0 0 0 0 3 9 14 0 8 11 4 2 0 0 0 0 0 0 0
0 0 0 0 0 0 0 0 0 0 0 0 0 0 0 0 0 0 0 0 0 0 0 0 0 0 0 0 0 0 0 0 0 0 5 6 0 0 0 0 0 0 0 1 0 0 0 0 0
0 0 0 0 0 0 0 0 0 0 0 0 0 0 0 0 0 0 0 0 0 0 0 0 0 0 0 0 0 0 0 0 0 0 0 0 0 0 0 0 0 0 0 0 0 0 0 0 0
0 0 0 0 0 0 0 0 0 0 0 0 0 0 0 0 0 0 0 0 0 0 0 0 0 0 0 0 0 0 0 0 0 0 0 0 0 0 0 0 0 0 0 0 0 0 0 0 0
0 0 0 0 0 0 0 0 0 0 0 0 0 0 0 0 0 0 0 0 0 0 0 0 0 0 0 0 0 0 0 0 0 0 0 0 0 0 0 0 0 0 0 0 0 0 0 0 0
0 0 0 0 0 0 0 0 0 0 0 0 0 0 0 0 0 0 0 0 0 0 0 0 0 0 0 0 0 0 0 0 0 0 0 0 0 0 0 0 0 0 0 0 0 0 0 0 0
0 0 0 0 0 0 0 0 0 0 0 0 0 0 0 0 0 0 0 0 0 0 0 0 0 0 0 0 0 0 0 0 0 0 0 0 0 0 0 0 0 0 0 0 0 1 0 0 0
0 0 0 0 0 0 0 0 0 0 0 0 0 0 0 0 0 0 0 0 0 0 0 0 0 0 0 0 0 0 0 0 0 0 0 0 0 0 0 0 0 0 0 0 0 0 0 0 0
0 0 0 0 0 0 0 0 0 0 0 0 0 0 0 0 0 0 0 0 0 0 0 0 0 0 0 0 0 0 0 0 0 0 0 0 0 0 0 0 0 0 0 0 0 0 0 0 0

GFSSGP_con_sbcape_063.txt.gz
CAPE
0 0 0 0 0 0 0 0 0 0 0 0 2 2 11 87 171 207 437 690 1426 1323 1237 1232 1378 1576 1670 1754 1825 1783 1763 1709 1563 1459 1358 1193 993 818 716 587 490 460 340 21 25 33 42 31 24
0 0 0 0 0 0 0 0 0 0 0 0 10 119 97 201 266 495 648 629 1584 1467 1370 1404 1462 1565 1664 1703 1764 1800 1934 1797 1594 1468 1331 1087 870 827 784 641 473 452 390 20 17 18 26 40 19
0 0 0 0 0 0 0 0 0 0 0 0 6 453 211 250 148 857 567 725 1573 1606 1605 1617 1407 1499 1660 1697 1816 1857 1736 1574 1430 1329 1284 948 1003 974 891 656 549 588 574 195 32 11 9 10 17
0 0 0 0 0 0 0 0 0 0 0 0 10 431 651 352 236 438 710 886 899 1220 1363 1123 1179 1164 1724 1808 1890 1760 1492 1285 1238 1144 1068 986 1103 1049 842 605 642 656 621 477 25 4 5 10 2
0 0 0 0 0 0 0 0 0 0 0 0 0 14 431 374 194 591 976 841 783 880 1186 976 598 1049 1378 1866 1903 1694 1345 1183 1149 997 784 942 1054 921 707 593 548 542 531 516 63 0 0 1 0
0 0 0 0 0 0 0 0 0 0 0 0 0 0 1 29 17 329 652 922 570 880 1189 899 455 896 1054 1289 1228 1402 1235 1179 1005 846 685 870 773 605 517 397 282 288 474 422 63 0 0 0 0
0 0 0 0 0 0 0 0 0 0 0 0 4 29 39 0 50 420 733 854 459 528 579 1229 838 996 933 860 631 891 1021 1061 870 696 540 486 309 339 383 186 190 271 434 208 2 0 0 0 0
0 0 0 0 0 0 0 0 0 0 0 7 21 72 153 319 138 546 738 1006 1285 412 650 1216 703 986 938 560 182 415 574 727 660 496 341 235 221 298 234 126 261 411 377 140 0 0 0 0 0
0 0 0 0 0 0 0 0 0 0 5 15 8 11 34 80 154 289 419 718 571 646 698 955 352 475 554 185 116 172 72 325 443 408 279 181 401 165 14 17 158 352 148 25 0 0 7 0 0
0 0 0 0 0 0 0 0 0 0 0 10 5 3 66 74 212 241 97 118 269 149 425 210 71 17 6 0 0 0 56 86 168 337 297 223 103 0 0 5 44 121 107 73 13 11 5 0 0
0 0 0 0 0 0 0 0 0 0 3 6 0 8 18 26 47 102 84 64 139 102 136 128 3 5 6 0 0 0 19 96 118 214 204 159 11 0 3 0 3 50 65 37 8 1 0 0 0
0 0 0 0 0 0 0 0 8 5 7 55 37 15 13 0 27 16 71 47 71 75 19 6 5 1 1 5 0 0 0 15 87 140 256 164 1 1 0 0 3 8 0 35 13 0 0 0 0
0 0 0 0 0 0 0 0 0 6 42 255 100 28 15 0 7 0 7 17 19 67 27 20 23 7 4 5 5 1 3 35 46 142 233 71 9 5 11 2 1 0 0 2 0 0 0 0 0
0 0 0 0 0 0 0 0 0 0 206 158 23 0 1 3 0 1 5 7 9 4 4 2 3 2 5 4 12 39 63 51 63 153 231 114 43 19 12 7 0 0 0 0 0 0 0 0 0
0 0 0 0 0 0 0 0 0 0 227 4 0 0 1 1 0 3 4 4 3 3 4 2 3 0 0 10 20 25 17 27 35 167 208 128 70 79 48 14 0 0 0 0 0 0 0 0 0
0 0 0 0 0 0 0 0 0 0 143 20 0 1 1 1 1 0 2 5 7 5 4 6 6 1 0 5 0 13 25 51 25 51 130 121 100 65 33 6 3 6 6 4 0 0 0 0 0
0 0 0 0 0 0 0 0 0 2 76 85 71 1 0 0 2 2 1 3 8 4 4 5 6 9 0 1 0 2 18 69 24 1 45 90 82 69 58 19 26 19 29 31 1 0 0 0 0
0 0 0 0 0 0 0 0 0 0 68 78 87 5 1 0 1 0 0 1 8 5 3 3 11 7 11 0 1 3 1 64 67 46 21 75 56 51 71 63 57 47 24 52 40 8 0 0 0
0 0 0 0 0 0 0 0 0 0 26 65 98 21 0 1 2 1 3 10 5 4 2 3 1 2 9 1 1 0 0 65 106 75 26 71 51 63 121 128 94 90 115 86 41 40 1 0 0
0 0 0 0 0 0 0 0 0 0 0 14 32 7 0 1 2 6 1 13 3 6 4 3 1 1 2 6 0 0 10 20 56 72 40 71 60 86 124 155 178 134 148 114 74 58 50 23 0
0 0 0 0 0 0 0 0 0 0 0 0 0 0 0 0 1 1 1 2 9 1 4 2 1 0 0 0 0 0 0 0 26 34 60 86 107 148 182 189 200 206 256 231 175 82 45 109 0
0 0 0 0 0 0 0 0 0 0 0 0 0 3 19 0 0 0 2 2 6 11 11 6 3 2 0 0 0 0 0 0 6 15 57 54 99 138 118 110 121 175 225 180 141 46 92 100 58
0 0 0 0 0 0 0 0 0 0 0 0 0 0 31 2 0 0 0 0 2 3 10 4 1 4 0 0 0 0 0 0 0 0 35 41 36 53 61 55 95 130 184 208 215 112 61 68 80
0 0 0 0 0 0 0 0 0 0 0 0 0 0 0 14 0 0 0 0 1 4 10 6 1 5 0 0 0 0 0 0 0 0 4 18 47 42 64 50 76 114 120 140 190 187 131 75 32
0 0 0 0 0 0 0 0 0 0 0 0 0 0 0 4 1 0 1 1 2 1 7 10 1 2 2 0 0 0 0 0 0 0 0 4 26 22 34 44 51 57 79 115 170 175 128 96 25
0 0 0 0 0 0 0 0 0 0 0 0 0 0 0 0 6 0 0 0 0 2 3 5 3 2 2 0 0 0 0 0 0 0 0 0 14 25 10 26 34 32 48 91 137 131 124 61 0
0 0 0 0 0 0 0 0 0 0 0 0 0 0 0 0 6 9 0 0 0 0 1 2 2 2 2 1 1 0 0 0 0 0 0 0 0 0 0 4 5 5 21 58 108 135 132 27 5
0 0 0 0 0 0 0 0 0 0 0 0 0 0 0 0 0 4 1 0 0 0 0 1 0 0 0 0 1 0 0 0 0 0 0 0 0 0 0 0 0 0 0 21 43 49 11 4 8
0 0 0 0 0 0 0 0 0 0 0 0 0 0 0 0 0 0 2 0 0 0 0 0 0 0 0 0 0 0 0 0 0 0 0 0 0 0 0 0 0 0 0 1 2 2 1 5 5
0 0 0 0 0 0 0 0 0 0 0 0 0 0 0 0 0 0 0 0 0 0 0 0 0 0 0 0 0 0 0 0 0 0 0 0 0 0 0 0 0 0 0 0 0 0 0 0 0

GFSSGP_con_sbcape_066.txt.gz
CAPE
0 0 0 0 0 0 0 0 0 0 0 0 0 1 5 32 21 74 944 1344 1356 1411 1459 1319 1578 1940 2009 1888 1815 1855 1867 1734 1577 1517 1537 1522 1494 1361 1197 912 768 690 696 119 12 18 32 24 10
0 0 0 0 0 0 0 0 0 0 0 0 11 76 115 96 316 685 1143 1414 1621 1524 1504 1272 1538 1817 2044 1972 1945 1917 1952 1775 1646 1669 1628 1532 1387 1200 996 698 484 465 501 84 21 15 18 21 11
0 0 0 0 0 0 0 0 0 0 0 0 11 200 244 106 318 1250 1156 1463 1915 1584 1548 1386 1486 1341 1953 2013 1982 1958 1830 1677 1664 1607 1599 1441 1248 1053 787 463 322 346 318 14 20 43 21 16 21
0 0 0 0 0 0 0 0 0 0 0 0 10 57 774 947 495 1142 1102 1546 1336 1796 1440 1324 1329 1289 1534 2027 2042 1966 1727 1594 1546 1443 1441 1499 1315 1104 754 451 403 410 253 14 18 30 24 16 0
0 0 0 0 0 0 0 0 0 0 0 18 32 12 122 839 574 825 1211 1464 1372 2068 1552 1832 1203 971 627 1097 1594 1901 1610 1507 1401 1266 1345 1350 1301 1098 734 576 532 532 298 22 13 10 5 1 0
0 0 0 0 0 0 0 0 0 0 0 0 27 28 71 300 517 551 948 1389 1571 1514 1737 1646 794 595 460 792 1437 1508 1345 1341 1215 1151 1247 1304 1126 903 784 707 675 520 245 41 11 6 3 0 0
0 0 0 0 0 0 0 0 0 0 0 0 40 54 174 178 290 513 737 1138 1561 1100 1584 1413 993 874 801 663 1030 1005 1156 1156 1046 1089 1094 1007 819 686 656 623 621 531 191 49 6 5 0 0 0
0 0 0 0 0 0 0 0 0 0 0 147 100 0 99 839 441 652 743 913 1340 1104 813 1359 1691 1235 1048 1165 611 604 875 836 853 984 857 582 507 374 250 251 529 420 181 87 19 0 0 0 0
0 0 0 0 0 0 0 0 0 0 0 83 193 213 308 257 352 453 553 894 1051 1308 1150 1352 1084 1089 905 731 749 674 598 515 601 730 446 318 486 266 140 148 390 261 126 88 16 0 0 0 0
0 0 0 0 0 0 0 0 0 0 2 38 167 256 142 244 399 449 331 581 649 567 711 1321 1095 1051 886 588 687 558 288 288 240 334 259 346 403 222 26 195 252 195 103 90 27 0 0 0 0
0 0 0 0 0 0 0 0 0 0 0 1 16 166 180 311 296 319 365 108 214 264 627 697 546 266 372 326 16 98 105 86 109 228 224 381 384 78 110 333 358 181 52 3 0 0 0 0 0
0 0 0 0 0 0 0 0 0 0 8 93 4 158 303 182 174 104 118 76 158 199 85 70 153 32 4 13 21 1 0 15 38 82 202 263 186 183 167 184 187 127 63 34 1 0 0 0 0
0 0 0 0 0 0 0 0 0 0 4 211 288 287 402 201 81 40 62 87 161 127 18 22 8 2 0 2 7 7 2 1 32 48 100 278 201 168 83 192 214 179 207 148 70 25 0 0 0
0 0 0 0 0 0 0 0 0 0 0 307 380 342 245 63 0 5 54 7 86 48 24 10 17 16 6 2 7 13 21 13 70 69 123 249 213 163 81 76 67 66 158 163 81 40 3 0 0
0 0 0 0 0 0 0 0 0 0 84 242 275 307 203 25 0 0 16 4 17 32 9 14 6 3 5 3 4 4 21 31 22 57 170 306 174 145 175 78 62 54 63 59 37 33 8 0 0
0 0 0 0 0 0 0 0 0 0 87 211 199 306 175 71 0 1 0 9 14 6 3 5 5 2 5 7 9 44 10 10 44 75 137 177 164 160 163 108 87 58 50 25 23 24 18 7 1
0 0 0 0 0 0 0 0 0 20 29 55 314 402 279 141 0 0 1 1 11 34 9 8 6 2 8 16 42 48 17 15 64 101 143 103 163 179 131 105 71 128 96 27 18 31 13 2 0
0 0 0 0 0 0 0 0 0 1 25 97 233 458 408 185 0 0 1 1 16 6 8 7 9 3 14 39 20 30 44 42 55 57 136 115 85 107 94 80 110 121 173 133 98 108 74 39 10
0 0 0 0 0 0 0 0 0 0 8 110 188 378 477 290 96 0 0 4 12 7 3 10 5 6 19 19 10 17 36 80 34 18 53 138 103 146 196 103 126 153 167 235 200 200 155 97 76
0 0 0 0 0 0 0 0 0 0 0 24 149 287 412 291 166 0 0 6 15 15 10 6 7 15 10 18 5 15 48 34 50 26 43 75 121 81 119 167 144 150 165 208 266 251 210 219 122
0 0 0 0 0 0 0 0 0 0 0 13 56 95 275 332 267 2 0 3 11 15 11 11 7 5 12 12 19 3 2 6 53 66 68 68 100 33 79 166 162 202 215 220 237 244 278 282 211
0 0 0 0 0 0 0 0 0 0 0 0 6 87 134 242 237 102 0 0 8 9 11 14 8 5 6 15 2 2 0 0 31 41 43 42 108 62 69 200 246 273 330 291 293 286 267 322 303
0 0 0 0 0 0 0 0 0 0 0 0 0 3 138 223 284 210 24 0 0 8 5 20 14 8 4 4 0 0 0 0 41 49 72 31 67 129 139 249 273 311 409 316 490 321 372 373 479
0 0 0 0 0 0 0 0 0 0 0 0 0 0 15 223 296 269 113 2 0 2 12 16 17 11 7 2 5 0 17 23 43 25 54 26 26 93 93 123 249 277 254 301 316 356 503 333 430
0 0 0 0 0 0 0 0 0 0 0 0 0 0 2 124 315 298 182 55 0 0 7 8 15 19 17 4 5 0 5 0 0 0 13 21 22 24 35 124 203 180 166 195 218 323 306 360 365
0 0 0 0 0 0 0 0 0 0 0 0 0 0 0 69 264 296 247 137 7 0 0 10 10 10 13 17 15 9 0 0 0 0 3 0 14 42 27 107 149 137 194 202 239 370 239 332 411
0 0 0 0 0 8 10 0 0 0 0 0 0 0 6 20 149 261 240 205 102 0 0 0 1 3 10 17 18 10 6 3 11 23 8 14 9 32 79 130 83 106 129 142 160 261 215 287 499
1 0 0 0 12 18 13 0 0 0 0 0 0 0 2 57 112 196 258 220 146 36 0 0 0 0 2 5 9 10 8 10 13 27 24 18 38 40 73 88 64 96 76 68 101 196 158 218 541
0 0 0 6 8 23 22 17 0 0 0 0 0 0 0 64 157 196 233 263 194 94 10 0 0 0 0 1 5 5 7 15 18 14 13 11 14 10 11 9 19 29 27 64 122 95 82 139 195
1 2 1 9 12 1 38 37 0 0 0 0 0 0 0 0 13 189 237 212 220 157 53 4 0 0 0 0 0 3 7 4 6 9 11 31 30 17 10 4 0 1 22 69 119 171 23 44 8

GFSSGP_con_sbcape_069.txt.gz
CAPE
0 0 0 0 0 0 0 0 0 0 0 0 0 0 0 0 0 60 1224 1413 1536 1544 2074 1500 1647 1951 2075 1930 1730 1759 1841 1777 1584 1498 1498 1588 1422 1436 1383 1205 1082 1020 803 120 258 263 210 193 141
0 0 0 0 0 0 7 0 0 0 0 0 0 0 0 12 40 58 976 1710 1603 1571 1804 1429 1580 1938 2059 1822 1730 1822 1959 1826 1661 1682 1741 1756 1666 1535 1319 1103 967 853 606 68 211 169 95 42 12
0 0 0 0 0 0 0 0 0 0 0 0 0 3 1 37 283 795 1392 1719 1992 1724 1686 1665 1625 1860 1970 1837 1817 1836 1820 1663 1686 1731 1896 1828 1686 1467 1185 830 790 747 447 36 57 79 35 9 12
0 0 0 0 0 0 0 0 0 0 0 0 0 0 83 1064 556 1126 1318 1751 2057 1820 1618 1220 1453 1585 1568 1760 1762 1822 1683 1471 1614 1664 1788 1723 1588 1312 979 723 687 668 527 274 22 31 9 8 0
0 0 0 0 0 0 0 0 0 0 0 0 0 2 45 950 889 909 1298 1565 1937 2233 1822 1533 1197 1314 1334 1499 1002 960 1533 1445 1577 1560 1504 1462 1326 1054 766 576 458 332 344 226 35 13 3 0 0
0 0 0 0 0 0 0 0 0 0 0 0 3 23 26 700 545 894 1069 1405 1698 2203 2019 1727 1281 1224 1052 719 367 0 749 1392 1331 1370 1370 1340 1073 880 758 595 390 190 119 98 38 11 1 0 0
0 0 0 0 0 0 0 0 0 0 0 2 31 5 32 343 533 762 823 1153 1408 1853 2191 1850 1752 1168 521 31 5 0 31 1180 1154 1197 1285 1106 834 754 840 741 377 148 94 51 9 5 0 0 0
0 0 0 0 0 0 0 0 0 0 0 20 0 1 30 1186 726 838 921 1018 1212 1749 1810 1984 1781 1052 500 246 3 125 221 745 971 1147 1053 831 819 835 812 644 276 126 90 25 4 3 0 0 0
0 0 0 0 0 0 0 0 0 0 0 0 3 108 258 577 455 618 723 907 1025 1523 1413 1693 1576 1517 990 680 665 428 450 261 782 961 646 560 901 766 634 339 173 88 27 7 2 0 0 0 0
0 0 0 0 0 0 0 0 0 0 0 2 19 97 302 400 426 465 392 509 658 1068 1300 1305 1341 1390 1189 945 679 652 321 599 651 730 429 415 548 682 557 332 127 46 0 0 0 0 0 0 0
0 0 0 0 0 0 0 0 0 0 0 2 13 6 293 404 459 432 417 356 384 409 677 831 898 1177 1291 1215 1165 681 593 324 222 246 378 373 302 156 511 455 98 0 0 0 0 0 0 0 0
0 0 0 0 0 0 0 0 0 0 0 0 0 12 174 534 396 212 205 250 238 187 374 580 643 640 241 797 402 348 488 132 30 39 80 81 111 145 338 317 37 0 0 0 0 0 18 0 0
0 0 0 0 0 0 0 0 0 0 0 0 4 333 320 455 314 83 132 86 86 187 214 63 2 165 98 30 129 284 55 44 15 13 2 24 75 150 310 247 90 21 73 0 0 21 6 1 0
0 0 0 0 0 0 0 0 0 0 0 0 3 325 444 509 196 13 152 104 95 116 70 13 8 2 7 163 9 20 14 2 12 9 33 44 73 179 259 236 279 167 164 88 39 44 5 0 0
0 0 0 0 0 0 0 0 0 0 0 0 15 310 397 399 146 2 100 86 12 111 43 21 7 7 3 4 6 2 3 2 18 5 54 72 121 236 208 328 285 272 191 287 176 67 3 0 0
0 0 0 0 0 0 0 0 0 0 0 0 84 192 367 403 212 30 22 51 12 17 33 24 10 13 3 7 13 5 12 10 3 0 38 46 187 304 325 262 193 244 283 251 151 55 10 0 0
0 0 0 0 0 0 0 0 1 0 0 3 77 175 395 413 316 66 0 0 12 2 13 11 15 15 6 5 22 58 15 31 28 0 33 74 189 241 282 237 260 391 274 264 189 116 61 29 13
0 0 0 0 2 0 0 0 0 6 0 9 56 207 446 432 306 70 0 1 8 15 29 6 9 8 4 27 33 6 9 9 28 27 55 136 149 201 187 207 302 253 163 125 189 200 122 100 56
0 4 3 7 1 0 0 0 0 2 11 0 51 101 395 503 302 115 0 1 17 7 11 7 4 2 6 19 35 6 12 8 21 14 57 135 169 171 208 166 248 268 259 214 308 280 342 186 145
0 0 0 0 0 0 0 0 0 0 5 7 32 73 159 529 333 172 1 0 7 14 8 10 4 7 5 18 17 17 3 4 0 7 49 134 184 152 143 144 167 208 273 386 389 341 302 246 274
0 0 0 0 1 0 0 0 0 0 0 1 0 1 51 358 370 271 47 0 4 14 12 14 11 8 9 12 16 22 22 32 26 29 19 72 128 120 121 182 218 215 316 410 443 478 436 251 349
0 0 0 0 0 0 0 0 2 1 10 3 4 0 0 141 395 315 127 13 0 10 13 16 11 13 6 13 16 12 25 33 3 1 15 23 121 92 117 173 181 275 338 401 439 437 464 238 218
0 0 0 0 0 0 0 0 0 0 1 1 0 1 5 58 357 358 199 55 17 4 8 15 11 7 15 15 13 4 0 27 6 4 16 40 62 125 78 122 154 144 353 389 498 374 372 351 178
0 4 1 0 0 2 0 0 0 13 5 0 0 1 9 64 236 328 212 112 4 48 17 21 13 12 11 15 19 3 0 13 0 33 40 21 41 155 144 96 102 160 237 366 292 198 191 224 377
0 6 13 8 4 0 1 0 0 2 0 0 0 1 1 53 258 363 204 149 20 35 59 16 20 12 9 8 11 18 10 0 0 8 56 27 12 61 140 81 39 27 64 125 224 117 188 239 364
2 5 7 16 23 9 11 0 7 3 1 0 0 0 0 23 303 403 234 163 54 23 48 51 13 11 20 12 7 15 10 13 2 18 60 25 8 2 61 66 38 102 97 162 167 244 132 286 199
1 2 0 0 12 62 25 2 0 0 0 0 0 0 1 0 188 405 336 206 122 41 39 54 19 20 15 24 18 15 24 20 32 33 33 61 35 3 5 26 87 129 150 157 153 162 201 111 142
1 2 0 3 17 33 53 76 43 0 0 0 2 18 9 19 124 329 446 350 200 71 28 52 38 23 14 16 29 18 17 27 22 31 38 38 16 15 20 30 51 45 28 63 89 86 201 208 272
0 2 9 6 22 28 58 93 22 0 0 7 19 5 1 96 128 296 412 487 350 184 71 47 33 33 42 38 25 21 33 28 44 56 86 48 90 40 35 16 45 45 54 80 113 107 132 186 219
1 10 24 44 18 40 108 69 0 1 5 4 6 1 0 0 178 264 421 476 511 377 155 77 62 34 25 50 47 152 166 114 186 107 157 129 121 158 52 118 88 86 69 103 103 128 95 138 202

GFSSGP_con_sbcape_075.txt.gz
CAPE
0 0 0 0 0 0 0 0 0 0 0 0 0 0 0 0 0 207 1120 1164 1631 1451 1684 1989 1776 1781 1800 1850 1818 1815 1748 1819 1775 1640 1402 1297 1312 1251 1111 1281 1325 1344 1342 862 495 313 291 532 781
0 0 0 0 0 0 0 0 0 0 0 0 0 0 0 0 1119 1438 1406 1441 1558 1502 1527 1816 2020 1884 1856 1807 1828 1903 1920 1880 1793 1672 1498 1459 1510 1470 1493 1326 1245 1336 1358 764 416 463 492 671 638
0 0 0 0 0 0 0 0 0 0 0 0 0 0 0 32 209 1128 1412 1645 1593 1507 1402 1649 1925 1969 1897 1811 1801 1850 1829 1697 1672 1634 1637 1623 1691 1697 1467 1242 1216 1312 1172 798 508 391 435 583 507
0 0 0 0 0 0 0 0 0 0 0 0 0 0 70 57 355 1115 1492 1600 1720 1414 1519 1477 1672 2003 1984 1870 1816 1777 1709 1539 1560 1573 1660 1819 1827 1692 1293 1043 1193 1251 1104 885 410 277 222 86 71
0 0 0 0 0 0 0 0 0 0 0 0 0 0 54 668 754 979 1186 1633 1556 1531 1320 1306 1432 1909 2038 1986 1830 1618 1456 1023 1532 1556 1620 1734 1713 1517 1090 947 1021 988 970 570 460 174 58 2 7
0 0 0 0 0 0 0 0 0 0 0 0 0 0 186 444 715 903 1037 1205 1403 1690 1385 1322 1426 1804 1868 1808 1451 1005 34 3 0 109 1179 1601 1451 1064 802 735 756 734 493 183 198 73 0 0 0
0 0 0 0 0 0 0 0 0 0 0 0 0 0 199 324 675 610 830 1127 1326 1393 1701 1244 1296 1106 882 676 436 173 159 41 3 0 475 779 900 755 736 635 572 488 317 132 52 14 1 0 0
0 0 0 0 0 0 0 0 0 0 0 0 0 0 71 324 361 349 431 546 1234 1331 1350 1582 942 493 179 11 35 87 66 4 45 23 64 354 558 635 593 456 388 322 218 60 27 3 0 0 0
0 0 0 0 0 0 0 0 0 0 0 0 0 0 125 424 367 376 531 600 674 1218 1236 1067 1131 204 12 0 0 47 51 41 0 13 0 294 340 277 197 207 231 117 36 34 5 0 0 0 0
0 0 0 0 0 0 0 0 0 0 0 0 0 252 490 317 146 214 340 574 700 653 720 926 799 524 4 12 5 0 0 1 11 3 1 213 178 79 111 70 54 20 7 5 0 0 0 0 0
0 0 0 0 0 0 0 0 0 0 0 0 0 57 67 21 10 58 161 160 200 373 527 369 330 141 159 40 3 1 0 0 2 3 1 118 93 48 5 2 2 2 0 0 0 0 0 0 0
0 0 0 0 0 0 0 0 0 0 0 0 0 0 41 47 16 113 142 15 85 127 193 186 217 174 68 59 5 4 0 1 6 8 57 120 27 2 0 0 0 0 0 0 0 0 0 0 0
0 0 0 0 0 0 0 0 0 0 0 0 0 0 0 5 63 37 25 0 36 113 91 0 0 80 145 92 65 106 10 3 0 77 68 71 33 0 0 0 0 0 0 0 0 0 0 0 0
0 0 0 0 0 0 0 0 0 0 0 0 0 1 0 0 72 23 20 0 69 58 0 0 0 0 9 0 40 158 103 48 27 17 5 41 9 0 0 0 0 0 0 0 0 0 0 0 0
0 0 0 0 0 0 0 0 0 0 0 0 0 0 15 0 101 25 1 0 34 1 0 0 0 0 0 0 7 13 15 15 1 5 0 2 0 0 0 0 0 0 0 0 0 0 0 0 0
0 0 0 0 0 0 0 0 0 0 0 0 0 0 20 8 80 0 38 1 4 0 0 0 0 1 0 1 2 1 2 2 0 0 0 0 0 0 0 0 0 0 0 0 0 0 0 0 0
0 0 0 0 0 0 0 0 0 0 0 0 0 0 9 22 8 0 17 0 0 0 0 0 0 3 1 1 4 2 1 0 0 0 0 0 0 0 0 0 0 12 6 16 2 3 0 0 0
0 0 0 0 0 0 0 0 0 0 0 0 0 0 0 0 11 0 0 0 0 0 0 0 0 2 1 1 1 1 1 1 0 0 0 0 0 0 0 16 37 57 36 66 19 9 0 0 0
0 0 0 0 0 0 0 0 0 0 0 0 0 0 0 0 0 0 0 0 0 0 0 0 2 4 3 2 1 1 0 2 2 0 0 0 0 0 0 20 29 63 85 37 7 1 0 0 0
0 0 0 0 0 0 0 0 0 0 0 0 0 0 0 9 0 0 0 0 0 1 3 4 1 5 5 1 0 1 1 1 1 2 0 0 0 0 0 1 4 45 39 46 10 27 29 6 0
0 0 0 0 0 0 0 0 0 0 0 0 0 0 0 26 0 0 0 0 0 1 5 0 0 2 5 2 1 2 2 1 0 0 0 0 0 0 0 0 3 11 26 18 17 43 34 39 8
0 0 0 0 0 0 0 0 0 0 0 0 0 0 0 32 0 0 0 0 0 0 3 3 1 0 0 0 2 1 3 2 0 0 0 0 1 0 0 0 0 6 5 8 56 52 44 38 12
0 0 1 0 3 0 0 0 0 0 0 0 0 0 0 22 0 0 0 0 0 0 1 0 2 3 0 0 0 1 1 1 1 0 0 0 0 0 0 0 0 17 47 81 120 104 99 54 36
10 0 8 0 0 0 0 0 0 0 0 0 0 0 0 21 0 0 0 0 0 0 2 2 2 1 1 3 0 0 0 0 0 0 0 0 0 0 0 0 2 1 22 77 85 119 107 77 14
0 1 14 7 2 0 0 0 0 0 0 0 0 0 0 16 9 0 0 0 0 0 1 4 0 0 0 1 0 0 0 0 0 0 0 0 0 0 0 4 9 20 12 38 51 89 85 57 37
1 6 12 15 0 0 0 0 0 0 0 0 0 0 0 16 0 0 0 0 0 0 0 1 4 4 0 2 3 1 0 0 0 0 0 0 0 0 5 0 18 15 22 72 59 45 48 42 28
2 8 0 1 0 3 0 0 0 0 0 0 0 0 0 2 0 0 0 0 0 0 0 0 0 0 2 1 2 1 2 0 0 0 0 0 0 0 0 0 0 3 14 16 21 39 36 37 33
7 1 1 5 10 2 0 4 0 0 0 0 0 0 0 0 2 0 0 0 0 0 0 0 0 0 0 5 6 2 1 1 0 0 0 0 0 0 0 2 0 0 4 15 23 12 18 29 26
13 11 15 7 10 1 4 0 4 3 0 0 0 0 0 0 4 2 0 0 0 0 0 0 0 0 0 0 3 4 2 1 1 0 0 0 0 0 0 0 3 2 0 2 8 8 9 13 9
3 19 12 22 13 0 0 0 2 0 0 0 0 0 0 23 10 4 4 0 0 0 0 0 0 0 0 0 0 0 4 4 2 0 0 0 0 0 0 0 0 0 0 0 0 0 0 1 0

GFSSGP_con_sbcape_078.txt.gz
CAPE
0 0 0 0 0 0 0 0 0 0 0 0 0 0 0 0 0 0 521 1285 1389 1541 1670 1584 1645 1829 1850 1846 1829 1866 1946 1911 1788 1600 1461 1343 1291 1173 1074 1074 1163 1197 1308 1031 826 786 783 671 754
0 0 0 0 0 0 0 0 0 0 0 0 0 0 0 576 1033 1122 1063 1449 1389 1460 1770 1619 1677 1833 1912 1908 1888 1911 1982 1891 1768 1613 1519 1470 1380 1458 1496 1287 1118 1189 1291 1102 663 606 663 819 659
0 0 0 0 0 0 0 0 0 0 0 0 0 0 0 350 1274 1184 828 1466 1490 1496 1796 1829 1726 1793 1940 1911 1910 1870 1905 1844 1676 1555 1660 1563 1629 1789 1616 1435 1413 1304 1226 468 549 679 804 696 473
0 0 0 0 0 0 0 0 0 0 0 0 0 2 26 12 1149 981 1240 1300 1533 1337 1560 1880 1736 1776 1950 1979 1989 1903 1802 1597 1544 1516 1683 1758 1865 1836 1609 1428 1360 1392 1265 1087 885 950 809 523 365
0 0 0 0 0 0 0 0 0 0 0 0 0 0 120 515 673 1252 1358 1317 998 1149 1351 1640 1806 1822 1969 2074 2058 1905 1640 1574 1343 1417 1576 1775 1826 1694 1457 1320 1240 1227 1070 970 959 771 392 95 3
0 0 0 0 0 0 0 0 0 0 0 0 0 0 341 440 968 983 1186 1135 1158 1181 1195 1306 1724 1900 1979 1949 1810 915 164 226 37 0 0 556 1215 1344 1340 1224 1105 996 852 768 586 208 31 0 0
0 0 0 0 0 0 0 0 0 0 0 0 0 0 262 276 593 660 861 943 1109 1212 1115 1138 1428 1856 1899 1704 1258 73 29 11 7 1 0 34 393 503 1169 1117 922 636 555 517 257 41 6 6 0
0 0 0 0 0 0 0 0 0 0 0 0 0 40 331 97 393 369 664 847 781 1084 1217 1069 1062 745 719 829 525 44 201 131 54 43 2 2 254 410 676 766 568 433 369 282 122 2 8 0 0
0 0 0 0 0 0 0 0 0 0 0 0 0 5 0 314 106 154 146 489 880 843 883 1128 749 449 15 13 95 163 208 92 46 11 0 69 109 211 388 357 355 302 199 149 47 0 0 0 0
0 0 0 0 0 0 0 0 0 0 0 0 27 339 219 212 199 231 317 271 599 884 779 544 515 179 0 0 3 17 43 41 3 0 0 87 151 194 227 235 188 115 106 67 3 0 0 0 0
0 0 0 0 0 0 0 0 0 0 0 0 3 396 246 225 163 91 143 224 351 371 334 578 384 84 0 1 1 0 1 1 0 1 0 123 149 126 175 56 24 1 4 1 0 0 0 0 0
0 0 0 0 0 0 0 0 0 0 0 0 3 329 258 96 6 4 14 41 113 253 278 95 63 77 1 1 0 1 1 2 3 4 0 1 103 54 7 1 1 0 0 0 0 0 0 0 0
0 0 0 0 0 0 0 0 0 0 0 0 0 64 58 6 0 3 0 0 5 27 14 3 8 33 67 1 3 12 1 1 1 2 2 1 22 2 2 0 0 0 0 0 0 0 0 0 0
0 0 0 0 0 0 0 0 0 0 0 0 0 7 29 14 0 0 0 4 21 30 0 0 0 1 8 38 2 14 2 1 0 96 2 40 3 0 0 0 0 0 0 0 0 0 0 0 0
0 0 0 0 0 0 0 0 0 0 0 0 0 0 0 0 0 8 0 9 36 3 0 0 0 0 0 0 51 75 17 15 27 115 72 8 0 0 0 0 0 0 0 0 0 0 0 0 0
0 0 0 0 0 0 0 0 0 0 0 0 0 0 0 0 11 0 0 16 0 0 0 0 0 0 0 0 8 57 49 13 32 58 59 5 0 0 0 0 0 0 0 0 0 0 0 0 0
0 0 0 0 0 0 0 0 0 0 0 0 0 0 0 0 0 0 2 38 0 0 0 0 0 0 1 0 1 1 32 4 11 28 7 0 0 0 0 0 0 0 0 0 0 0 0 0 0
0 0 0 0 0 0 0 0 0 0 0 0 0 0 0 0 7 9 30 17 0 0 0 0 0 1 1 1 2 1 9 4 0 0 6 0 0 0 0 0 0 0 0 0 0 0 0 0 0
0 0 0 0 0 0 0 0 0 0 0 0 0 0 0 0 0 17 3 0 1 0 0 0 0 4 4 4 1 1 1 1 1 0 0 0 0 0 0 0 0 0 0 0 0 0 0 0 0
0 0 0 0 0 0 0 0 0 0 0 0 0 0 0 0 0 16 12 0 0 0 0 0 0 2 0 0 0 0 0 1 0 0 0 0 0 0 0 0 0 14 0 0 0 0 0 0 0
0 0 0 0 0 0 0 0 0 0 0 0 0 0 0 0 0 13 11 0 0 0 1 0 0 0 2 0 0 1 0 0 2 1 0 0 0 0 0 0 7 19 12 1 0 0 1 0 0
0 0 0 0 0 0 0 0 0 0 0 0 0 0 0 0 0 17 11 0 0 0 0 0 0 1 0 0 1 0 0 0 0 0 0 0 0 0 0 1 11 9 21 6 1 0 0 0 0
0 0 0 0 2 4 0 0 0 0 0 0 0 0 0 0 0 13 9 0 0 0 0 0 0 1 0 1 0 1 0 0 0 0 0 0 0 0 0 0 3 10 12 19 24 25 8 0 0
0 0 0 3 15 0 0 0 0 0 0 0 0 0 0 0 0 16 2 0 0 0 0 0 0 1 2 0 0 0 0 1 0 0 0 0 0 0 0 0 0 2 6 1 8 24 4 27 30
1 5 9 8 13 0 0 0 0 0 0 0 0 0 0 0 0 0 0 0 0 0 0 1 5 3 0 1 0 0 0 0 0 0 0 0 0 0 0 0 0 0 2 0 1 25 36 25 23
0 24 14 0 20 0 0 0 0 0 0 0 0 0 0 0 0 0 0 0 0 0 0 0 6 7 4 4 0 0 0 0 0 0 0 0 0 0 0 0 0 0 0 0 11 26 52 45 26
16 73 4 36 23 1 0 0 0 0 0 0 0 0 0 0 0 0 0 0 0 0 0 0 0 2 2 5 1 0 0 0 0 0 0 0 0 0 0 0 0 0 0 12 32 47 48 42 29
4 31 29 20 3 1 0 0 0 6 0 0 0 0 1 9 6 1 0 0 0 0 0 0 0 1 3 4 2 0 0 0 0 0 0 0 0 0 0 0 0 0 0 7 40 53 44 40 24
28 45 24 7 2 51 1 15 3 0 0 0 0 0 0 0 0 0 0 0 0 0 0 0 0 0 2 3 5 3 4 1 0 0 0 0 0 0 0 0 0 0 0 0 4 25 19 20 21
22 11 29 2 5 5 0 0 2 0 0 0 0 0 0 0 0 0 0 0 0 0 0 0 0 0 0 0 1 4 5 2 1 0 0 0 0 0 0 0 0 0 0 1 2 2 0 0 3

GFSSGP_con_sbcape_081.txt.gz
CAPE
0 0 0 0 0 0 0 0 0 0 0 0 0 0 0 0 0 0 65 672 1126 1218 1329 1446 1601 1792 1813 1720 1844 1873 1923 1966 1884 1774 1694 1620 1530 1439 1413 1490 1508 1446 1403 1323 1107 1130 980 712 1041
0 0 0 0 0 0 0 0 0 0 0 0 0 0 0 15 772 783 903 1302 1267 1400 1345 1451 1608 1789 1901 1860 1959 2029 2084 1995 1890 1763 1641 1570 1475 1456 1490 1505 1417 1458 1578 1458 1064 978 821 933 906
0 0 0 0 0 0 0 0 0 0 0 0 0 0 0 225 1026 914 766 1412 1194 1548 1440 1430 1619 1758 1910 1928 2019 2043 2027 1915 1787 1657 1652 1577 1482 1520 1592 1439 1380 1437 1514 1508 1052 1019 849 797 575
0 0 0 0 0 0 0 0 0 0 0 0 0 0 0 130 967 996 929 1440 1186 1432 1537 1455 1549 1723 1915 2011 2070 2070 1969 1735 1652 1620 1648 1632 1766 1734 1523 1345 1391 1454 1446 897 1360 1083 849 478 347
0 0 0 0 0 0 0 0 0 0 0 0 0 0 0 297 512 896 1229 1514 1192 1089 1463 1516 1474 1722 1934 2134 2127 2040 1852 1657 1598 1192 1326 1581 1550 1715 1608 1360 1267 1141 842 1064 1204 946 664 292 73
0 0 0 0 0 0 0 0 0 0 0 0 0 0 66 362 1050 1114 1118 1170 1070 913 1089 1553 1520 1710 1874 2034 1971 1640 752 604 348 146 334 969 888 962 999 1167 1292 1127 993 942 771 614 357 71 36
0 0 0 0 0 0 0 0 0 0 0 0 0 11 92 607 733 923 871 833 900 876 964 1280 1579 1742 1730 1827 1428 1030 282 50 18 5 1 190 202 292 597 1027 911 1034 886 607 503 261 38 126 18
0 0 0 0 0 0 0 0 0 0 0 0 1 56 218 481 502 543 667 724 899 814 858 882 1325 1730 1731 1319 375 403 149 53 32 26 10 0 34 236 433 415 596 702 667 339 219 20 50 45 1
0 0 0 0 0 0 0 0 0 0 0 0 0 46 32 172 316 395 506 414 645 820 757 703 885 1002 857 695 342 306 259 119 90 27 21 16 22 107 185 190 399 532 400 234 77 3 12 6 0
0 0 0 0 0 0 0 0 0 0 0 0 0 75 157 269 235 387 459 535 570 636 691 579 399 255 111 391 387 109 141 138 49 11 4 1 26 85 132 154 250 282 237 125 13 0 0 0 0
0 0 0 0 0 0 0 0 0 0 0 0 0 4 169 203 241 295 230 166 619 466 302 280 156 31 2 63 78 23 30 18 5 0 0 44 69 86 100 146 161 146 141 5 0 0 0 0 0
0 0 0 0 0 0 0 0 0 0 0 0 0 0 172 238 247 165 126 148 137 267 248 169 135 79 1 1 1 0 0 2 10 0 0 63 47 111 123 111 64 27 0 0 0 0 0 0 0
0 0 0 0 0 0 0 0 0 0 0 0 0 15 181 210 273 120 23 46 40 78 75 26 0 44 4 1 1 1 0 1 16 0 0 57 5 88 131 49 0 0 0 0 0 0 0 0 0
0 0 0 0 0 0 0 0 0 0 0 0 0 0 157 133 102 0 0 9 13 27 9 0 0 1 39 2 1 1 1 0 1 1 0 22 83 137 57 0 0 0 0 0 0 0 0 0 0
0 0 0 0 0 0 0 0 0 0 0 0 0 0 0 98 0 0 1 7 20 12 0 0 0 1 54 3 1 2 1 2 3 1 0 0 125 58 16 0 0 0 0 0 0 0 0 0 0
0 0 0 0 0 0 0 0 0 0 0 0 0 0 0 28 1 0 0 4 1 0 0 0 0 1 0 34 2 3 1 3 3 59 25 4 46 8 0 0 0 0 0 0 0 0 0 0 0
0 0 0 0 0 0 0 0 0 0 0 0 0 0 0 0 0 0 0 1 1 0 0 0 0 1 1 1 8 33 1 7 25 93 24 3 1 0 0 0 0 0 0 0 0 0 0 0 0
0 0 0 0 0 0 0 0 0 0 0 0 0 0 0 0 0 0 0 2 0 0 0 0 0 0 1 2 3 13 14 6 31 70 31 1 0 0 0 0 0 0 0 0 0 0 0 0 0
0 0 0 0 0 0 0 0 0 0 0 0 0 0 0 0 0 0 18 6 0 0 0 0 0 0 3 7 6 4 8 13 13 21 18 1 0 0 0 0 0 0 0 0 0 0 0 0 0
0 0 0 0 0 0 0 0 0 0 0 0 0 0 0 0 0 0 27 27 1 0 0 0 0 3 0 1 0 0 1 1 1 1 1 2 0 0 0 0 0 0 0 0 0 0 0 0 0
0 0 0 0 0 0 0 0 0 0 0 0 0 0 0 0 0 1 24 34 2 0 0 0 0 0 0 0 0 1 1 1 1 1 1 0 0 0 0 0 0 0 0 0 0 0 0 0 0
0 0 0 0 0 0 0 0 0 0 0 0 0 0 0 0 0 9 37 28 3 0 0 0 0 0 0 0 0 0 0 0 1 0 0 0 0 0 0 0 0 0 0 10 1 0 0 0 0
0 0 0 0 0 0 0 0 0 0 0 0 0 0 0 0 0 7 42 26 2 0 0 0 0 3 3 0 0 0 0 0 1 2 1 0 0 0 0 0 7 14 12 18 12 5 8 0 0
0 0 0 0 11 0 0 0 0 0 0 0 0 0 0 0 0 9 18 13 0 0 0 0 0 0 2 0 0 0 0 0 1 1 1 0 0 1 0 0 1 19 15 21 17 25 17 3 0
0 9 1 0 2 0 0 0 0 0 0 0 0 0 0 0 0 0 1 0 0 0 0 0 0 0 2 0 0 0 0 0 0 0 0 0 0 1 0 0 0 0 5 2 10 25 34 24 1
0 6 1 0 0 0 0 0 0 0 0 0 0 0 0 0 0 0 0 0 0 0 0 0 0 1 4 1 1 0 0 0 0 0 0 0 0 0 0 0 0 0 0 0 1 3 24 13 0
5 17 2 42 2 27 0 0 0 0 0 0 0 0 0 0 0 0 0 0 0 0 0 0 0 0 1 3 0 1 0 0 0 0 0 0 0 0 0 0 0 0 0 0 2 6 1 1 3
2 16 60 8 9 22 0 0 4 0 0 0 0 0 0 0 0 0 0 0 0 0 0 0 0 0 0 7 0 0 0 0 0 0 0 0 0 0 0 0 0 0 0 0 0 0 0 4 6
16 2 12 29 10 63 15 13 0 0 1 0 0 0 0 0 0 0 0 0 0 0 0 0 0 0 0 0 3 1 0 0 0 0 0 0 0 0 0 0 0 0 0 0 0 3 0 3 9
13 10 43 31 83 15 3 0 1 0 0 0 0 0 0 5 0 0 0 0 0 0 0 0 0 0 0 3 4 6 3 0 0 0 0 0 0 0 0 0 0 0 0 0 0 1 0 2 16

GFSSGP_con_sbcape_084.txt.gz
CAPE
0 0 0 0 0 0 0 0 0 0 0 0 0 0 0 0 0 0 11 707 887 927 1123 1302 1357 1545 1601 1689 1737 1891 2081 2276 2250 2087 1987 1967 1896 1765 1776 1846 1716 1767 1485 1030 1635 1662 1410 1227 1252
0 0 0 0 0 0 0 0 0 0 0 0 0 0 0 0 252 317 474 719 1076 1036 1126 1304 1488 1588 1284 1767 1783 1974 1812 2181 2226 2165 2096 2018 1920 1843 1897 1680 1600 1574 1657 1725 1685 1320 1259 1300 1142
0 0 0 0 0 0 0 0 0 0 0 0 0 0 0 0 647 563 551 1049 1239 1229 1154 1251 1544 1549 1259 1809 1823 1914 1992 1639 2104 2102 2149 2050 1981 1961 2007 1590 1668 1784 1792 1822 1462 1446 1389 1119 871
0 0 0 0 0 0 0 0 0 0 0 0 0 0 0 0 665 744 651 1256 1320 1346 1237 1245 1509 1583 1458 1830 1938 1933 1937 1811 1821 1930 2000 2075 2027 2018 1928 1643 1655 1550 1523 1732 1614 1535 1155 795 599
0 0 0 0 0 0 0 0 0 0 0 0 0 0 0 0 478 705 1284 1184 1202 1274 1261 1212 1384 1635 1500 1651 2021 1976 1797 1676 1741 1774 1400 1609 1434 1181 1533 1107 1138 1273 1309 1481 1370 1198 805 590 344
0 0 0 0 0 0 0 0 0 0 0 0 0 0 0 91 753 885 1357 1181 953 1133 1078 1030 1359 1654 1536 1633 1892 1752 1612 1625 1484 1307 1166 1172 1257 1157 973 1001 1070 1066 1108 1368 1084 779 577 358 165
0 0 0 0 0 0 0 0 0 0 0 0 0 0 0 95 610 821 1017 1019 958 812 1074 1105 1303 1729 1565 1661 1379 1012 889 672 748 744 775 922 814 753 726 1080 1027 703 950 902 703 493 334 168 71
0 0 0 0 0 0 0 0 0 0 0 0 0 0 0 8 425 631 725 693 614 681 768 917 1392 1656 1627 1468 596 349 205 208 258 300 231 148 102 123 418 652 636 907 708 755 514 209 252 115 25
0 0 0 0 0 0 0 0 0 0 0 0 0 0 0 1 206 477 547 630 734 592 623 771 1139 1397 1624 846 533 351 273 116 42 64 19 5 11 41 46 271 370 246 343 445 134 237 154 42 2
0 0 0 0 0 0 0 0 0 0 0 0 0 0 4 97 235 590 672 774 673 754 512 555 913 908 882 741 605 283 113 6 0 1 1 3 25 23 11 145 130 205 193 135 68 132 39 0 0
0 0 0 0 0 0 0 0 0 0 0 0 0 0 7 68 255 318 524 554 547 656 520 390 319 353 140 293 378 248 154 32 4 2 2 1 0 51 55 94 89 80 104 0 0 10 0 0 0
0 0 0 0 0 0 0 0 0 0 0 0 0 0 0 64 90 186 271 156 360 315 462 306 298 17 104 152 223 132 204 48 2 3 1 8 20 22 53 86 65 51 19 0 0 0 0 0 0
0 0 0 0 0 0 0 0 0 0 0 0 0 0 0 6 69 114 119 74 68 316 151 69 157 151 46 8 23 10 10 42 1 0 0 15 16 34 14 125 54 53 0 0 0 0 0 0 0
0 0 0 0 0 0 0 0 0 0 0 0 0 0 0 0 39 88 0 29 49 59 105 19 55 89 48 24 1 1 1 0 1 0 1 55 29 72 70 101 34 0 0 0 0 0 0 0 0
0 0 0 0 0 0 0 0 0 0 0 0 0 0 0 0 4 26 93 88 31 35 17 0 0 0 24 2 1 1 1 0 1 1 0 50 32 18 77 28 0 0 0 0 0 0 0 0 0
0 0 0 0 0 0 0 0 0 0 0 0 0 0 0 0 0 6 68 2 1 12 5 0 0 1 4 3 1 1 1 0 3 1 0 13 24 30 32 18 20 0 0 0 0 0 0 0 0
0 0 0 0 0 0 0 0 0 0 0 0 0 0 0 0 0 0 0 0 2 0 0 0 0 0 27 2 2 3 0 1 1 3 6 0 43 62 67 21 0 0 0 0 0 0 0 0 0
0 0 0 0 0 0 0 0 0 0 0 0 0 0 0 0 0 0 0 0 0 0 0 0 0 0 0 3 28 10 1 1 2 9 24 2 3 52 43 0 0 0 0 0 0 0 0 0 0
0 0 0 0 0 0 0 0 0 0 0 0 0 0 0 0 0 0 0 0 0 0 0 0 0 0 0 0 3 11 5 2 2 13 68 30 7 37 0 0 0 0 0 0 0 0 0 0 0
0 0 0 0 0 0 0 0 0 0 0 0 0 0 0 0 0 0 0 0 0 0 0 0 0 0 3 0 4 3 1 14 15 12 1 0 1 0 0 0 0 0 0 0 0 0 0 0 0
0 0 0 0 0 0 0 0 0 0 0 0 0 0 0 0 0 1 16 0 0 0 0 0 0 0 0 2 0 1 0 1 19 25 1 1 0 0 0 0 0 0 0 0 0 0 0 0 0
0 0 0 0 0 0 0 0 0 0 0 0 0 0 0 0 0 6 27 8 7 0 0 0 0 0 0 0 1 1 5 6 1 1 3 2 0 0 0 0 0 0 0 0 0 0 0 0 0
0 0 0 0 0 0 0 0 0 0 0 0 0 0 0 0 0 7 0 28 14 0 0 0 0 0 3 0 2 2 0 0 1 1 1 2 3 0 0 0 0 0 0 0 2 3 2 0 0
0 0 0 0 1 0 0 0 0 0 0 0 0 0 0 0 0 0 0 20 9 0 0 0 0 0 1 0 0 0 0 1 1 1 1 1 1 3 0 0 0 0 0 2 7 23 20 4 0
0 0 0 0 6 0 0 0 0 0 0 0 0 0 0 0 0 0 0 6 0 0 1 1 0 1 2 0 0 0 0 0 0 1 1 1 1 2 3 0 0 7 21 32 44 51 39 16 3
0 0 0 0 0 0 0 0 0 0 0 0 0 0 0 0 0 0 1 10 0 0 1 0 0 1 1 2 0 0 0 0 0 0 1 1 1 2 1 2 1 3 10 10 43 77 53 39 19
3 2 0 12 1 19 0 0 0 0 0 0 0 0 0 0 0 0 0 4 0 0 0 0 0 0 1 0 1 1 0 0 0 0 0 0 0 1 1 0 0 0 0 1 0 24 34 23 20
0 4 43 23 0 3 0 0 0 0 0 0 0 0 0 0 0 0 0 0 0 0 0 0 0 0 0 0 0 1 1 0 0 0 0 0 0 0 0 0 0 0 0 0 0 0 1 4 8
3 7 17 15 25 7 6 0 9 0 0 0 0 1 0 0 0 0 0 0 0 0 0 0 0 0 0 1 0 0 0 0 0 0 0 0 0 0 0 0 0 0 0 0 0 0 0 0 0
11 4 2 67 11 2 0 0 14 15 0 0 0 1 0 0 0 0 0 0 0 0 0 0 0 0 0 0 0 3 0 0 0 0 0 0 0 0 0 0 0 0 0 0 0 0 0 0 0

GFSSGP_con_sbcape_087.txt.gz
CAPE
0 0 0 0 0 0 0 0 0 0 0 0 0 0 0 0 0 0 37 1069 1236 1378 1401 1182 1027 1287 1605 1784 1802 2041 2263 2262 2255 2153 2094 2069 2054 1958 1923 1974 1943 1936 1985 1977 1889 2056 1807 1381 1444
0 0 0 0 0 0 0 0 0 0 0 0 0 0 0 0 2 103 396 1095 1261 1382 1508 1428 1062 1058 1595 1771 1890 1759 2438 2483 2353 2306 2243 2192 2087 2037 2080 2072 1955 1955 2054 2105 1892 1824 1617 1491 1319
0 0 0 0 0 0 0 0 0 0 0 0 0 0 0 0 503 328 391 1261 1352 1390 1384 1469 999 1101 1325 1727 1878 1653 1894 2356 2292 2290 2356 2299 2206 2214 2209 2037 1834 1871 2031 2061 1949 1735 1627 1354 1058
0 0 0 0 0 0 0 0 0 0 0 0 0 0 0 0 744 861 779 1473 1583 1376 1350 1082 1044 1112 1450 1723 1916 1653 1711 1882 2135 2187 2328 2321 2294 2211 1684 1604 1809 2039 2185 2050 1670 1684 1457 1115 911
0 0 0 0 0 0 0 0 0 0 0 0 0 0 0 7 509 894 1415 1545 1769 1539 1477 1249 1222 1162 1528 1735 1922 1943 1603 1568 2000 2133 2129 2175 2208 1683 1525 1268 1283 1355 1738 1738 1602 1330 1164 901 691
0 0 0 0 0 0 0 0 0 0 0 0 0 0 0 156 839 1203 1643 1756 1910 1567 1673 1151 1265 1336 1388 1687 1797 1732 1606 1619 1786 1958 1935 1627 1480 1273 1336 1244 962 1276 1552 1400 1298 1099 898 719 492
0 0 0 0 0 0 0 0 0 0 0 0 0 0 0 33 652 1244 1633 1671 1910 1507 1175 1053 1431 1767 1294 1495 1637 1509 1511 1611 1619 1442 1349 1395 1135 980 1132 1030 1000 939 1284 1125 972 831 612 505 249
0 0 0 0 0 0 0 0 0 0 0 0 0 0 0 0 713 1153 1462 1685 1794 1794 1042 1223 1421 1787 1811 1699 1333 1294 1149 1023 790 673 600 545 714 849 891 862 977 1021 1165 1023 777 572 411 231 68
0 0 0 0 0 0 0 0 0 0 0 0 0 0 0 24 862 1133 1170 1380 1731 1571 1473 1318 1637 1917 2006 1713 1033 827 786 627 562 593 240 153 705 664 556 371 409 445 655 610 494 328 200 61 3
0 0 0 0 0 0 0 0 0 0 0 0 0 0 0 147 824 1354 1281 1528 1394 960 938 1045 1530 1773 1987 1245 829 946 1148 1087 691 689 418 665 581 455 208 247 176 278 351 191 280 169 49 43 80
0 0 0 0 0 0 0 0 0 0 0 0 0 0 0 0 190 1236 1391 1309 1616 1338 880 857 1145 1515 1471 1030 838 540 446 550 613 79 41 213 180 85 67 143 127 147 106 71 253 167 200 109 72
0 0 0 0 0 0 0 0 0 0 0 0 0 0 0 0 0 286 1234 1264 1146 1353 1385 750 836 959 907 851 877 496 173 109 162 210 0 7 42 24 34 310 299 107 54 76 241 223 83 23 5
0 0 0 0 0 0 0 0 0 0 0 0 0 0 0 0 0 0 396 975 923 1160 1441 981 752 681 566 526 694 452 348 138 152 31 3 2 47 28 86 228 233 73 1 7 170 65 15 10 0
0 0 0 0 0 0 0 0 0 0 0 0 0 0 0 0 0 0 129 524 631 978 1155 1358 672 675 454 333 392 334 328 261 60 20 7 5 21 47 161 391 118 112 0 15 60 45 1 0 0
0 0 0 0 0 0 0 0 0 0 0 0 0 0 0 0 0 0 0 157 593 781 911 1050 676 669 620 291 191 98 43 89 1 1 2 6 20 137 200 153 169 21 0 0 50 33 0 0 0
0 0 0 0 0 0 0 0 0 0 0 0 0 0 0 0 0 0 0 20 286 543 666 757 460 255 470 484 171 52 2 2 2 2 2 38 63 164 125 107 60 5 0 7 7 0 1 0 0
0 0 0 0 0 0 0 0 0 0 0 0 0 0 0 0 0 0 0 0 187 424 541 610 476 99 241 355 172 38 3 2 2 5 3 51 62 98 114 43 10 0 0 10 0 0 0 4 1
0 0 0 0 0 0 0 0 0 0 0 0 0 0 0 0 0 0 0 0 82 348 475 517 324 158 412 326 183 95 9 8 3 5 19 66 68 137 96 26 1 1 3 1 0 0 0 0 1
0 0 0 0 0 0 0 0 0 0 0 0 0 0 0 0 0 0 0 0 105 264 329 232 189 45 152 257 229 84 7 7 5 7 31 22 65 76 43 1 1 1 13 0 0 0 0 5 0
0 0 0 0 0 0 0 0 0 0 0 0 0 0 0 0 0 0 0 6 71 151 202 107 132 49 12 184 197 134 44 15 13 7 45 21 40 81 2 0 1 1 29 0 0 0 1 1 4
0 0 0 0 0 0 0 0 0 0 0 0 0 0 0 0 0 0 0 26 69 61 103 27 78 23 15 6 6 12 18 13 37 17 12 27 16 46 1 0 1 10 2 0 0 0 0 0 2
0 0 0 0 0 0 0 0 0 0 0 0 0 0 0 0 0 0 0 41 40 28 5 31 17 10 10 8 9 14 14 26 3 40 1 0 1 2 0 0 1 0 0 0 0 0 0 28 22
0 0 0 0 0 0 0 0 0 0 0 0 0 0 0 0 0 0 0 36 30 6 3 0 4 0 2 7 12 15 8 13 33 4 1 1 2 1 0 0 0 0 0 0 0 0 0 43 46
0 0 0 0 0 1 0 0 0 0 0 0 0 0 0 0 0 0 6 54 69 2 2 2 2 2 3 4 12 10 20 15 10 3 5 3 1 2 0 0 0 0 0 0 0 0 0 6 38
0 0 0 0 3 0 0 0 0 0 0 0 0 0 0 0 0 8 59 89 79 6 4 5 2 3 8 11 12 10 8 13 11 1 3 5 3 3 9 2 0 0 0 0 0 0 0 0 36
0 0 0 0 0 0 0 0 0 0 0 0 0 0 0 9 0 0 52 76 27 3 4 3 1 2 6 7 5 5 3 3 2 1 1 2 3 3 0 0 0 0 0 0 0 3 16 30 82
2 2 0 2 2 8 0 0 0 0 5 0 0 0 0 0 0 0 24 58 15 12 2 1 0 1 5 7 6 4 2 1 3 2 0 2 5 3 3 0 0 0 0 0 0 0 1 24 70
1 20 23 6 0 1 0 0 0 13 0 0 0 0 0 0 6 0 6 39 10 22 3 3 2 1 4 7 6 1 0 0 1 0 1 1 1 4 5 4 3 2 2 0 0 0 0 8 21
22 4 4 25 26 18 8 0 69 18 0 0 0 0 0 0 21 11 7 28 4 3 4 3 3 1 5 3 8 2 0 0 0 1 4 1 0 0 1 2 2 5 4 0 0 0 0 13 19
17 6 6 2 16 30 5 0 9 0 0 0 1 0 0 0 9 7 0 2 4 3 3 3 3 0 1 3 10 13 5 0 0 0 0 0 2 4 2 1 1 1 1 1 3 0 0 5 15

GFSSGP_con_sbcape_090.txt.gz
CAPE
0 0 0 0 0 0 0 0 0 0 0 0 0 0 0 0 0 0 181 1134 1230 1476 1666 1338 1141 1458 1804 1890 2002 2135 2174 2198 2228 2234 2150 2153 2234 2292 2193 2205 2092 2122 2250 1981 1783 1758 1723 1607 1862
0 0 0 0 0 0 0 0 0 0 0 0 0 0 0 0 0 0 672 1374 1556 1493 1849 1732 1121 1382 1803 1927 2079 2243 2404 2425 2402 2320 2176 2324 2311 2255 2220 2166 2078 2173 2228 2219 1862 1872 1801 1708 1560
0 0 0 0 0 0 0 0 0 0 0 0 0 0 0 0 2 1 376 1372 1666 1569 1652 1858 1088 1122 1734 1924 2054 2216 2378 2367 2359 2350 2476 2453 2384 2361 2378 2173 2074 2188 2376 2325 2024 1909 1838 1599 1309
0 0 0 0 0 0 0 0 0 0 0 0 0 0 0 0 88 99 436 1382 1507 1376 1543 1057 909 1138 1683 1943 2018 1812 2245 2246 2226 2293 2472 2477 2456 2474 2346 2017 2085 2246 1956 2029 1933 1770 1665 1272 1129
0 0 0 0 0 0 0 0 0 0 0 0 0 0 0 0 159 942 647 1251 1156 1566 1653 1771 854 1127 1506 1963 2030 1631 1969 2092 2146 2296 2356 2374 2418 2306 1970 1889 2026 2056 2010 1760 1690 1764 1358 1106 931
0 0 0 0 0 0 0 0 0 0 0 0 0 0 0 17 424 1047 1220 1595 1520 1955 1993 1987 1069 1198 1389 1791 1955 1557 1638 1885 2087 2151 2175 2315 2133 1655 1653 1649 1684 1693 1569 1484 1465 1342 1106 889 690
0 0 0 0 0 0 0 0 0 0 0 0 0 0 0 0 394 1519 1699 1589 2039 2300 2215 1865 1732 1482 1219 1489 1726 1590 1349 1556 1905 1974 1930 1779 1454 1273 1457 1385 1557 1317 1364 1330 1272 1047 829 702 439
0 0 0 0 0 0 0 0 0 0 0 0 0 0 0 0 132 1655 2001 1990 2230 2396 2417 2072 1773 1835 1937 1925 1401 1523 1408 1436 1580 1407 1380 1256 1100 1115 1221 1123 1126 1272 1317 1222 1040 694 631 425 148
0 0 0 0 0 0 0 0 0 0 0 0 0 0 0 0 29 1021 2035 2212 2230 2526 2285 2208 1924 2127 1955 2180 2005 1315 1362 1248 825 918 709 1028 1831 1431 1006 594 455 629 794 888 720 450 287 114 24
0 0 0 0 0 0 0 0 0 0 0 0 0 0 0 0 0 11 982 1895 2084 2342 2657 1889 2316 2177 2225 2078 2319 2082 2011 1981 2012 1857 1611 1895 1492 1308 753 228 165 336 453 514 315 183 68 167 337
0 0 0 0 0 0 0 0 0 0 0 0 0 0 0 0 0 0 2 944 1481 1929 2341 1684 2180 2088 2353 2307 2090 2199 2311 2135 1833 1726 1667 1554 1436 950 765 483 442 499 275 296 209 123 482 366 349
0 0 0 0 0 0 0 0 0 0 0 0 0 0 0 0 0 0 0 0 1063 1510 2141 1879 1829 2256 2169 2323 1790 1700 1756 1976 1726 1657 1252 1231 820 855 642 171 171 240 354 231 127 230 520 308 246
0 0 0 0 0 0 0 0 0 0 0 0 0 0 0 0 0 0 0 0 59 1344 2108 2206 1861 2051 2128 1787 1529 1337 1381 1414 1468 1406 1083 773 510 479 280 117 197 481 184 104 84 183 316 313 237
0 0 0 0 0 0 0 0 0 0 0 0 0 0 0 0 0 0 0 0 0 647 1674 2401 1752 1839 1604 1664 1497 1174 1121 1022 1093 1188 662 890 213 252 180 214 407 544 231 117 98 134 311 280 232
0 0 0 0 0 0 0 0 0 0 0 0 0 0 0 0 0 0 0 0 2 296 1095 2155 2034 1441 1326 1336 1515 1358 1269 1108 842 735 254 397 48 148 200 180 166 392 186 35 72 215 303 250 200
0 0 0 0 0 0 0 0 0 0 0 0 0 0 0 0 0 0 0 0 0 78 671 1811 1909 1457 1472 1114 1052 1116 1215 992 676 517 190 10 23 81 444 150 108 235 94 29 65 202 273 207 172
0 0 0 0 0 0 0 0 0 0 0 0 0 0 0 0 0 0 0 0 0 7 539 1532 2061 1490 1481 1155 820 993 884 600 428 80 13 26 36 77 188 260 143 67 16 1 87 162 213 166 148
0 0 0 0 0 0 0 0 0 0 0 0 0 0 0 0 0 0 0 0 0 14 472 1150 1824 1557 1205 1186 1169 1020 728 358 288 19 9 15 61 93 141 90 49 4 2 1 59 165 201 187 140
0 0 0 0 0 0 0 0 0 0 0 0 0 0 0 0 0 0 0 0 0 13 545 953 1634 1135 1059 1127 1046 820 570 281 111 37 7 12 34 65 136 69 4 1 3 2 127 160 214 150 159
0 0 0 0 0 0 0 0 0 0 0 0 0 0 0 0 0 0 0 0 0 64 576 909 1394 797 1183 1404 1239 732 358 279 112 12 11 11 16 88 120 28 2 4 1 0 201 188 176 180 172
0 0 0 0 0 0 0 0 0 0 0 0 0 0 0 0 0 0 0 0 7 176 580 829 1213 949 1288 1056 817 565 444 242 190 30 12 10 34 112 51 3 4 6 8 2 130 201 150 110 162
0 0 0 0 0 0 0 0 0 0 0 0 0 0 0 0 0 0 0 0 8 266 516 743 978 1177 1018 845 716 608 424 182 129 23 23 41 3 48 17 2 2 3 11 45 130 221 212 196 135
0 0 0 1 2 0 0 0 0 0 0 0 0 0 0 0 0 0 0 0 0 278 562 644 941 873 686 582 565 370 186 113 234 188 53 41 33 6 4 2 3 2 16 109 161 187 189 113 154
16 6 4 1 1 0 0 0 0 0 0 0 0 0 0 0 0 0 0 0 15 388 176 382 747 731 558 474 328 276 172 32 103 21 31 3 1 5 1 1 1 0 2 73 89 43 196 194 212
27 12 9 25 15 0 0 0 0 0 5 0 1 0 0 0 22 8 14 102 267 328 3 173 535 505 340 307 207 146 76 81 92 12 3 4 4 1 1 1 0 0 6 40 28 48 143 130 202
8 15 15 0 0 3 0 0 5 0 9 22 5 0 0 0 119 139 57 350 446 105 4 42 170 362 177 122 85 51 132 73 53 11 9 2 5 3 3 2 1 5 6 6 9 28 27 64 140
42 49 18 25 1 8 0 0 1 12 42 11 1 0 0 0 341 320 170 389 593 241 6 23 194 296 160 55 30 53 74 29 21 6 6 6 5 5 9 6 12 11 0 0 9 8 0 31 97
79 53 24 55 19 6 2 0 60 28 6 0 0 0 0 0 364 457 47 351 576 287 7 25 173 203 63 44 8 24 14 20 29 32 8 9 6 5 3 2 3 1 0 0 0 0 0 0 0
72 63 47 43 41 39 23 57 130 1 0 0 0 3 6 9 87 307 285 233 369 174 7 19 67 23 14 14 2 15 10 16 17 16 11 2 6 5 3 2 2 0 0 0 0 0 2 30 4
49 46 52 64 43 25 7 9 0 7 0 0 0 12 9 2 2 18 6 103 44 3 13 10 10 0 10 6 9 11 1 12 9 9 15 0 4 7 7 3 6 5 2 0 0 0 0 0 0

GFSSGP_con_sbcape_093.txt.gz
CAPE
0 0 0 0 0 0 0 0 0 0 0 0 0 0 0 0 0 11 173 642 638 1006 1343 1287 1208 1529 1754 1851 1940 2093 2138 2142 2172 2214 2181 2237 2334 2409 2382 2365 2357 2391 2368 2045 1892 1825 1738 1623 1761
0 0 0 0 0 0 0 0 0 0 0 0 0 0 0 0 0 57 191 956 909 875 1480 1458 1221 1537 1846 1939 2038 2211 2365 2346 2264 2287 2256 2199 2423 2475 2463 2296 2317 2363 2326 2198 1996 1916 1898 1936 1741
0 0 0 0 0 0 0 0 0 0 0 0 0 0 0 0 0 0 511 996 800 637 1273 1846 1214 1482 1828 1963 2087 2239 2355 2302 2269 2288 2257 2413 2452 2471 2500 2245 2239 2388 2317 2383 2163 1877 1973 1796 1511
0 0 0 0 0 0 0 0 0 0 0 0 0 0 0 0 29 0 601 915 795 725 1027 935 972 1314 1795 1982 2155 2288 2298 2243 2212 2215 2287 2478 2402 2490 2412 1932 2288 2447 2461 2273 2183 1892 1765 1435 1293
0 0 0 0 0 0 0 0 0 0 0 0 0 0 0 0 0 166 491 703 727 898 1348 1783 871 1178 1727 2017 2099 1927 2106 2196 2167 2228 2291 2014 2394 1965 1807 1953 2200 1996 2196 2087 1953 1875 1487 1276 1156
0 0 0 0 0 0 0 0 0 0 0 0 0 0 0 0 28 192 352 839 821 1153 1531 1989 968 1155 1512 1871 1834 1517 1884 2082 2148 2198 2175 2252 2148 1699 1959 1993 1899 2015 1922 1665 1711 1436 1275 1120 971
0 0 0 0 0 0 0 0 0 0 0 0 0 0 0 0 128 766 772 1100 1191 1691 2038 2197 1610 1402 1183 1486 1704 1371 1639 1941 2002 2021 1940 1987 1858 1590 1818 1747 1541 1422 1624 1630 1440 1224 1021 922 581
0 0 0 0 0 0 0 0 0 0 0 0 0 0 0 0 3 928 1392 1394 1862 2263 2427 2382 2152 1868 1841 1812 1532 1447 1440 1590 1883 1631 1312 1414 1284 1282 1313 1281 1374 1329 1386 1308 1215 950 770 530 313
0 0 0 0 0 0 0 0 0 0 0 0 0 0 0 0 0 186 1739 2060 2217 2450 2570 2567 2255 2121 2067 1942 1785 1387 1327 1387 1353 1300 1105 1210 1841 1787 1454 1138 1046 955 847 673 703 544 397 221 137
0 0 0 0 0 0 0 0 0 0 0 0 0 0 0 0 0 0 340 1907 2196 2454 2456 2719 2495 2266 2183 1746 2093 1925 1915 1941 2059 1922 1894 2050 1668 1687 1164 705 376 376 411 477 398 239 169 227 504
0 0 0 0 0 0 0 0 0 0 0 0 0 0 0 0 0 0 0 126 1519 2110 2296 2527 2554 2557 2417 1875 1950 1968 2244 1990 2053 2092 1764 1601 1643 1691 1669 967 407 288 246 598 344 134 313 644 782
0 0 0 0 0 0 0 0 0 0 0 0 0 0 0 0 0 0 0 0 88 1299 1898 2679 2437 2592 2683 2328 1987 1892 1888 2424 2185 2260 2459 2215 1873 1888 1475 934 525 300 209 517 252 199 220 338 457
0 0 0 0 0 0 0 0 0 0 0 0 0 0 0 0 0 0 0 0 0 261 1547 2574 2270 2534 2572 2833 2402 2267 2244 2082 2172 2363 2141 1929 1676 1612 1152 518 529 663 325 120 87 119 165 168 278
0 0 0 0 0 0 0 0 0 0 0 0 0 0 0 0 0 0 0 0 0 0 559 2880 2628 2523 2468 2611 2528 2424 2207 2014 2102 1972 2151 1822 1774 1399 864 563 367 262 201 114 94 103 107 139 135
0 0 0 0 0 0 0 0 0 0 0 0 0 0 0 0 0 0 0 0 0 0 0 2567 3174 2359 2583 2341 2289 2097 2003 1978 1670 1910 2077 1796 1522 1158 817 445 439 805 177 279 84 80 61 99 140
0 0 0 0 0 0 0 0 0 0 0 0 0 0 0 0 0 0 0 0 0 0 0 637 2280 2235 2140 1954 2153 2004 1905 1983 1876 1555 1687 1552 1269 855 525 170 481 258 170 148 74 65 59 67 107
0 0 0 0 0 0 0 0 0 0 0 0 0 0 0 0 0 0 0 0 0 0 0 332 2034 2375 1847 1820 1905 1838 1857 1783 1818 1690 1347 1075 829 639 341 736 226 122 42 92 162 52 57 69 135
0 0 0 0 0 0 0 0 0 0 0 0 0 0 0 0 0 0 0 0 0 0 0 146 1649 2566 1718 1725 1566 1447 1517 1566 1168 1122 1165 732 629 485 620 327 120 282 39 71 100 47 49 104 148
0 0 0 0 0 0 0 0 0 0 0 0 0 0 0 0 0 0 0 0 0 0 0 214 1164 2517 1913 1378 1176 1375 1355 1008 987 630 510 559 373 179 110 85 137 91 1 27 24 41 42 63 282
0 0 0 0 0 0 0 0 0 0 0 0 0 0 0 0 0 0 0 0 0 0 0 256 794 1806 1735 1225 1465 1747 1402 1243 868 739 363 333 232 124 23 97 59 4 2 5 2 32 32 55 154
0 1 0 0 0 0 0 0 0 0 0 0 0 0 0 0 0 0 0 0 0 0 0 172 707 1490 1616 1691 1727 1610 1247 673 579 568 544 402 226 65 48 53 9 1 1 7 4 40 42 105 94
0 0 0 0 0 0 0 0 0 0 0 0 0 0 0 0 0 0 0 0 0 0 28 265 677 1516 1300 1694 1659 1550 793 569 639 615 417 122 15 11 21 10 3 4 2 2 4 37 47 92 111
0 4 3 0 0 0 2 0 0 0 0 0 0 0 0 0 0 0 0 0 0 0 44 426 749 1364 1375 1735 1562 1583 1188 1015 662 586 499 179 10 11 17 1 3 4 2 3 13 41 118 112 161
5 26 55 34 32 27 0 0 1 9 18 0 9 14 17 16 5 0 0 0 0 0 380 721 912 1183 1302 1485 1434 1379 1136 809 394 609 615 184 17 5 2 2 6 7 5 8 6 68 91 133 236
27 81 72 61 35 1 9 10 4 67 92 27 25 24 29 33 52 18 2 0 0 0 541 921 939 1146 1229 1265 1235 1147 878 594 382 361 378 12 4 2 12 2 2 9 3 6 28 63 172 271 256
47 56 59 39 37 36 34 1 10 140 78 26 34 41 39 16 155 256 125 122 100 239 783 447 954 1039 1136 1136 1045 753 557 342 354 347 50 7 2 2 0 7 3 9 7 3 39 120 185 174 227
73 102 31 44 24 56 8 27 186 108 32 12 29 34 12 2 6 483 315 182 500 771 159 181 907 1028 945 830 764 448 332 258 325 107 5 4 4 2 1 0 2 3 2 7 31 55 69 93 136
43 56 81 89 22 25 4 20 168 82 15 8 9 17 2 1 3 6 531 225 707 603 66 113 652 843 557 420 426 272 223 224 175 49 6 3 6 3 2 3 2 1 1 0 7 5 31 100 142
44 82 67 87 88 82 46 104 157 3 0 0 0 4 3 2 0 1 13 595 777 687 131 112 387 596 420 264 107 157 89 92 129 79 13 3 3 4 4 5 4 1 1 1 3 5 3 13 3
65 80 122 79 43 56 73 47 5 11 0 1 7 10 7 1 0 0 0 5 393 296 164 49 369 316 179 117 68 98 67 60 41 24 9 5 5 2 2 1 1 1 0 0 0 0 0 0 0

GFSSGP_con_sbcape_096.txt.gz
CAPE
0 0 0 0 0 0 0 0 0 0 0 0 0 0 0 0 9 198 328 629 1510 1000 1436 1388 1406 1619 1736 1838 1993 1860 1883 1958 2073 2092 2069 2124 2201 2241 2272 2247 2259 2420 2519 2210 1937 1876 1718 1810 1703
0 0 0 0 0 0 0 0 0 0 0 0 0 0 0 0 1 74 528 752 1510 1197 1179 1334 1279 1508 1738 1822 1906 2077 2129 2130 2151 2189 2198 2239 2309 2095 2212 2327 2315 2395 2354 2292 2007 1962 1878 1838 1654
0 0 0 0 0 0 0 0 0 0 0 0 0 0 0 0 0 45 713 906 1074 1174 1123 1316 1180 1434 1782 1855 1938 2107 2196 2145 2110 2177 2291 2279 2256 2255 2308 2114 2323 2311 2390 2398 2151 2113 2043 1718 1432
0 0 0 0 0 0 0 0 0 0 0 0 0 0 0 0 3 39 673 794 686 1066 1355 717 1083 1364 1752 1896 2000 2086 2167 2084 2083 2124 2232 2414 2278 2325 2112 2009 2326 2413 2035 2238 2225 2232 1850 1427 1272
0 0 0 0 0 0 0 0 0 0 0 0 0 0 0 0 30 459 851 709 805 1297 1911 1190 1073 1321 1703 1986 2100 2055 2077 2030 1949 2120 2185 2340 2290 2214 1827 1713 2071 2137 2076 2171 2025 1922 1519 1303 1201
0 0 0 0 0 0 0 0 0 0 0 0 0 0 0 0 0 303 934 1364 1608 2589 2360 1448 1050 1261 1560 1840 1810 1907 1981 1971 1975 2018 2157 2147 2188 1694 1694 1772 1843 1947 1918 1905 1578 1559 1367 1237 1134
0 0 0 0 0 0 0 0 0 0 0 0 0 0 0 0 247 947 920 1408 2146 2605 2658 1681 1325 1327 1321 1539 1459 1325 1498 1645 1961 1982 2067 2029 1923 1480 1635 1674 1578 1435 1477 1415 1537 1346 1183 1136 990
0 0 0 0 0 0 0 0 0 0 0 0 0 0 0 132 106 972 1479 1691 2527 2933 3062 2205 1872 1572 1418 1422 1344 1145 1375 1533 1801 1881 1905 1966 1650 1301 1492 1407 1331 1163 1255 1205 1199 967 868 839 739
0 0 0 0 0 0 0 0 0 0 0 0 0 0 0 0 4 859 1980 2239 2581 2959 2969 2876 2355 1965 1842 1709 1475 1059 1281 1392 1579 1637 1484 1274 1703 1490 1425 1292 1083 910 794 694 514 434 467 335 323
0 0 0 0 0 0 0 0 0 0 0 0 0 0 0 0 0 15 1414 2061 2400 2781 3068 2781 2702 2323 2221 1801 1704 1595 1659 1596 1705 1815 1835 1696 1786 1579 1339 991 736 610 574 443 414 310 149 135 221
0 0 0 0 0 0 0 0 0 0 0 0 0 0 0 0 0 0 1 1096 1937 2541 2530 2840 2578 2601 2550 1769 2057 1670 1737 1642 1779 1939 2008 2125 1610 1553 1246 522 419 384 342 265 215 186 150 263 281
0 0 0 0 0 0 0 0 0 0 0 0 0 0 0 0 0 0 0 0 23 2062 2601 2529 2649 2708 2707 2246 2151 1861 1780 1725 1837 1893 2032 1817 1571 1552 1254 792 418 193 145 145 185 126 130 105 231
0 0 0 0 0 0 0 0 0 0 0 0 0 0 0 0 0 0 0 0 0 46 2201 2649 2409 2679 2757 2681 2049 2249 1862 1832 1968 2114 2115 1944 1634 1553 1237 1000 520 183 79 151 132 67 31 91 100
0 0 0 0 0 0 0 0 0 0 0 0 0 0 0 0 0 0 0 0 0 0 246 2716 2443 2630 2524 2467 2452 2132 2413 2323 2151 2079 2015 1916 1747 1613 1201 896 508 376 219 197 72 60 5 32 71
0 0 0 0 0 0 0 0 0 0 0 0 0 0 0 0 0 0 0 0 0 0 0 2767 2551 2496 2566 2493 2484 2302 2040 1942 2038 2008 1945 1798 1626 1444 1054 836 544 406 307 73 34 39 15 66 81
0 0 0 0 0 0 0 0 0 0 0 0 0 0 0 0 0 0 0 0 0 0 0 2270 2807 2539 2528 2457 2276 1679 2049 1855 1683 1676 1941 1839 1689 1318 1054 767 574 358 194 131 104 65 76 53 37
0 0 0 0 0 0 0 0 0 0 0 0 0 0 0 0 0 0 0 0 0 0 0 129 2832 2760 2340 2192 1642 1419 1613 1817 1536 1437 1435 1723 1616 1216 863 556 507 316 188 136 79 47 46 11 39
0 0 0 0 0 0 0 0 0 0 0 0 0 0 0 0 0 0 0 0 0 0 0 35 2978 2669 2255 2048 1558 1535 1375 1321 1638 1521 1294 1198 1278 1046 777 509 346 253 126 98 51 25 11 10 16
0 0 0 0 0 0 0 0 0 0 0 0 0 0 0 0 0 0 0 0 0 0 0 61 1807 2601 2146 1820 1495 1358 1298 1227 1179 1387 1351 1168 886 684 635 378 227 135 68 72 42 19 23 22 47
0 0 0 0 0 0 0 0 0 0 0 0 0 0 0 0 0 0 0 0 0 0 0 31 1191 2460 1905 1664 1448 1191 1020 1052 991 785 784 760 622 474 431 351 175 28 27 13 45 23 20 30 40
1 2 0 0 0 0 0 0 0 0 0 0 0 0 0 0 0 0 0 0 0 0 9 37 457 2481 2132 1692 1193 1166 1102 1213 1054 772 472 441 475 331 247 234 112 33 7 29 36 9 3 23 23
0 0 6 1 0 0 0 0 0 1 2 0 0 0 0 8 0 0 0 0 0 0 13 0 161 729 2225 1449 1238 1411 1431 1030 729 570 454 369 301 278 235 125 44 22 3 8 14 6 3 5 15
19 24 13 10 2 10 0 0 0 0 0 0 7 24 27 31 12 1 0 0 0 0 54 67 199 454 1872 1450 1429 1495 1316 838 563 484 464 302 223 217 134 64 28 17 5 5 13 16 7 5 7
68 9 11 9 9 5 0 11 2 1 6 101 134 97 98 69 48 43 8 0 0 0 34 281 476 948 1695 1565 1524 1740 1107 980 774 512 554 306 128 45 36 19 11 1 1 2 4 5 15 6 10
108 93 40 46 36 10 0 2 7 0 179 173 157 148 85 60 44 111 56 23 0 0 175 616 637 845 1520 1377 1564 1730 1266 1182 1017 575 464 427 130 19 5 8 7 2 1 1 2 6 9 4 16
128 102 67 13 22 12 0 0 0 49 155 166 129 112 21 4 1 1 1 304 113 75 873 914 834 900 1531 1309 1583 1363 967 988 673 356 501 197 20 1 4 1 1 2 1 3 20 12 2 5 17
71 109 57 51 0 11 25 2 105 51 21 96 81 33 5 0 0 0 0 0 416 1065 1042 843 777 901 1411 1188 988 912 920 490 387 378 210 27 0 0 0 1 1 2 2 5 17 18 1 1 32
94 84 98 55 88 30 15 2 9 37 81 1 0 18 1 0 0 0 0 0 134 442 253 197 688 858 1018 771 738 557 293 291 331 200 29 0 2 1 1 0 2 4 2 7 5 15 17 21 34
95 86 17 28 33 1 41 82 15 0 0 1 34 14 0 0 0 0 0 0 4 217 12 11 337 499 463 467 405 194 154 188 211 135 2 2 1 1 1 1 1 1 5 2 5 4 13 31 35
40 83 84 37 20 37 41 24 18 40 0 20 29 14 0 0 0 0 0 0 0 1 11 0 99 159 327 228 157 112 94 176 228 60 4 1 1 2 3 2 1 0 0 3 0 0 1 22 22

GFSSGP_con_sbcape_099.txt.gz
CAPE
0 0 0 0 0 0 0 0 0 0 0 0 0 0 0 0 137 286 709 942 1022 959 1146 1265 1444 1653 1745 1682 1588 1567 1721 1890 1937 1854 1843 1946 2018 2061 2025 2108 2302 2396 2437 2012 1965 1865 1900 1724 1723
0 0 0 0 0 0 0 0 0 0 0 0 0 0 0 0 90 620 1119 866 1078 1220 1188 1247 1365 1535 1717 1785 1678 1697 1908 2006 2034 1976 2005 2110 2151 2174 2137 2103 2182 2444 2501 2183 2018 1925 1725 1681 1645
0 0 0 0 0 0 0 0 0 0 0 0 0 0 0 0 129 234 1173 903 963 974 1221 1329 1371 1501 1623 1708 1818 1784 1916 1922 1981 2001 2155 2237 2251 2281 2257 2071 2145 2398 2341 2193 2073 2031 1813 1596 1415
0 0 0 0 0 0 0 0 0 0 0 0 0 0 0 10 264 487 1124 1043 834 849 1218 1071 1247 1460 1627 1719 1824 1873 1863 1810 1870 1942 2149 2264 2302 2370 2234 1994 2224 2349 2251 2311 2447 2232 1716 1351 1229
0 0 0 0 0 0 0 0 0 0 0 0 0 0 0 262 702 737 587 772 733 1091 936 979 1219 1441 1620 1794 1871 1897 1904 1829 1868 1903 1978 2159 2265 2226 2032 1895 2073 2046 2183 2262 1963 1843 1479 1271 1145
0 0 0 0 0 0 0 0 0 0 0 0 0 0 0 54 574 568 420 513 1544 1452 1027 1050 1292 1453 1593 1672 1688 1813 1846 1769 1601 1866 1935 2098 2126 1901 1709 1697 1682 1851 1922 1842 1691 1513 1349 1232 1134
0 0 0 0 0 0 0 0 0 0 0 0 0 0 0 623 199 512 550 1708 1798 1701 1102 1019 1220 1404 1467 1494 1578 1683 1819 1792 1339 1606 1912 2037 1929 1626 1588 1646 1538 1591 1599 1351 1473 1317 1204 1210 1048
0 0 0 0 0 0 0 0 0 0 0 0 0 0 0 217 614 650 681 1734 2121 1728 1233 931 989 1118 971 1021 1325 1406 1656 1380 1409 1555 1685 1836 1743 1400 1487 1398 1276 1204 1400 1445 1075 898 853 885 670
0 0 0 0 0 0 0 0 0 0 0 0 0 0 36 130 572 902 1181 1539 2231 2054 1534 1208 1164 1067 901 923 977 1118 1209 1171 1353 1586 1430 1383 1299 1136 1256 1226 1142 1068 1111 820 692 594 450 404 166
0 0 0 0 0 0 0 0 0 0 0 0 0 0 0 21 173 937 1267 1578 2025 2249 2072 1574 1373 1289 1073 1345 1079 792 1111 1099 1352 1546 1359 1116 1194 1121 1251 1056 838 655 572 299 298 240 243 302 180
0 0 0 0 0 0 0 0 0 0 0 0 0 0 0 0 0 410 1231 1410 2076 2319 2504 1976 1839 1529 1426 1485 995 1062 1020 1051 1128 1210 1252 1139 1294 1058 605 277 326 285 279 120 5 18 111 162 161
0 0 0 0 0 0 0 0 0 0 0 0 0 0 0 0 0 0 0 1323 1480 2191 2566 2176 2018 1938 1688 1263 1056 1057 1163 1051 1167 1261 1270 1346 933 658 275 190 115 175 107 39 0 46 139 143 248
0 0 0 0 0 0 0 0 0 0 0 0 0 0 0 0 0 0 0 0 114 1610 2351 2323 1917 2079 2061 1445 1455 1149 1271 1199 1202 1219 1214 1142 811 719 363 213 141 145 85 15 0 10 19 75 102
0 0 0 0 0 0 0 0 0 0 0 0 0 0 0 0 0 0 0 0 0 0 2147 2405 2109 2061 2004 1985 1409 1289 1227 1101 1248 1280 1334 1096 876 841 536 341 208 122 140 12 6 2 0 35 64
0 0 0 0 0 0 0 0 0 0 0 0 0 0 0 0 0 0 0 0 0 0 5 2198 2329 2183 2184 2005 1629 1414 1339 1197 1314 1386 1334 1070 948 868 659 574 420 371 156 110 17 0 0 6 48
0 0 0 0 0 0 0 0 0 0 0 0 0 0 0 0 0 0 0 0 0 0 0 2064 2251 2200 2308 2137 1855 1534 1349 1223 1162 1257 1330 1079 842 793 624 556 474 394 214 165 45 14 1 2 24
0 0 0 0 0 0 0 0 0 0 0 0 0 0 0 0 0 0 0 0 0 0 0 1392 2269 2172 2246 1930 1863 1597 1527 1144 993 927 1144 1091 918 805 651 574 577 454 329 128 56 37 3 12 18
0 0 0 0 0 0 0 0 0 0 0 0 0 0 0 0 0 0 0 0 0 0 0 221 2313 2121 2082 1845 1423 1098 1241 1367 865 786 995 1052 995 698 523 410 380 312 178 122 40 59 46 65 33
0 0 0 0 0 0 0 0 0 0 0 0 0 0 0 0 0 0 0 0 0 0 0 29 2379 2073 2043 1801 1438 1218 1218 1272 1211 1007 798 1059 1122 788 697 569 438 279 180 54 35 40 64 23 22
0 0 0 0 0 0 0 0 0 0 0 0 0 0 0 0 0 0 0 0 0 0 0 69 2411 2146 2027 1857 1544 1314 1183 1027 954 986 907 935 836 770 655 534 394 289 136 60 17 13 30 24 6
0 0 0 0 0 0 0 0 0 0 0 0 0 0 0 0 0 0 0 0 0 0 0 908 2398 2113 1897 1596 1148 772 680 723 750 690 757 713 736 607 470 399 258 228 149 72 32 1 20 5 15
0 0 0 0 0 0 0 0 0 0 0 0 0 0 0 0 0 0 0 0 0 0 0 753 2327 1913 1502 1224 1244 803 914 875 857 775 576 498 533 459 348 317 193 153 95 36 21 1 7 13 11
0 0 0 0 9 0 0 0 0 0 0 0 0 0 0 0 4 5 0 0 0 0 0 102 2179 1804 1488 1169 1054 904 769 599 620 484 380 411 342 351 216 192 175 118 30 6 16 9 1 0 10
0 0 21 0 0 2 0 0 0 0 0 0 80 127 85 15 0 0 0 0 0 0 0 0 1484 1996 1416 1004 805 764 785 604 315 318 350 350 258 225 170 166 141 101 53 10 8 8 0 3 1
10 9 21 0 5 0 0 0 0 0 0 0 78 15 0 0 0 0 0 0 0 0 0 0 74 1835 1255 936 880 814 749 511 222 169 276 176 165 141 106 110 79 45 9 10 13 6 12 1 0
20 35 37 0 0 0 0 0 0 0 1 17 0 0 0 0 0 0 0 0 0 15 1 16 851 1505 1180 1068 925 864 805 706 553 252 264 207 175 67 8 22 24 33 9 6 7 21 17 5 0
49 20 0 8 46 0 1 7 66 23 80 0 1 0 0 0 0 0 0 0 0 0 0 9 117 675 957 761 806 955 859 657 260 303 224 68 12 18 31 12 7 4 2 3 14 9 8 6 1
69 68 42 30 25 3 73 32 5 9 5 9 0 0 0 0 0 0 0 0 0 0 0 0 13 25 571 656 580 428 182 173 142 79 8 0 0 0 0 1 7 6 1 1 2 5 2 17 3
11 5 13 31 20 27 4 18 7 7 30 26 1 0 0 0 0 0 0 3 3 2 0 0 0 0 47 357 110 70 67 101 69 19 0 0 0 0 1 0 1 1 1 2 7 2 8 12 1
21 0 1 0 10 29 33 3 7 21 26 10 5 0 0 0 0 0 0 1 2 1 0 0 0 0 0 1 37 14 76 118 98 6 0 0 0 0 0 2 1 1 1 2 18 1 2 0 5

GFSSGP_con_sbcape_105.txt.gz
CAPE
0 0 0 0 0 0 0 0 0 0 0 0 0 0 0 0 0 0 244 705 830 1091 1259 1356 1568 1646 1620 1635 1582 1630 1668 1674 1725 1803 1824 1882 2007 2079 2096 2122 2164 2110 2122 1795 1743 1802 1833 1754 1763
0 0 0 0 0 0 0 0 0 0 0 0 0 0 0 0 139 807 762 831 959 1202 1269 1366 1507 1656 1681 1641 1655 1755 1891 1782 1747 1825 1943 2025 2146 2178 2177 2106 2056 2157 2260 1901 1924 1893 1857 1781 1712
0 0 0 0 0 0 0 0 0 0 0 0 0 0 0 0 504 791 723 904 1086 1283 1321 1365 1490 1621 1671 1666 1713 1791 1844 1717 1711 1817 2073 2144 2251 2335 2296 2070 2095 2272 2329 1937 1625 1713 1741 1643 1413
0 0 0 0 0 0 0 0 0 0 0 0 0 0 0 0 795 789 1071 1078 1168 1341 1378 1378 1436 1577 1699 1787 1799 1826 1737 1606 1623 1787 2092 2238 2318 2395 2247 2054 2218 2377 2353 2036 1721 1536 1559 1272 1178
0 0 0 0 0 0 0 0 0 0 0 0 0 0 0 68 527 1083 1150 1186 1119 1213 1238 1349 1422 1582 1733 1885 1899 1845 1699 1580 1628 1801 1975 2198 2280 2293 2103 2015 2248 2309 2217 2262 1907 1624 1272 1102 1076
0 0 0 0 0 0 0 0 0 0 0 0 0 0 0 263 898 972 1064 1024 1088 1180 1260 1394 1472 1637 1764 1853 1831 1786 1649 1608 1646 1774 1915 2194 2200 2040 1968 1818 1983 2097 2101 1822 1680 1289 1146 1017 1008
0 0 0 0 0 0 0 0 0 0 0 0 0 0 0 636 886 777 586 579 923 1037 1193 1365 1535 1613 1684 1809 1722 1673 1605 1633 1663 1746 1830 2026 2030 1873 1869 1817 1841 1926 1921 1639 1369 1150 1050 1016 894
0 0 0 0 0 0 0 0 0 0 0 0 0 0 0 17 422 541 549 837 804 826 1025 1231 1330 1562 1523 1521 1580 1556 1585 1566 1625 1667 1734 1777 1804 1762 1762 1708 1677 1500 1405 1300 1273 1027 981 902 563
0 0 0 0 0 0 0 0 0 0 0 0 0 0 0 9 867 1336 1276 1209 975 837 891 1125 1288 1355 1318 1409 1432 1541 1614 1521 1593 1634 1682 1530 1513 1434 1547 1485 1485 1141 1345 1092 1028 879 738 598 316
0 0 0 0 0 0 0 0 0 0 0 0 0 0 0 0 95 1257 1350 1146 1239 1060 864 952 1194 1072 942 1210 1414 1596 1594 1401 1207 1466 1520 1552 1256 1109 1261 1188 1333 1090 1005 890 870 648 387 239 116
0 0 0 0 0 0 0 0 0 0 0 0 0 0 0 0 0 0 659 1552 1405 1341 1034 1005 1065 993 965 1311 1251 1258 1271 1064 973 1074 1102 1377 1151 1012 1040 796 660 569 657 337 354 222 100 68 65
0 0 0 0 0 0 0 0 0 0 0 0 0 0 0 0 0 0 0 358 1701 1706 1424 1158 976 1033 1152 1162 1261 1340 1417 993 1092 1049 1083 1185 1233 1007 847 643 243 227 137 45 35 13 24 57 37
0 0 0 0 0 0 0 0 0 0 0 0 0 0 0 0 0 0 0 0 586 1391 1799 1340 1084 1070 1154 1065 998 1136 1264 1164 1053 987 1125 1204 1420 1107 673 300 222 164 34 29 10 12 16 38 33
0 0 0 0 0 0 0 0 0 0 0 0 0 0 0 0 0 0 0 0 0 541 1792 1792 1283 1149 1123 1050 922 887 966 1004 811 904 1039 1259 1369 905 641 265 216 191 52 26 33 15 16 54 91
0 0 0 0 0 0 0 0 0 0 0 0 0 0 0 0 0 0 0 0 0 0 1352 2031 1769 1457 1287 1202 917 822 877 863 770 831 1032 1253 1105 528 400 312 262 243 68 37 32 14 35 87 133
0 0 0 0 0 0 0 0 0 0 0 0 0 0 0 0 0 0 0 0 0 0 5 1921 2221 1914 1605 1384 1239 995 898 858 895 866 1004 1178 999 393 227 205 282 194 76 35 36 45 103 222 231
0 0 0 0 0 0 0 0 0 0 0 0 0 0 0 0 0 0 0 0 0 0 0 188 2330 2169 2053 1629 1445 1249 986 921 851 871 958 1052 883 403 307 173 182 107 101 84 66 129 154 161 183
0 0 0 0 0 0 0 0 0 0 0 0 0 0 0 0 0 0 0 0 0 0 0 0 1458 2310 2254 2008 1464 1251 955 1102 939 989 954 809 854 461 350 137 119 103 135 204 208 169 140 106 89
0 0 0 0 0 0 0 0 0 0 0 0 0 0 0 0 0 0 0 0 0 0 0 0 283 2168 2182 2093 1787 1486 1340 1210 1019 1031 1013 659 801 494 419 236 183 176 161 233 267 226 161 58 17
0 0 0 0 0 0 0 0 0 0 0 0 0 0 0 0 0 0 0 0 0 0 0 0 87 1618 2063 2185 2062 1780 1547 1253 1170 1012 889 854 631 438 452 395 262 255 232 206 253 209 186 119 30
0 0 0 0 0 0 0 0 0 0 0 0 0 0 0 0 0 0 0 0 0 0 0 0 9 790 1873 2126 1996 956 694 757 824 770 966 939 649 443 334 370 373 339 369 303 278 198 157 148 101
0 0 0 0 0 0 0 0 0 0 0 0 0 1 0 0 0 0 0 0 0 0 0 0 0 643 1592 2001 1883 1446 1471 1359 1297 1198 1100 1158 834 602 493 302 357 391 383 328 242 178 129 112 70
0 0 0 0 0 0 0 0 0 0 0 0 12 165 0 0 0 0 0 0 0 0 0 0 0 242 1334 1940 1869 1568 1410 1258 964 999 966 934 748 577 533 354 331 349 353 292 188 132 94 69 64
0 0 0 0 0 1 0 0 0 0 0 0 56 0 0 0 0 3 2 0 0 0 0 0 523 743 1629 2012 1828 1539 1400 1038 888 915 983 774 540 550 478 369 357 309 311 272 211 150 92 60 19
0 0 0 0 0 0 0 0 0 53 99 44 1 0 0 0 1 8 12 5 2 0 0 0 368 1941 1867 2029 1831 1568 1320 811 791 854 924 734 506 319 346 298 280 268 318 285 241 156 99 52 10
0 0 0 2 0 0 1 2 19 20 7 6 4 1 0 0 0 12 15 11 6 2 0 0 0 59 2034 1892 1716 1471 876 525 559 556 670 410 372 388 225 210 232 280 269 255 227 174 104 55 31
0 0 0 4 0 0 0 0 61 4 8 9 5 8 5 2 0 2 4 9 9 6 2 1 0 0 0 1599 1397 1098 440 225 282 228 225 227 85 0 38 148 198 191 218 217 141 107 58 54 41
0 0 24 15 17 2 0 30 3 7 13 30 8 15 12 3 0 1 1 3 6 7 7 1 1 1 2 36 794 427 263 175 56 6 0 0 0 0 0 0 31 72 131 126 119 102 51 56 24
14 35 5 2 6 17 0 1 19 13 15 20 12 2 9 8 2 2 1 2 2 7 4 9 2 2 5 3 6 218 145 53 18 13 0 0 0 0 0 0 2 16 61 85 109 110 89 61 46
0 0 36 17 0 5 27 2 40 17 12 14 4 3 2 6 1 2 1 2 6 4 2 4 12 4 3 3 1 21 29 23 24 1 0 0 0 0 0 0 1 1 1 10 42 55 32 19 34

GFSSGP_con_sbcape_108.txt.gz
CAPE
0 0 0 0 0 0 0 0 0 0 0 0 0 0 0 0 0 0 171 544 696 964 1189 1403 1623 1703 1639 1578 1526 1567 1722 1829 1905 1908 1949 1994 2055 2071 2076 2089 2119 2146 2076 1901 1771 1773 1628 1708 1756
0 0 0 0 0 0 0 0 0 0 0 0 0 0 0 0 1 462 781 773 947 1182 1260 1429 1514 1772 1829 1683 1664 1687 1881 1894 1841 1927 1990 2066 2139 2168 2162 2095 1983 2107 2155 2117 1805 1811 1754 1676 1629
0 0 0 0 0 0 0 0 0 0 0 0 0 0 0 0 20 561 580 890 1153 1220 1272 1493 1618 1724 1843 1805 1803 1769 1738 1701 1767 1865 2058 2176 2224 2259 2208 1980 2002 2211 2315 2186 1973 1897 1791 1533 1396
0 0 0 0 0 0 0 0 0 0 0 0 0 0 0 0 206 585 905 1074 1251 1279 1352 1493 1614 1719 1834 1893 1938 1876 1648 1528 1661 1847 2064 2270 2343 2344 2148 1964 2119 2310 2294 1678 1525 1833 1638 1217 1171
0 0 0 0 0 0 0 0 0 0 0 0 0 0 0 0 570 1048 1082 1230 1301 1351 1371 1476 1549 1714 1869 2019 2049 1913 1609 1507 1667 1889 2019 2223 2363 2316 2035 1989 2105 2170 2113 1807 1384 1750 1316 1115 1055
0 0 0 0 0 0 0 0 0 0 0 0 0 0 0 0 668 952 1119 1093 1176 1330 1322 1458 1551 1688 1845 1974 1962 1805 1597 1560 1661 1876 1993 2189 2246 2096 1980 1834 2022 1948 1977 1707 1621 1334 1178 1060 944
0 0 0 0 0 0 0 0 0 0 0 0 0 0 0 0 391 651 545 703 915 1087 1411 1487 1589 1705 1766 1836 1801 1707 1621 1622 1661 1792 1986 2057 1996 1891 1883 1892 1810 1820 1682 1551 1331 1121 1021 1012 741
0 0 0 0 0 0 0 0 0 0 0 0 0 0 0 0 204 486 543 561 756 964 1278 1362 1483 1594 1528 1586 1603 1614 1633 1612 1646 1690 1882 1880 1741 1721 1788 1713 1677 1503 1497 1407 1181 963 916 868 478
0 0 0 0 0 0 0 0 0 0 0 0 0 0 0 0 905 935 838 740 601 791 1045 1264 1247 1500 1475 1510 1467 1524 1575 1599 1634 1651 1701 1630 1579 1516 1615 1548 1565 1449 1326 1223 1038 872 826 655 334
0 0 0 0 0 0 0 0 0 0 0 0 0 0 0 0 360 1053 1163 857 779 629 708 992 1064 1346 1464 1494 1537 1640 1673 1649 1619 1619 1550 1397 1290 1264 1458 1396 1393 1162 1029 1061 934 799 635 409 76
0 0 0 0 0 0 0 0 0 0 0 0 0 0 0 0 0 420 413 1153 1183 989 735 729 975 1178 1179 1345 1385 1533 1582 1409 1324 1402 1491 1496 1152 1072 1158 1116 1047 736 806 731 730 472 368 125 26
0 0 0 0 0 0 0 0 0 0 0 0 0 0 0 0 0 0 0 115 904 1612 1175 841 809 917 944 1050 1307 1150 1307 1151 1125 1107 1264 1294 1227 1144 940 855 587 499 363 150 201 113 40 42 40
0 0 0 0 0 0 0 0 0 0 0 0 0 0 0 0 0 0 0 0 15 1298 1775 1368 877 892 781 1095 1192 1121 1185 1344 1229 1074 964 1208 1443 1397 1165 708 479 371 52 39 21 10 19 13 34
0 0 0 0 0 0 0 0 0 0 0 0 0 0 0 0 0 0 0 0 0 35 1195 1619 1167 967 1033 1121 1030 1087 1225 1393 1287 1124 978 1032 1406 1363 1064 634 595 160 93 30 23 23 28 22 33
0 0 0 0 0 0 0 0 0 0 0 0 0 0 0 0 0 0 0 0 0 0 0 1504 1606 1183 995 989 798 836 1012 1156 1166 969 885 1041 1124 1276 1030 689 596 449 40 16 8 1 0 8 30
0 0 0 0 0 0 0 0 0 0 0 0 0 0 0 0 0 0 0 0 0 0 0 0 1753 1426 1210 1068 985 742 720 859 769 733 853 1122 1048 1012 769 642 570 395 61 15 13 1 7 18 90
0 0 0 0 0 0 0 0 0 0 0 0 0 0 0 0 0 0 0 0 0 0 0 0 827 1685 1423 1263 1133 805 787 782 811 750 704 923 1045 872 647 634 477 225 83 47 24 10 28 51 98
0 0 0 0 0 0 0 0 0 0 0 0 0 0 0 0 0 0 0 0 0 0 0 0 12 1569 1704 1678 1354 1130 863 785 797 839 735 817 900 788 768 451 333 163 110 70 40 37 71 101 103
0 0 0 0 0 0 0 0 0 0 0 0 0 0 0 0 0 0 0 0 0 0 0 0 0 34 1780 1913 1755 1612 1159 1164 966 864 859 924 934 763 700 405 218 122 125 99 63 77 75 39 33
0 0 0 0 0 0 0 0 0 0 0 0 0 0 0 0 0 0 0 0 0 0 0 0 0 0 1172 1459 1856 1767 1687 1468 1306 1086 891 842 909 696 633 470 296 149 136 153 131 110 104 65 21
0 0 0 0 0 0 0 0 0 0 0 0 0 0 0 0 0 0 0 0 0 0 0 0 0 0 434 1391 1965 1675 1573 1299 1068 969 987 927 841 729 655 534 383 247 133 218 191 163 133 122 40
0 0 0 0 0 0 0 0 0 0 0 0 0 0 0 0 0 0 0 0 0 0 0 0 0 0 459 1649 1911 1711 1585 1511 1199 1191 1102 921 808 740 707 626 404 279 261 245 193 181 154 82 106
0 0 0 0 0 0 0 0 0 0 0 0 0 0 0 0 0 0 0 0 0 0 0 0 0 0 0 1499 1747 1846 1658 1392 1241 1328 1039 970 762 744 699 595 524 422 354 297 229 184 163 87 105
0 0 0 0 0 0 0 0 0 0 4 6 2 0 5 1 0 0 0 0 0 0 0 0 0 0 0 1379 1822 1816 1598 1309 1107 1314 1156 913 1018 845 686 586 500 464 401 367 239 175 141 125 95
0 0 0 0 0 0 0 0 0 5 12 16 15 14 11 7 6 5 2 2 3 2 1 1 0 0 543 1356 1841 1780 1477 1203 1130 1206 1154 942 817 815 724 493 494 433 441 356 256 183 186 129 138
0 0 0 0 0 0 0 0 29 9 6 12 13 23 8 7 7 5 4 6 5 6 4 3 3 0 0 1236 1870 1863 1378 973 927 994 996 862 575 748 517 402 328 399 370 303 226 225 215 188 165
0 0 0 0 0 0 0 0 3 0 0 1 12 11 10 6 8 7 5 5 5 10 11 11 7 3 1 1 1348 1728 1310 884 716 676 785 744 456 245 257 288 316 305 238 205 188 249 216 204 182
0 0 8 4 5 1 0 0 0 1 3 2 8 10 8 6 9 8 5 4 3 4 8 14 7 5 3 4 1 1174 749 347 242 237 375 342 258 73 178 99 128 99 102 98 129 201 199 159 139
0 0 0 0 0 1 1 0 21 6 6 5 8 5 6 7 7 6 6 3 0 3 4 5 11 4 6 2 1 181 439 225 195 229 183 132 4 6 21 14 0 2 26 29 47 139 149 97 104
0 0 0 0 2 1 1 1 16 6 8 5 2 3 1 8 7 4 5 2 1 4 10 12 19 20 6 6 6 108 175 159 112 79 11 0 0 0 0 0 0 0 0 0 29 88 109 78 72

GFSSGP_con_sbcape_111.txt.gz
CAPE
0 0 0 0 0 0 0 0 0 0 0 0 0 0 0 0 0 0 557 661 1071 1441 1723 1770 1650 1702 1672 1642 1603 1697 2061 2225 2231 2067 1930 1877 1895 1942 1965 2031 2112 2215 2224 2108 1836 1770 1867 2047 1840
0 0 0 0 0 0 0 0 0 0 0 0 0 0 0 0 0 0 924 1050 1297 1644 1814 1927 1635 1716 1764 1738 1711 1806 2148 2215 2187 2171 2139 2098 2068 2079 2066 2029 2023 2100 2253 2269 1800 1737 1859 1780 1666
0 0 0 0 0 0 0 0 0 0 0 0 0 0 0 0 0 203 1045 1320 1483 1694 1809 1983 1682 1740 1829 1818 1839 1928 1984 2018 2065 2148 2274 2285 2280 2323 2219 1970 1991 2176 2381 2333 1911 1874 1759 1562 1430
0 0 0 0 0 0 0 0 0 0 0 0 0 0 0 0 1 625 1098 1426 1635 1742 1828 1621 1661 1770 1870 1917 1973 1985 1865 1796 1922 2103 2306 2404 2450 2459 2186 1952 2079 2354 2436 2506 2334 2085 1611 1290 1270
0 0 0 0 0 0 0 0 0 0 0 0 0 0 0 0 52 921 1417 1550 1729 1814 1961 1826 1486 1823 1945 2086 2084 1912 1708 1734 1849 2071 2210 2327 2459 2371 2071 2027 2167 2312 2276 1999 2182 1809 1359 1178 1119
0 0 0 0 0 0 0 0 0 0 0 0 0 0 0 0 4 970 1539 1606 1725 1944 2020 2080 1451 1759 1970 2084 2028 1735 1592 1702 1871 2019 2182 2351 2360 2167 2022 2058 2131 2098 1879 1557 1655 1423 1258 1129 1061
0 0 0 0 0 0 0 0 0 0 0 0 0 0 0 0 209 770 1233 1445 1697 1873 2072 2115 1905 1901 1924 1979 1905 1638 1547 1674 1873 1947 2114 2295 2197 2016 2011 2046 2012 1967 1713 1607 1520 1262 1130 1088 917
0 0 0 0 0 0 0 0 0 0 0 0 0 0 0 0 664 973 1171 1362 1435 1527 2046 2082 1882 1884 2313 2413 1676 1555 1553 1596 1765 1897 1992 2058 1995 1949 1907 1947 1955 1924 1668 1530 1330 1107 1038 907 681
0 0 0 0 0 0 0 0 0 0 0 0 0 0 0 0 140 983 1217 1374 1508 1030 1471 1655 1794 1805 2225 2441 2169 1623 1559 1541 1632 1809 1841 1794 2500 2463 2224 2113 1844 1661 1594 1338 1131 968 925 670 508
0 0 0 0 0 0 0 0 0 0 0 0 0 0 0 0 0 0 985 1285 1356 1353 951 1183 1379 1550 1980 2074 2174 2395 2226 2149 2120 2092 2229 2397 2403 2499 2277 1983 1494 1462 1322 1097 977 856 748 632 1212
0 0 0 0 0 0 0 0 0 0 0 0 0 0 0 0 0 0 0 1515 1347 1348 1402 1076 1084 1387 1760 1824 1654 1869 2049 1962 1966 1941 2026 2160 2157 2367 2387 2397 2112 2167 1307 1765 1151 1130 1376 1392 1315
0 0 0 0 0 0 0 0 0 0 0 0 0 0 0 0 0 0 0 0 1559 1899 1541 1560 1462 1224 1387 1520 1527 1703 1972 1845 1664 1667 1829 1925 1653 1891 2087 2226 2309 2238 2049 2036 1726 1748 1552 1526 1262
0 0 0 0 0 0 0 0 0 0 0 0 0 0 0 0 0 0 0 0 0 1436 2108 1638 1632 1616 1272 1268 1331 1521 1592 1638 1568 1523 1646 1688 1484 1593 1732 1965 2104 2133 1915 1726 1724 1519 1488 1444 1213
0 0 0 0 0 0 0 0 0 0 0 0 0 0 0 0 0 0 0 0 0 0 368 2262 1668 1691 1552 1233 1239 1412 1492 1544 1499 1822 2088 1680 1655 1597 1669 1547 1846 1896 1666 1471 1497 1346 1282 1325 1240
0 0 0 0 0 0 0 0 0 0 0 0 0 0 0 0 0 0 0 0 0 0 0 406 2187 1785 1586 1673 1679 1428 1611 1539 1516 2032 2293 2130 2195 1988 1599 1536 1362 1566 1297 1206 1112 1150 1152 1273 1074
0 0 0 0 0 0 0 0 0 0 0 0 0 0 0 0 0 0 0 0 0 0 0 0 376 1946 1848 1894 1931 1905 1743 1878 1866 2032 2003 2238 2189 1944 1787 1313 1302 1426 899 974 966 975 1009 1075 1023
0 0 0 0 0 0 0 0 0 0 0 0 0 0 0 0 0 0 0 0 0 0 0 0 0 1018 1965 2062 2016 1932 1813 1896 1990 1926 1965 1954 2042 1562 1572 1379 1063 1009 797 635 819 836 996 863 720
0 0 0 0 0 0 0 0 0 0 0 0 0 0 0 0 0 0 0 0 0 0 0 0 0 0 1469 2033 2281 2027 1922 1862 1826 1728 1477 1436 1477 1157 1374 1353 963 810 581 486 378 567 532 771 866
0 0 0 0 0 0 0 0 0 0 0 0 0 0 0 0 0 0 0 0 0 0 0 0 0 0 123 1345 1759 1638 1368 1509 1761 1484 1510 1354 1243 1078 1196 1394 765 720 665 466 282 342 367 261 244
0 0 0 0 0 0 0 0 0 0 0 0 0 0 0 0 0 0 0 0 0 0 0 0 0 0 0 587 1523 1716 1613 1571 1760 1393 1218 1221 1190 1097 981 1056 763 629 684 426 306 287 242 285 192
0 0 0 0 0 0 0 0 0 0 0 0 0 0 0 3 3 2 0 0 0 0 0 0 0 0 0 0 890 2009 2103 2166 1504 1284 1337 1105 1215 1130 925 903 754 586 580 517 447 355 351 295 108
0 0 0 0 0 0 0 0 0 0 0 0 7 4 1 3 1 1 1 0 1 0 0 0 0 0 0 0 93 1733 1766 1554 1406 1599 1579 1379 1157 1113 941 775 733 507 496 633 521 421 417 451 182
0 0 0 0 0 0 0 0 0 0 0 1 0 0 0 0 0 0 1 1 0 0 0 0 0 0 0 0 110 1844 2052 1983 1902 2153 2051 1534 1115 1049 865 795 650 557 658 700 493 457 430 548 376
0 0 0 0 0 0 0 0 0 0 8 7 2 4 4 1 0 0 0 0 1 0 1 0 0 0 1 104 144 1715 2196 2060 2175 2203 1816 1476 1386 978 890 729 569 574 530 653 430 479 478 343 317
0 0 0 0 0 0 0 0 0 5 7 4 7 0 5 2 2 2 2 3 4 5 4 6 7 3 1 3 233 1677 2261 2422 2315 2107 1974 1547 1213 924 798 808 596 561 523 580 608 469 432 382 305
0 0 0 0 0 0 0 0 0 1 2 4 6 5 4 4 2 6 6 8 6 10 9 10 14 5 4 4 84 1519 1641 1764 2161 2092 1949 1762 1471 1077 869 701 667 624 549 509 566 500 412 348 300
0 0 0 0 0 0 0 0 2 0 1 2 7 3 4 8 7 8 8 10 7 9 7 21 13 10 8 5 3 1026 1697 1684 1847 1917 1994 1942 1593 1108 876 847 503 513 478 377 514 582 339 252 292
0 0 9 5 5 4 0 0 0 1 6 4 5 9 8 7 8 10 9 12 8 10 5 15 22 19 9 5 7 2 1844 1465 1442 1683 1703 1655 1494 941 752 690 531 437 342 421 337 403 310 239 260
0 0 0 1 0 25 22 1 15 6 9 9 6 8 11 9 11 9 9 9 8 7 7 8 6 12 11 6 7 4 1038 1113 1116 1110 1582 1435 951 534 537 544 859 468 244 278 244 257 162 184 240
0 0 1 5 6 7 23 1 8 10 9 9 3 7 6 10 12 12 6 5 9 7 5 6 3 6 7 13 10 10 8 594 547 482 334 296 237 403 449 352 205 114 102 104 93 42 70 140 268

GFSSGP_con_sbcape_114.txt.gz
CAPE
0 0 0 0 0 0 0 0 0 0 0 0 0 0 0 0 0 0 0 1332 1377 1591 2342 1976 1591 1717 1821 1863 1972 2154 2366 2468 2249 2087 2104 2070 2061 2166 2248 2253 2275 2400 2458 2099 1843 2184 2044 1923 2001
0 0 0 0 0 0 0 0 0 0 0 0 0 0 0 0 0 0 185 1065 1397 1803 2192 2046 1556 1696 1845 1870 2016 2284 2572 2562 2300 2221 2221 2192 2204 2312 2314 2281 2258 2451 2528 2309 1771 1919 2306 1953 1739
0 0 0 0 0 0 0 0 0 0 0 0 0 0 0 0 0 0 157 1252 1795 1956 2142 2251 1639 1684 1820 1873 2024 2300 2443 2367 2328 2264 2372 2378 2374 2422 2408 2220 2231 2491 2656 2466 1976 2091 2028 1715 1520
0 0 0 0 0 0 0 0 0 0 0 0 0 0 0 0 0 0 589 1809 1945 2098 2257 1719 1592 1705 1872 1928 2052 2225 2253 2238 2241 2286 2460 2506 2554 2557 2399 2142 2323 2617 2654 2627 2500 2115 1765 1432 1365
0 0 0 0 0 0 0 0 0 0 0 0 0 0 0 0 0 0 538 2044 1976 2173 2364 2547 1560 1756 1912 2045 2125 2076 2058 2150 2267 2372 2439 2523 2629 2560 2254 2126 2349 2557 2644 2615 2467 1936 1520 1366 1301
0 0 0 0 0 0 0 0 0 0 0 0 0 0 0 0 0 38 551 2000 2273 2403 2587 2687 1772 1819 1948 2048 2008 1827 1846 2012 2218 2357 2420 2562 2552 2333 2162 2168 2339 2419 2455 2273 2024 1593 1442 1321 1250
0 0 0 0 0 0 0 0 0 0 0 0 0 0 0 0 0 70 803 1898 2444 2632 2757 2788 2267 2212 1890 1988 1856 1686 1710 1860 2044 2218 2375 2480 2329 2149 2137 2229 2268 2218 1837 1724 1736 1461 1328 1312 1149
0 0 0 0 0 0 0 0 0 0 0 0 0 0 0 0 0 0 1 1903 2379 2619 2903 3027 2371 2557 2628 2525 1670 1581 1618 1735 1888 2048 2240 2286 2125 2048 2067 2138 2134 2062 1807 1747 1614 1338 1256 1208 955
0 0 0 0 0 0 0 0 0 0 0 0 0 0 0 0 0 0 0 466 2085 2384 2504 2515 2294 2292 2742 2841 2370 1573 1523 1634 1780 1916 1964 2085 2546 2629 2546 2170 2047 1991 1756 1645 1439 1231 1161 990 705
0 0 0 0 0 0 0 0 0 0 0 0 0 0 0 0 0 0 0 0 479 2364 2501 2221 2246 2143 2388 2627 2842 2686 2444 2249 2224 2170 2419 2474 2464 2533 2385 2175 1819 1565 1549 1379 1221 1106 922 875 1437
0 0 0 0 0 0 0 0 0 0 0 0 0 0 0 0 0 0 0 0 1 1341 2352 2314 2120 2182 2366 2689 2513 2657 2598 2571 2578 2605 2597 2441 2465 2631 2666 2543 2456 2533 1626 2231 1318 1487 1643 1404 1303
0 0 0 0 0 0 0 0 0 0 0 0 0 0 0 0 0 0 0 0 0 223 1860 2258 2396 2291 2544 2591 2105 2256 2800 2531 2554 2658 2807 2628 2836 2751 2579 2641 2482 2423 2621 2277 1940 1740 1606 1564 1452
0 0 0 0 0 0 0 0 0 0 0 0 0 0 0 0 0 0 0 0 0 0 161 1990 2276 2323 2355 2440 2241 2096 2521 2493 2653 2554 2386 2728 2719 2543 2568 2481 2430 2495 2308 2415 2149 1904 1815 1667 1496
0 0 0 0 0 0 0 0 0 0 0 0 0 0 0 0 0 0 0 0 0 0 0 0 1534 2302 2305 2352 2428 2460 2590 2410 2443 2257 2296 2385 2575 2482 2195 2465 2528 2470 2296 2431 2352 2078 1988 1825 1679
0 0 0 0 0 0 0 0 0 0 0 0 0 0 0 0 0 0 0 0 0 0 0 0 0 1326 2469 2389 2354 2348 2290 2245 2202 2078 2594 2360 2354 2542 2189 2294 2433 2311 2689 2312 2429 2037 1820 1620 1714
0 0 0 0 0 0 0 0 0 0 0 0 0 0 0 0 0 0 0 0 0 0 0 0 0 0 1685 2430 2347 2187 2146 2187 2114 2148 2599 2879 2230 2537 2299 2187 2299 2537 2754 2474 2267 2019 1897 1804 1644
0 0 0 0 0 0 0 0 0 0 0 0 0 0 0 0 0 0 0 0 0 0 0 0 0 0 556 1766 2401 2609 2376 2259 2178 2195 2348 2577 2823 2988 2712 2370 2096 2353 2114 2322 2163 2075 2011 1745 1479
0 0 0 0 0 0 0 0 0 0 0 0 0 0 0 0 0 0 0 0 0 0 0 0 0 0 0 718 1872 1937 2327 2551 2321 2291 2373 2554 2903 2801 2965 2313 2348 2115 1569 1747 2204 2127 1866 1893 1596
0 0 0 0 0 0 0 0 0 0 0 0 0 0 0 0 0 0 0 0 0 0 0 0 0 0 0 0 418 1027 1966 2146 2408 2536 2476 2492 2808 2845 2713 2137 2142 1648 1507 1588 1776 1770 1897 2024 1818
0 0 0 0 0 0 0 0 0 0 0 0 0 0 0 0 0 0 0 0 0 0 0 0 0 0 0 0 0 717 1271 1652 1799 2369 2797 2635 2448 2498 2679 2377 2082 1607 1458 1271 1437 1345 1124 1176 1342
0 0 0 0 0 0 0 0 0 0 0 0 0 0 0 0 0 0 0 0 0 0 0 0 0 0 0 0 0 0 884 1395 1691 2279 2877 2917 2396 2394 2727 2262 1877 1488 1464 1060 1073 1318 1081 813 796
0 0 0 0 0 0 0 0 0 0 0 0 0 0 0 0 0 0 0 0 0 0 0 0 0 0 0 0 0 0 22 954 1568 1771 2152 2554 2809 2464 2280 2097 1896 1498 1377 1110 970 1118 1342 1086 601
0 0 0 0 0 0 0 0 0 0 0 0 1 4 2 0 0 0 0 0 0 0 0 3 3 1 2 6 6 5 5 1126 1322 2036 1943 2164 2276 1977 1910 1872 1934 1485 1509 1134 973 1010 1198 1113 937
0 0 0 0 0 0 0 0 0 0 0 4 5 2 2 1 1 2 2 2 1 1 1 2 3 1 2 5 10 15 199 482 1442 1657 2146 2386 2306 1652 1518 1464 1587 1521 1371 1116 956 981 1176 1101 957
0 0 0 0 4 0 0 0 0 0 3 3 4 6 7 6 6 7 7 4 5 3 3 1 1 3 1 7 8 12 76 586 1943 1679 2364 2392 1972 1470 1405 1378 1346 1308 1261 1183 835 761 990 1015 778
0 0 0 0 0 0 0 0 0 0 1 8 5 7 6 9 8 8 10 13 10 8 6 10 8 5 3 11 11 9 54 922 1800 2039 2048 2305 2034 1627 1390 1491 1355 1294 1254 1180 1118 869 748 830 967
0 0 0 0 0 1 0 0 0 2 5 2 4 6 11 10 10 11 12 15 17 9 10 9 11 7 9 13 17 13 111 1343 2056 2254 2592 2484 2284 1584 1552 1408 1218 1098 1160 1065 979 729 710 747 867
0 1 14 15 10 14 7 11 67 4 6 9 9 9 11 11 11 15 14 20 20 11 14 9 6 10 10 11 16 10 13 675 2176 2182 2217 2153 2423 2159 1931 1577 1408 971 920 936 857 778 658 671 755
10 7 11 34 49 45 51 31 16 11 13 6 9 8 21 11 19 30 25 18 23 18 12 10 4 8 12 15 20 14 9 1647 2256 2077 2043 2266 2259 1864 1763 1873 1310 881 809 731 712 751 542 476 655
0 18 37 61 35 40 58 20 7 7 5 8 5 6 7 10 13 21 22 18 22 15 12 7 5 4 11 14 9 9 5 5 1789 1807 1881 1962 1727 1650 1383 1183 752 518 517 553 578 395 298 401 474

GFSSGP_con_sbcape_117.txt.gz
CAPE
0 0 0 0 0 0 0 0 0 0 0 0 0 0 0 0 0 0 0 522 900 1228 2848 1874 1583 1872 2002 2237 2285 2269 2301 2396 2321 2246 2276 2239 2263 2411 2474 2449 2491 2668 2757 2196 2142 2047 2038 2128 2423
0 0 0 0 0 0 0 0 0 0 0 0 0 0 0 0 0 0 0 357 1297 1661 2779 2165 1540 1822 1995 2193 2368 2448 2645 2549 2381 2351 2418 2368 2411 2514 2530 2479 2419 2483 2728 2183 2266 2170 2216 2116 1976
0 0 0 0 0 0 0 0 0 0 0 0 0 0 0 0 0 0 26 1309 1800 1944 2521 2527 1567 1736 1971 2160 2400 2566 2680 2466 2339 2381 2527 2528 2577 2661 2624 2416 2463 2736 2811 2309 2027 2552 2238 1848 1699
0 0 0 0 0 0 0 0 0 0 0 0 0 0 0 0 0 0 71 1489 2046 2145 2321 1520 1523 1666 1929 2160 2433 2573 2543 2391 2299 2342 2546 2628 2711 2737 2619 2353 2513 2849 2927 2670 2616 2448 1974 1558 1526
0 0 0 0 0 0 0 0 0 0 0 0 0 0 0 0 0 0 138 1611 2271 2208 2528 2616 1577 1646 1893 2178 2429 2440 2399 2349 2329 2408 2503 2599 2700 2741 2452 2296 2507 2799 2867 2833 2668 2148 1662 1477 1459
0 0 0 0 0 0 0 0 0 0 0 0 0 0 0 0 0 0 213 1211 2564 2412 2650 3169 1713 1693 1835 2022 2160 2158 2217 2283 2367 2445 2500 2657 2630 2502 2298 2280 2430 2624 2676 2582 2197 1701 1562 1463 1417
0 0 0 0 0 0 0 0 0 0 0 0 0 0 0 0 0 0 0 926 2476 2851 2812 3397 2546 2114 1745 1845 1866 1896 2064 2221 2343 2449 2494 2611 2491 2257 2197 2260 2389 2499 2457 2255 1873 1564 1443 1424 1309
0 0 0 0 0 0 0 0 0 0 0 0 0 0 0 0 0 0 0 0 2016 2854 3149 3491 2851 2595 2324 2047 1578 1597 1875 2076 2247 2299 2406 2394 2290 2139 2140 2203 2293 2387 2020 1903 1715 1435 1355 1318 1108
0 0 0 0 0 0 0 0 0 0 0 0 0 0 0 0 0 0 0 0 1014 2554 2748 3494 2957 2820 2769 2483 2080 1472 1528 1769 1950 2195 2185 2218 2811 2740 2597 2267 2161 2138 1806 1721 1587 1325 1245 1138 873
0 0 0 0 0 0 0 0 0 0 0 0 0 0 0 0 0 0 0 0 0 861 2686 2974 3014 2881 3307 2707 2884 2251 2084 1969 2190 2337 2729 2805 2541 2793 2264 2113 1985 1901 1742 1598 1444 1243 1104 1000 1456
0 0 0 0 0 0 0 0 0 0 0 0 0 0 0 0 0 0 0 0 0 21 2363 2766 2758 2776 2772 3138 2997 2638 2563 2356 2370 2415 2530 2487 2666 2996 2477 2826 2498 2632 1576 2327 1539 1413 1543 1418 1349
0 0 0 0 0 0 0 0 0 0 0 0 0 0 0 0 0 0 0 0 0 0 1051 2731 2945 2821 2771 3270 2801 2675 2635 2885 2722 2789 3570 3238 3053 3217 3029 2622 2647 2885 2622 2420 2170 1827 1628 1891 1876
0 0 0 0 0 0 0 0 0 0 0 0 0 0 0 0 0 0 0 0 0 0 0 1097 2674 2978 3147 3142 2937 2974 3083 2618 2739 2788 3407 3052 2690 3409 3085 2640 2839 2659 2444 2615 2446 2015 2019 1847 1590
0 0 0 0 0 0 0 0 0 0 0 0 0 0 0 0 0 0 0 0 0 0 0 0 36 2597 2774 3033 3241 3346 3254 2991 3000 2835 2857 3681 3185 3085 2810 2952 2377 2743 2415 2259 2590 2256 1946 1987 1747
0 0 0 0 0 0 0 0 0 0 0 0 0 0 0 0 0 0 0 0 0 0 0 0 0 0 1603 2427 2751 3064 2695 2821 2853 2768 3450 2853 3489 3633 3192 2879 2748 2107 2431 2847 2951 2731 2314 2031 2123
0 0 0 0 0 0 0 0 0 0 0 0 0 0 0 0 0 0 0 0 0 0 0 0 0 0 0 1061 1990 2611 2745 2985 2775 2904 2637 3073 2752 3241 3215 2715 3007 2712 2712 2870 2756 2676 2499 1973 1734
0 0 0 0 0 0 0 0 0 0 0 0 0 0 0 0 0 0 0 0 0 0 0 0 0 0 0 6 1207 2219 2814 2946 2707 2604 2666 2996 2976 3326 3332 2688 2674 3336 2886 2981 2653 2417 2492 2456 2143
0 0 0 0 0 0 0 0 0 0 0 0 0 0 0 0 0 0 0 0 0 0 0 0 0 0 0 0 29 997 1932 2522 2923 2850 2550 2824 3463 3365 3232 2724 2889 2795 2962 3075 3059 2725 2457 2255 2153
0 0 0 0 0 0 0 0 0 0 0 0 0 0 0 0 0 0 0 0 0 0 0 0 0 0 0 0 0 23 1726 2151 2723 2842 3081 2670 3117 3639 3445 3256 3283 2958 2627 2542 2862 2854 2725 2311 2398
0 0 0 0 0 0 0 0 0 0 0 0 0 0 0 0 0 0 0 0 0 0 0 0 0 0 0 0 0 0 6 1150 2272 2677 2866 3300 3430 3579 3685 3612 3331 3288 2558 1960 2202 2293 2681 2851 2767
0 0 0 0 0 0 0 0 0 0 0 0 0 0 0 0 0 0 0 0 0 0 0 0 0 0 0 1 0 0 16 7 1520 2343 2586 2998 3395 3607 3733 3706 3466 3281 2871 2504 1893 1808 1852 1920 2488
0 0 0 0 0 0 0 0 0 0 0 0 0 5 0 0 0 0 0 0 0 0 2 5 3 1 0 2 1 0 0 0 443 2095 2392 2405 3257 3482 3752 3819 3675 3328 2804 2337 1849 1648 1609 1381 1299
0 0 0 0 0 0 0 0 0 0 0 23 1 0 0 0 0 0 0 0 0 0 2 5 7 5 3 5 6 6 3 2 93 263 2328 2482 2879 3082 3572 3621 3550 3257 2749 2431 2107 1624 1518 1426 1252
0 0 0 0 0 0 0 1 0 1 0 0 0 0 0 0 0 0 0 0 0 0 3 7 8 7 6 6 7 8 12 6 16 302 1102 1993 2406 2679 3433 3226 3151 2824 2431 2396 2347 1838 1414 1469 1142
0 0 0 3 8 0 0 2 0 0 0 0 0 0 0 1 1 1 1 2 4 4 5 6 7 7 6 8 7 6 6 13 8 13 601 1830 2224 2514 2812 2765 2356 2607 2382 2148 2187 1530 1348 1368 1154
0 3 15 1 8 5 0 0 49 0 0 2 1 3 3 5 5 4 6 6 8 10 10 10 8 9 9 8 7 5 7 14 13 27 625 785 2215 2726 2829 2626 2030 1948 2371 1964 1740 1447 1338 1232 1205
0 0 0 1 0 1 0 0 6 0 5 4 6 5 7 7 9 8 11 12 11 14 13 13 10 10 10 7 11 6 12 15 14 67 1032 1478 2052 2724 2676 2477 1711 1595 1608 1748 1448 1274 1126 1258 1320
0 0 3 13 6 11 5 16 18 8 5 6 7 7 8 9 4 9 12 13 15 15 18 19 8 7 5 10 9 9 8 15 15 344 1415 2051 2262 2538 2323 2258 1650 1454 1407 1349 1305 1209 1061 974 1070
2 3 0 14 43 61 71 36 12 5 10 10 8 5 15 13 8 29 25 12 15 20 14 13 11 7 11 8 6 5 17 15 17 678 1798 2390 2277 1960 2094 2100 1612 1412 1323 1204 1181 1033 903 898 995
2 19 26 68 32 54 63 73 4 3 5 5 2 8 7 8 10 26 24 19 23 17 17 12 12 9 9 2 6 20 13 10 3 244 1475 2074 1712 1818 1999 1910 1811 1629 1185 1028 969 931 843 834 587

GFSSGP_con_sbcape_123.txt.gz
CAPE
0 0 0 0 0 0 0 0 0 0 0 0 0 0 0 0 0 0 7 369 1287 1809 1611 1749 1852 2105 2262 2390 2119 2044 2174 2288 2232 2188 2088 2129 2188 2257 2265 2285 2429 2722 2833 2484 2284 2123 1832 2160 1888
0 0 0 0 0 0 0 0 0 0 0 0 0 0 0 0 0 0 31 486 1434 1967 1644 1721 1766 2051 2221 2292 2266 2204 2417 2475 2309 2290 2240 2275 2336 2333 2296 2215 2304 2701 2878 2679 2458 2137 2318 2458 1722
0 0 0 0 0 0 0 0 0 0 0 0 0 0 0 0 0 0 214 1451 1733 2175 1819 1810 1715 1934 2163 2241 2302 2278 2419 2328 2282 2314 2424 2485 2536 2541 2452 2176 2283 2737 2764 2663 2440 2540 2443 1948 1602
0 0 0 0 0 0 0 0 0 0 0 0 0 0 0 0 0 0 648 1593 2121 2279 2064 1520 1701 1853 2135 2268 2354 2377 2359 2190 2175 2289 2471 2648 2722 2707 2437 2162 2406 2774 2740 2712 2909 2726 1928 1541 1503
0 0 0 0 0 0 0 0 0 0 0 0 0 0 0 0 0 2 707 1828 2410 2102 1695 1520 1667 1815 2114 2356 2451 2482 2308 2134 2161 2306 2403 2558 2723 2678 2274 2177 2462 2724 2651 2698 2657 2123 1548 1399 1408
0 0 0 0 0 0 0 0 0 0 0 0 0 0 0 0 0 0 240 1729 2341 2536 1848 1603 1660 1798 2035 2331 2447 2412 2199 2082 2138 2265 2348 2491 2548 2433 2190 2196 2395 2595 2537 2560 2188 1810 1436 1343 1367
0 0 0 0 0 0 0 0 0 0 0 0 0 0 0 0 0 0 0 1732 2000 2767 2005 1603 1686 1748 1844 2152 2296 2253 2133 2091 2101 2206 2306 2405 2395 2301 2181 2233 2322 2411 2432 2280 1909 1560 1405 1352 1370
0 0 0 0 0 0 0 0 0 0 0 0 0 0 0 0 0 0 0 0 1993 2453 2798 1997 1657 1555 1439 1675 2033 2076 2062 2059 2060 2141 2203 2281 2210 2147 2117 2172 2284 2323 2287 2066 1678 1421 1364 1335 1268
0 0 0 0 0 0 0 0 0 0 0 0 0 0 0 0 0 0 0 0 1877 2206 2763 2517 2005 1722 1526 1409 1556 1797 1953 2012 2028 2051 2099 1851 1973 1936 1960 2006 2171 2183 2139 1985 1590 1308 1292 1248 1154
0 0 0 0 0 0 0 0 0 0 0 0 0 0 0 0 0 0 0 0 0 1154 2582 2830 2388 1951 1668 1752 1424 1370 1615 1690 1797 1984 1884 1877 1920 1835 1995 1936 2015 2122 1912 1834 1519 1248 1185 1133 862
0 0 0 0 0 0 0 0 0 0 0 0 0 0 0 0 0 0 0 0 0 0 2682 2791 2652 2437 2299 1872 1308 1272 1304 1491 1766 1989 1820 2017 2028 1962 1925 1799 1635 1608 1519 1345 1277 1109 994 1043 1006
0 0 0 0 0 0 0 0 0 0 0 0 0 0 0 0 0 0 0 0 0 0 0 2745 2557 2378 1907 2284 1779 1268 1367 1250 1577 1862 2011 2076 2115 2093 1900 1729 1535 1585 1435 1344 1250 1005 979 1083 1066
0 0 0 0 0 0 0 0 0 0 0 0 0 0 0 0 0 0 0 0 0 0 0 2157 2372 2229 2149 1983 1640 1947 1545 1351 1509 1577 1985 2103 2036 1817 1739 1664 1648 1726 1486 1636 1376 1194 1096 1121 1030
0 0 0 0 0 0 0 0 0 0 0 0 0 0 0 0 0 0 0 0 0 0 0 0 0 123 1396 1629 1149 1250 1553 1779 1443 1537 1744 2081 1918 1730 1815 1276 1854 1793 1685 1639 1646 1404 1148 1035 1021
0 0 0 0 0 0 0 0 0 0 0 0 0 0 0 0 0 0 0 0 0 0 0 0 0 0 0 0 32 891 1014 1279 1244 1680 1741 1969 2056 1735 1962 1671 1767 1793 1713 1696 1584 1514 1262 1090 1005
0 0 0 0 0 0 0 0 0 0 0 0 0 0 0 0 0 0 0 0 0 0 0 0 0 0 0 0 0 0 0 446 1050 1056 1551 2093 2093 1963 1708 1935 1655 1808 1669 1722 1608 1629 1480 1309 1281
0 0 0 0 0 0 0 0 0 0 0 0 0 0 0 0 0 0 0 0 0 0 0 0 0 0 0 0 0 0 0 0 289 1008 1277 1431 1669 1919 1940 1956 1824 1586 1700 1699 1683 1644 1626 1484 1270
0 0 0 0 0 0 0 0 0 0 0 0 0 0 0 0 0 0 0 0 0 0 0 0 0 0 0 0 0 0 0 0 0 307 976 1196 1412 1738 1762 1934 1610 1779 1758 1509 1581 1473 1563 1570 1361
0 0 0 0 0 0 0 0 0 0 0 0 0 0 0 0 0 0 0 0 0 0 0 0 0 0 0 0 0 0 0 0 0 0 1 1056 1184 1452 1570 1723 1773 1522 1729 1745 1447 1531 1570 1531 1333
0 0 0 0 0 0 0 0 0 0 0 0 0 0 0 0 0 0 0 0 0 0 0 0 0 0 0 0 0 0 0 0 0 0 0 0 162 1418 1600 1297 1480 1904 1687 1302 1519 1627 1644 1626 1388
0 0 0 0 0 0 0 0 0 0 0 0 0 0 0 0 0 0 0 0 0 0 0 0 0 0 0 0 0 0 0 0 0 0 0 0 0 497 1425 1392 1329 1644 1816 1363 1495 1755 1649 1558 1358
0 0 0 0 0 0 0 0 0 0 0 0 0 0 0 0 0 0 0 0 0 0 0 0 0 0 0 0 0 0 0 0 0 0 0 0 0 0 62 1359 1542 1364 1639 1820 1200 1748 1731 1406 1379
0 0 0 0 0 0 0 0 0 0 0 0 0 0 0 0 0 0 0 0 0 0 0 0 0 0 0 0 0 0 0 0 0 0 0 0 0 0 0 117 1218 1668 1468 1897 1434 1296 1619 1277 1325
0 0 0 0 0 0 0 0 0 0 0 0 0 0 0 0 0 0 0 0 0 0 0 0 0 0 0 0 0 0 0 1 1 0 0 0 0 0 0 0 224 1153 1632 1618 1729 1520 1300 1252 1003
0 0 0 0 0 0 0 0 4 0 0 0 0 0 0 0 0 0 0 0 0 0 0 0 1 3 1 1 0 0 2 4 6 3 4 1 0 0 0 0 0 645 1085 1559 1723 1370 887 472 737
0 0 0 0 0 0 0 0 0 0 0 0 0 0 0 0 0 0 0 0 0 0 0 2 5 11 4 2 2 2 3 5 5 5 9 7 4 2 2 0 0 93 773 1130 1395 1338 746 7 62
0 0 0 0 0 0 0 0 0 0 0 0 0 0 0 0 0 1 0 0 0 0 2 7 13 10 9 8 7 5 4 4 3 3 3 3 1 3 1 4 0 0 302 785 946 1166 980 571 227
0 0 0 0 0 0 0 0 0 0 1 1 0 0 0 0 0 0 0 1 0 1 5 19 5 8 5 7 8 9 7 6 5 4 2 1 1 2 1 2 3 0 25 618 725 786 774 783 784
0 0 0 0 0 0 0 0 0 0 0 0 1 0 0 1 0 1 0 0 1 2 2 14 3 5 4 11 9 14 13 16 8 7 7 5 5 0 0 2 4 0 22 583 499 630 645 667 940
0 0 0 0 0 0 0 0 0 0 1 0 0 0 0 0 0 0 1 1 1 3 1 5 5 3 4 11 13 14 11 12 14 9 7 9 6 6 3 4 1 1 1 3 24 9 28 0 576

GFSSGP_con_sbcape_126.txt.gz
CAPE
0 0 0 0 0 0 0 0 0 0 0 0 0 0 0 0 0 0 0 191 1797 1517 1669 1791 1998 2188 2214 2060 1994 2038 2179 2235 2240 2104 2037 2182 2254 2181 2313 2405 2554 2873 2897 2379 2252 2092 1995 1784 1787
0 0 0 0 0 0 0 0 0 0 0 0 0 0 0 0 0 0 42 823 1736 1551 1657 1792 1949 2116 2250 2105 2078 2145 2397 2365 2296 2214 2212 2266 2364 2372 2303 2271 2413 2784 3040 2565 2303 2197 2348 2066 1784
0 0 0 0 0 0 0 0 0 0 0 0 0 0 0 0 0 10 295 1912 1945 1713 1576 1807 1892 2064 2188 2212 2103 2177 2336 2239 2241 2222 2371 2424 2467 2473 2347 2175 2424 2803 2985 2795 2522 2500 2495 1833 1550
0 0 0 0 0 0 0 0 0 0 0 0 0 0 0 0 0 154 1193 2203 2015 1807 1752 1565 1740 1955 2141 2232 2196 2189 2186 2066 2068 2155 2410 2558 2599 2577 2307 2115 2538 2747 2899 3055 2969 2760 2033 1569 1470
0 0 0 0 0 0 0 0 0 0 0 0 0 0 0 0 0 675 1362 2384 2170 1826 1601 1469 1606 1869 2106 2305 2306 2244 2141 1995 2021 2138 2287 2504 2582 2479 2158 2076 2432 2547 2597 2771 2874 2039 1660 1460 1441
0 0 0 0 0 0 0 0 0 0 0 0 0 0 0 0 0 84 1329 2449 2300 2068 1613 1491 1462 1801 1999 2226 2299 2244 2122 1989 1989 2103 2193 2443 2407 2170 2025 2054 2323 2349 2327 2412 2300 1740 1495 1408 1393
0 0 0 0 0 0 0 0 0 0 0 0 0 0 0 0 0 0 1163 1661 2565 1974 1614 1537 1551 1653 1924 2090 2196 2219 2049 1981 1956 2010 2081 2293 2224 2021 1932 2039 2203 2297 2244 2236 1921 1631 1387 1362 1352
0 0 0 0 0 0 0 0 0 0 0 0 0 0 0 0 0 0 0 1310 2367 2170 1671 1480 1393 1488 1590 1790 2063 2094 1979 1896 1839 1879 1947 2045 2003 1922 1872 1940 2091 2200 2183 2110 1763 1451 1341 1318 1237
0 0 0 0 0 0 0 0 0 0 0 0 0 0 0 0 0 0 0 0 1378 2341 2357 1646 1399 1327 1260 1370 1595 1846 1959 1879 1760 1792 1828 1698 1878 1778 1728 1742 1898 2016 2042 1917 1542 1265 1225 1186 1095
0 0 0 0 0 0 0 0 0 0 0 0 0 0 0 0 0 0 0 0 0 26 2164 2195 1751 1496 1240 1490 1424 1478 1665 1840 1839 1770 1710 1780 1738 1668 1755 1666 1672 1786 1728 1735 1402 1134 1080 1021 781
0 0 0 0 0 0 0 0 0 0 0 0 0 0 0 0 0 0 0 0 0 0 1376 2486 2159 1594 1371 1451 1171 1110 1243 1460 1260 1539 1703 1494 1710 1559 1622 1512 1435 1422 1300 1404 1185 948 855 782 605
0 0 0 0 0 0 0 0 0 0 0 0 0 0 0 0 0 0 0 0 0 0 0 0 39 878 1461 1708 1241 1057 1148 1136 1334 1380 1367 1369 1677 1674 1654 1592 1455 1399 1332 1223 1169 983 874 780 697
0 0 0 0 0 0 0 0 0 0 0 0 0 0 0 0 0 0 0 0 0 0 0 0 0 0 0 0 187 1129 1048 1025 1143 1512 1705 1698 1730 1767 1643 1609 1336 1424 1302 1117 933 847 768 780 758
0 0 0 0 0 0 0 0 0 0 0 0 0 0 0 0 0 0 0 0 0 0 0 0 0 0 0 0 0 0 78 661 838 1168 1657 1670 1724 1770 1965 1621 1405 1378 1328 1190 1068 964 884 861 746
0 0 0 0 0 0 0 0 0 0 0 0 0 0 0 0 0 0 0 0 0 0 0 0 0 0 0 0 0 0 0 0 19 956 1277 1376 1365 1628 1655 1502 1530 1514 1360 1240 1168 1012 879 749 614
0 0 0 0 0 0 0 0 0 0 0 0 0 0 0 0 0 0 0 0 0 0 0 0 0 0 0 0 0 0 0 0 0 1 26 572 853 931 1108 1464 1337 1545 1358 1270 1219 1215 1050 836 625
0 0 0 0 0 0 0 0 0 0 0 0 0 0 0 0 0 0 0 0 0 0 0 0 0 0 0 0 0 0 0 0 0 0 0 0 192 924 580 1252 1341 1076 1270 1412 1264 1152 1136 1002 830
0 0 0 0 0 0 0 0 0 0 0 0 0 0 0 0 0 0 0 0 0 0 0 0 0 0 0 0 0 0 0 0 0 0 0 0 0 2 222 656 949 643 1221 1149 1360 1243 1151 1110 1031
0 0 0 0 0 0 0 0 0 0 0 0 0 0 0 0 0 0 0 0 0 0 0 0 0 0 0 0 0 0 0 0 0 0 0 0 0 0 0 368 1 310 1159 1219 1234 1248 1235 1230 1110
0 0 0 0 0 0 0 0 0 0 0 0 0 0 0 0 0 0 0 0 0 0 0 0 0 0 0 0 0 0 0 0 0 0 0 0 0 0 0 0 465 113 914 1052 842 1017 1163 1192 825
0 0 0 0 0 0 0 0 0 0 0 0 0 0 0 0 0 0 0 0 0 0 0 0 0 0 0 0 0 0 0 0 0 0 0 0 0 0 0 0 0 200 17 71 822 1139 1042 875 988
0 0 0 0 0 0 0 0 0 0 0 0 0 0 0 0 0 0 0 0 0 0 0 0 0 0 0 0 0 0 0 0 0 0 0 0 0 0 0 0 0 0 291 380 722 1017 1088 938 848
0 0 0 0 0 0 0 0 0 0 0 0 0 0 0 0 0 0 0 0 0 0 0 0 0 0 0 0 0 0 0 0 0 0 0 0 0 0 0 0 0 0 0 373 646 931 808 939 902
0 0 0 0 0 0 0 0 0 0 0 0 0 0 0 0 0 0 0 0 0 0 0 0 0 0 0 0 0 0 0 0 0 0 0 0 0 0 0 0 0 2 0 0 328 613 921 837 826
0 0 0 0 0 0 0 0 0 0 0 0 0 0 0 0 0 0 0 0 0 0 0 0 4 2 1 1 0 1 1 1 1 1 0 0 0 0 0 0 0 1 0 0 0 413 581 721 628
0 0 0 0 0 0 0 0 0 0 0 0 0 0 0 0 0 0 0 0 0 0 0 4 7 7 1 0 0 0 5 6 6 5 5 4 2 1 1 0 0 0 0 0 0 26 496 471 541
0 0 0 0 0 0 0 0 0 0 0 0 0 0 0 0 0 0 0 0 1 0 5 17 8 9 3 2 6 5 11 11 8 3 2 3 2 1 2 0 0 2 2 2 0 8 226 403 39
0 0 0 0 0 0 0 0 0 0 0 0 0 0 0 0 0 0 0 1 1 3 2 17 6 5 6 10 15 18 16 12 10 19 17 15 15 15 7 4 3 3 0 2 1 1 128 286 0
0 0 0 0 0 0 0 0 0 0 0 0 0 0 0 0 0 0 1 0 0 1 1 8 3 4 5 7 15 18 18 15 13 15 13 10 9 11 9 4 3 3 1 1 3 4 102 318 192
0 0 0 0 0 0 0 0 0 0 0 0 0 0 0 0 0 0 0 0 0 1 1 4 3 3 5 8 11 15 31 15 13 12 12 12 8 8 4 3 2 2 2 2 1 0 68 412 309